<?xml version="1.0" encoding="UTF-8" standalone="no" ?>
<gpx xmlns="http://www.topografix.com/GPX/1/1" xmlns:xsi="http://www.w3.org/2001/XMLSchema-instance" xsi:schemaLocation="http://www.topografix.com/GPX/1/1 http://www.topografix.com/GPX/1/1/gpx.xsd" version="1.1" creator="VisuGPX - https://www.visugpx.com">
  <metadata>
    <name>ville des glacier refuge robert blanc col de la seigne</name>
    <desc><![CDATA[belle sortie]]></desc>
  </metadata>
  <trk>
    <name><![CDATA[Move]]></name>
    <trkseg>
      <trkpt lat="45.72809" lon="6.7676">
        <ele>1801.094756129</ele>
        <time>2013-09-22T06:18:24.260Z</time>
      </trkpt>
      <trkpt lat="45.72811" lon="6.76761">
        <ele>1801.8608877419</ele>
        <time>2013-09-22T06:18:28.060Z</time>
      </trkpt>
      <trkpt lat="45.72822" lon="6.76766">
        <ele>1803.27016</ele>
        <time>2013-09-22T06:18:35.050Z</time>
      </trkpt>
      <trkpt lat="45.72833" lon="6.76766">
        <ele>1805.07000064</ele>
        <time>2013-09-22T06:18:43.980Z</time>
      </trkpt>
      <trkpt lat="45.72842" lon="6.76775">
        <ele>1806.27000064</ele>
        <time>2013-09-22T06:18:49.980Z</time>
      </trkpt>
      <trkpt lat="45.72852" lon="6.76783">
        <ele>1807.47599872</ele>
        <time>2013-09-22T06:18:56.010Z</time>
      </trkpt>
      <trkpt lat="45.72861" lon="6.7679">
        <ele>1808.27599872</ele>
        <time>2013-09-22T06:19:00.010Z</time>
      </trkpt>
      <trkpt lat="45.7287" lon="6.76797">
        <ele>1809.30599936</ele>
        <time>2013-09-22T06:19:05.160Z</time>
      </trkpt>
      <trkpt lat="45.7288" lon="6.76803">
        <ele>1810.50599936</ele>
        <time>2013-09-22T06:19:11.160Z</time>
      </trkpt>
      <trkpt lat="45.7289" lon="6.76807">
        <ele>1811.25299968</ele>
        <time>2013-09-22T06:19:16.160Z</time>
      </trkpt>
      <trkpt lat="45.729" lon="6.76811">
        <ele>1811.75299968</ele>
        <time>2013-09-22T06:19:21.160Z</time>
      </trkpt>
      <trkpt lat="45.7291" lon="6.76814">
        <ele>1812.25299968</ele>
        <time>2013-09-22T06:19:26.160Z</time>
      </trkpt>
      <trkpt lat="45.72918" lon="6.76819">
        <ele>1812.75299968</ele>
        <time>2013-09-22T06:19:31.160Z</time>
      </trkpt>
      <trkpt lat="45.72928" lon="6.76824">
        <ele>1813.68999936</ele>
        <time>2013-09-22T06:19:37.080Z</time>
      </trkpt>
      <trkpt lat="45.72937" lon="6.7683">
        <ele>1814.68999936</ele>
        <time>2013-09-22T06:19:42.080Z</time>
      </trkpt>
      <trkpt lat="45.72945" lon="6.76838">
        <ele>1815.35299968</ele>
        <time>2013-09-22T06:19:47.160Z</time>
      </trkpt>
      <trkpt lat="45.72953" lon="6.76846">
        <ele>1815.85299968</ele>
        <time>2013-09-22T06:19:52.160Z</time>
      </trkpt>
      <trkpt lat="45.7296" lon="6.76853">
        <ele>1815.748</ele>
        <time>2013-09-22T06:19:56.150Z</time>
      </trkpt>
      <trkpt lat="45.72969" lon="6.7686">
        <ele>1816.43500032</ele>
        <time>2013-09-22T06:20:37.980Z</time>
      </trkpt>
      <trkpt lat="45.72977" lon="6.76868">
        <ele>1816.93499904</ele>
        <time>2013-09-22T06:20:42.980Z</time>
      </trkpt>
      <trkpt lat="45.72986" lon="6.76878">
        <ele>1817.44300032</ele>
        <time>2013-09-22T06:20:48.060Z</time>
      </trkpt>
      <trkpt lat="45.72996" lon="6.76884">
        <ele>1817.94299904</ele>
        <time>2013-09-22T06:20:53.060Z</time>
      </trkpt>
      <trkpt lat="45.73005" lon="6.76885">
        <ele>1818.68599808</ele>
        <time>2013-09-22T06:20:57.060Z</time>
      </trkpt>
      <trkpt lat="45.73015" lon="6.76885">
        <ele>1819.48599808</ele>
        <time>2013-09-22T06:21:01.060Z</time>
      </trkpt>
      <trkpt lat="45.73026" lon="6.76886">
        <ele>1820</ele>
        <time>2013-09-22T06:21:06.070Z</time>
      </trkpt>
      <trkpt lat="45.73035" lon="6.76888">
        <ele>1820</ele>
        <time>2013-09-22T06:21:10.060Z</time>
      </trkpt>
      <trkpt lat="45.73045" lon="6.76895">
        <ele>1820.1372350717</ele>
        <time>2013-09-22T06:21:15.080Z</time>
      </trkpt>
      <trkpt lat="45.73052" lon="6.76902">
        <ele>1820.5408676356</ele>
        <time>2013-09-22T06:21:19.080Z</time>
      </trkpt>
      <trkpt lat="45.7306" lon="6.76908">
        <ele>1820.9445001996</ele>
        <time>2013-09-22T06:21:23.080Z</time>
      </trkpt>
      <trkpt lat="45.73071" lon="6.76911">
        <ele>1821.42599936</ele>
        <time>2013-09-22T06:21:27.890Z</time>
      </trkpt>
      <trkpt lat="45.73081" lon="6.76909">
        <ele>1821.82599936</ele>
        <time>2013-09-22T06:21:31.890Z</time>
      </trkpt>
      <trkpt lat="45.73091" lon="6.76904">
        <ele>1822</ele>
        <time>2013-09-22T06:21:35.980Z</time>
      </trkpt>
      <trkpt lat="45.731" lon="6.76898">
        <ele>1822</ele>
        <time>2013-09-22T06:21:39.980Z</time>
      </trkpt>
      <trkpt lat="45.73107" lon="6.76892">
        <ele>1822</ele>
        <time>2013-09-22T06:21:42.980Z</time>
      </trkpt>
      <trkpt lat="45.73114" lon="6.7689">
        <ele>1822</ele>
        <time>2013-09-22T06:21:46.060Z</time>
      </trkpt>
      <trkpt lat="45.73124" lon="6.7689">
        <ele>1822</ele>
        <time>2013-09-22T06:21:50.060Z</time>
      </trkpt>
      <trkpt lat="45.73128" lon="6.76904">
        <ele>1822</ele>
        <time>2013-09-22T06:22:20.060Z</time>
      </trkpt>
      <trkpt lat="45.73126" lon="6.76919">
        <ele>1822.26999808</ele>
        <time>2013-09-22T06:22:24.980Z</time>
      </trkpt>
      <trkpt lat="45.73122" lon="6.76932">
        <ele>1823.27000064</ele>
        <time>2013-09-22T06:22:29.980Z</time>
      </trkpt>
      <trkpt lat="45.73119" lon="6.76948">
        <ele>1824.26999808</ele>
        <time>2013-09-22T06:22:34.980Z</time>
      </trkpt>
      <trkpt lat="45.73119" lon="6.76964">
        <ele>1825.46999808</ele>
        <time>2013-09-22T06:22:40.980Z</time>
      </trkpt>
      <trkpt lat="45.73124" lon="6.76977">
        <ele>1826.48600064</ele>
        <time>2013-09-22T06:22:46.060Z</time>
      </trkpt>
      <trkpt lat="45.7313" lon="6.76988">
        <ele>1827.48599808</ele>
        <time>2013-09-22T06:22:51.060Z</time>
      </trkpt>
      <trkpt lat="45.73137" lon="6.76998">
        <ele>1828.72900096</ele>
        <time>2013-09-22T06:22:56.060Z</time>
      </trkpt>
      <trkpt lat="45.73142" lon="6.77008">
        <ele>1830.22899712</ele>
        <time>2013-09-22T06:23:01.060Z</time>
      </trkpt>
      <trkpt lat="45.73146" lon="6.7702">
        <ele>1831.2425154443</ele>
        <time>2013-09-22T06:23:06.060Z</time>
      </trkpt>
      <trkpt lat="45.73152" lon="6.7703">
        <ele>1831.6417172961</ele>
        <time>2013-09-22T06:23:10.060Z</time>
      </trkpt>
      <trkpt lat="45.7316" lon="6.7704">
        <ele>1832.3066149537</ele>
        <time>2013-09-22T06:23:15.180Z</time>
      </trkpt>
      <trkpt lat="45.73168" lon="6.77049">
        <ele>1833.6693395307</ele>
        <time>2013-09-22T06:23:21.980Z</time>
      </trkpt>
      <trkpt lat="45.73176" lon="6.77057">
        <ele>1834.33799936</ele>
        <time>2013-09-22T06:23:27.010Z</time>
      </trkpt>
      <trkpt lat="45.73185" lon="6.77065">
        <ele>1834.83799936</ele>
        <time>2013-09-22T06:23:32.010Z</time>
      </trkpt>
      <trkpt lat="45.73193" lon="6.77074">
        <ele>1835</ele>
        <time>2013-09-22T06:23:36.160Z</time>
      </trkpt>
      <trkpt lat="45.73199" lon="6.77085">
        <ele>1835</ele>
        <time>2013-09-22T06:23:40.160Z</time>
      </trkpt>
      <trkpt lat="45.73207" lon="6.77096">
        <ele>1835.05299968</ele>
        <time>2013-09-22T06:23:44.160Z</time>
      </trkpt>
      <trkpt lat="45.73215" lon="6.77107">
        <ele>1835.55299968</ele>
        <time>2013-09-22T06:23:49.160Z</time>
      </trkpt>
      <trkpt lat="45.73221" lon="6.77116">
        <ele>1835.95299968</ele>
        <time>2013-09-22T06:23:53.160Z</time>
      </trkpt>
      <trkpt lat="45.7323" lon="6.77128">
        <ele>1836.4516446017</ele>
        <time>2013-09-22T06:23:58.160Z</time>
      </trkpt>
      <trkpt lat="45.73238" lon="6.77137">
        <ele>1836.9501489292</ele>
        <time>2013-09-22T06:24:03.160Z</time>
      </trkpt>
      <trkpt lat="45.73247" lon="6.77148">
        <ele>1837</ele>
        <time>2013-09-22T06:24:09.080Z</time>
      </trkpt>
      <trkpt lat="45.73255" lon="6.77158">
        <ele>1837.10599936</ele>
        <time>2013-09-22T06:24:14.160Z</time>
      </trkpt>
      <trkpt lat="45.73264" lon="6.77167">
        <ele>1838.10599936</ele>
        <time>2013-09-22T06:24:19.160Z</time>
      </trkpt>
      <trkpt lat="45.73273" lon="6.77175">
        <ele>1839.04499968</ele>
        <time>2013-09-22T06:24:24.080Z</time>
      </trkpt>
      <trkpt lat="45.73281" lon="6.77184">
        <ele>1839.44499968</ele>
        <time>2013-09-22T06:24:28.080Z</time>
      </trkpt>
      <trkpt lat="45.73289" lon="6.77193">
        <ele>1839.94599936</ele>
        <time>2013-09-22T06:24:33.090Z</time>
      </trkpt>
      <trkpt lat="45.73297" lon="6.77201">
        <ele>1840.45299968</ele>
        <time>2013-09-22T06:24:38.160Z</time>
      </trkpt>
      <trkpt lat="45.73305" lon="6.77208">
        <ele>1840.95299968</ele>
        <time>2013-09-22T06:24:43.160Z</time>
      </trkpt>
      <trkpt lat="45.73313" lon="6.77215">
        <ele>1841.90599936</ele>
        <time>2013-09-22T06:24:48.160Z</time>
      </trkpt>
      <trkpt lat="45.73321" lon="6.7722">
        <ele>1842.70599936</ele>
        <time>2013-09-22T06:24:52.160Z</time>
      </trkpt>
      <trkpt lat="45.73329" lon="6.77224">
        <ele>1843.352</ele>
        <time>2013-09-22T06:24:57.150Z</time>
      </trkpt>
      <trkpt lat="45.7334" lon="6.77226">
        <ele>1843.852</ele>
        <time>2013-09-22T06:25:02.150Z</time>
      </trkpt>
      <trkpt lat="45.73351" lon="6.7723">
        <ele>1844.3526471457</ele>
        <time>2013-09-22T06:25:07.160Z</time>
      </trkpt>
      <trkpt lat="45.7336" lon="6.77238">
        <ele>1844.8521478049</ele>
        <time>2013-09-22T06:25:12.160Z</time>
      </trkpt>
      <trkpt lat="45.73369" lon="6.77247">
        <ele>1845</ele>
        <time>2013-09-22T06:25:17.080Z</time>
      </trkpt>
      <trkpt lat="45.73379" lon="6.77255">
        <ele>1845</ele>
        <time>2013-09-22T06:25:22.080Z</time>
      </trkpt>
      <trkpt lat="45.73389" lon="6.77262">
        <ele>1845.70599936</ele>
        <time>2013-09-22T06:25:27.160Z</time>
      </trkpt>
      <trkpt lat="45.73398" lon="6.77269">
        <ele>1846.70599936</ele>
        <time>2013-09-22T06:25:32.160Z</time>
      </trkpt>
      <trkpt lat="45.73407" lon="6.77276">
        <ele>1847.35299968</ele>
        <time>2013-09-22T06:25:37.160Z</time>
      </trkpt>
      <trkpt lat="45.73415" lon="6.77283">
        <ele>1847.85299968</ele>
        <time>2013-09-22T06:25:42.160Z</time>
      </trkpt>
      <trkpt lat="45.73423" lon="6.7729">
        <ele>1848.70599936</ele>
        <time>2013-09-22T06:25:47.160Z</time>
      </trkpt>
      <trkpt lat="45.73432" lon="6.77296">
        <ele>1849.70599936</ele>
        <time>2013-09-22T06:25:52.160Z</time>
      </trkpt>
      <trkpt lat="45.7344" lon="6.77301">
        <ele>1851.7444888212</ele>
        <time>2013-09-22T06:26:11.080Z</time>
      </trkpt>
      <trkpt lat="45.73445" lon="6.77307">
        <ele>1852</ele>
        <time>2013-09-22T06:26:17.900Z</time>
      </trkpt>
      <trkpt lat="45.73451" lon="6.77317">
        <ele>1852.43500032</ele>
        <time>2013-09-22T06:26:27.980Z</time>
      </trkpt>
      <trkpt lat="45.73455" lon="6.77329">
        <ele>1855.2364727942</ele>
        <time>2013-09-22T06:26:56.010Z</time>
      </trkpt>
      <trkpt lat="45.73459" lon="6.77344">
        <ele>1855.737474477</ele>
        <time>2013-09-22T06:27:01.010Z</time>
      </trkpt>
      <trkpt lat="45.73462" lon="6.77358">
        <ele>1856</ele>
        <time>2013-09-22T06:27:06.150Z</time>
      </trkpt>
      <trkpt lat="45.73466" lon="6.77372">
        <ele>1856</ele>
        <time>2013-09-22T06:27:11.150Z</time>
      </trkpt>
      <trkpt lat="45.73469" lon="6.77387">
        <ele>1856.48999936</ele>
        <time>2013-09-22T06:27:16.080Z</time>
      </trkpt>
      <trkpt lat="45.73472" lon="6.77401">
        <ele>1857.48999936</ele>
        <time>2013-09-22T06:27:21.080Z</time>
      </trkpt>
      <trkpt lat="45.73475" lon="6.77417">
        <ele>1858.70599936</ele>
        <time>2013-09-22T06:27:27.160Z</time>
      </trkpt>
      <trkpt lat="45.73477" lon="6.7743">
        <ele>1859.70599936</ele>
        <time>2013-09-22T06:27:32.160Z</time>
      </trkpt>
      <trkpt lat="45.73484" lon="6.77441">
        <ele>1860.90599936</ele>
        <time>2013-09-22T06:27:38.160Z</time>
      </trkpt>
      <trkpt lat="45.73494" lon="6.77449">
        <ele>1862.15899904</ele>
        <time>2013-09-22T06:27:44.160Z</time>
      </trkpt>
      <trkpt lat="45.73499" lon="6.77462">
        <ele>1864.82899712</ele>
        <time>2013-09-22T06:27:53.060Z</time>
      </trkpt>
      <trkpt lat="45.73508" lon="6.77468">
        <ele>1868.2150016</ele>
        <time>2013-09-22T06:28:00.060Z</time>
      </trkpt>
      <trkpt lat="45.73515" lon="6.77474">
        <ele>1871.48599808</ele>
        <time>2013-09-22T06:28:11.060Z</time>
      </trkpt>
      <trkpt lat="45.73522" lon="6.77477">
        <ele>1872.87000064</ele>
        <time>2013-09-22T06:28:17.980Z</time>
      </trkpt>
      <trkpt lat="45.73527" lon="6.77485">
        <ele>1874.70500096</ele>
        <time>2013-09-22T06:28:25.980Z</time>
      </trkpt>
      <trkpt lat="45.73534" lon="6.7749">
        <ele>1877.40499712</ele>
        <time>2013-09-22T06:28:34.980Z</time>
      </trkpt>
      <trkpt lat="45.73542" lon="6.77501">
        <ele>1880.47000064</ele>
        <time>2013-09-22T06:29:05.980Z</time>
      </trkpt>
      <trkpt lat="45.73551" lon="6.7751">
        <ele>1881.67000064</ele>
        <time>2013-09-22T06:29:11.980Z</time>
      </trkpt>
      <trkpt lat="45.73559" lon="6.77516">
        <ele>1883.00499712</ele>
        <time>2013-09-22T06:29:16.980Z</time>
      </trkpt>
      <trkpt lat="45.73569" lon="6.77523">
        <ele>1884.50500096</ele>
        <time>2013-09-22T06:29:21.980Z</time>
      </trkpt>
      <trkpt lat="45.73577" lon="6.77529">
        <ele>1885.68599808</ele>
        <time>2013-09-22T06:29:27.060Z</time>
      </trkpt>
      <trkpt lat="45.73583" lon="6.77537">
        <ele>1886.68600064</ele>
        <time>2013-09-22T06:29:32.060Z</time>
      </trkpt>
      <trkpt lat="45.73592" lon="6.77545">
        <ele>1887.4421163702</ele>
        <time>2013-09-22T06:29:38.060Z</time>
      </trkpt>
      <trkpt lat="45.73601" lon="6.77552">
        <ele>1887.9411174075</ele>
        <time>2013-09-22T06:29:43.060Z</time>
      </trkpt>
      <trkpt lat="45.7361" lon="6.7756">
        <ele>1889.3016052575</ele>
        <time>2013-09-22T06:29:47.980Z</time>
      </trkpt>
      <trkpt lat="45.7362" lon="6.77569">
        <ele>1891.12900096</ele>
        <time>2013-09-22T06:29:54.060Z</time>
      </trkpt>
      <trkpt lat="45.73628" lon="6.77578">
        <ele>1892.62899712</ele>
        <time>2013-09-22T06:29:59.060Z</time>
      </trkpt>
      <trkpt lat="45.73636" lon="6.77589">
        <ele>1894.13499904</ele>
        <time>2013-09-22T06:30:04.980Z</time>
      </trkpt>
      <trkpt lat="45.73645" lon="6.77601">
        <ele>1894.73499904</ele>
        <time>2013-09-22T06:30:10.980Z</time>
      </trkpt>
      <trkpt lat="45.73651" lon="6.77613">
        <ele>1895.47000064</ele>
        <time>2013-09-22T06:30:15.980Z</time>
      </trkpt>
      <trkpt lat="45.73658" lon="6.77623">
        <ele>1896.46999808</ele>
        <time>2013-09-22T06:30:20.980Z</time>
      </trkpt>
      <trkpt lat="45.73667" lon="6.77632">
        <ele>1897.24300032</ele>
        <time>2013-09-22T06:30:26.060Z</time>
      </trkpt>
      <trkpt lat="45.73677" lon="6.77639">
        <ele>1897.74299904</ele>
        <time>2013-09-22T06:30:31.060Z</time>
      </trkpt>
      <trkpt lat="45.73687" lon="6.77645">
        <ele>1898.48600064</ele>
        <time>2013-09-22T06:30:36.060Z</time>
      </trkpt>
      <trkpt lat="45.73696" lon="6.77647">
        <ele>1899.28600064</ele>
        <time>2013-09-22T06:30:40.060Z</time>
      </trkpt>
      <trkpt lat="45.73706" lon="6.77652">
        <ele>1900.28599808</ele>
        <time>2013-09-22T06:30:45.060Z</time>
      </trkpt>
      <trkpt lat="45.73716" lon="6.77658">
        <ele>1901.28600064</ele>
        <time>2013-09-22T06:30:50.060Z</time>
      </trkpt>
      <trkpt lat="45.73726" lon="6.77665">
        <ele>1902.30599936</ele>
        <time>2013-09-22T06:30:55.160Z</time>
      </trkpt>
      <trkpt lat="45.73734" lon="6.77672">
        <ele>1903.30599936</ele>
        <time>2013-09-22T06:31:00.160Z</time>
      </trkpt>
      <trkpt lat="45.73743" lon="6.7768">
        <ele>1904.28999936</ele>
        <time>2013-09-22T06:31:05.080Z</time>
      </trkpt>
      <trkpt lat="45.7375" lon="6.77689">
        <ele>1905.28999936</ele>
        <time>2013-09-22T06:31:10.080Z</time>
      </trkpt>
      <trkpt lat="45.73758" lon="6.77698">
        <ele>1906.43499904</ele>
        <time>2013-09-22T06:31:15.080Z</time>
      </trkpt>
      <trkpt lat="45.73766" lon="6.77707">
        <ele>1907.93499904</ele>
        <time>2013-09-22T06:31:20.080Z</time>
      </trkpt>
      <trkpt lat="45.73775" lon="6.77715">
        <ele>1909.15299968</ele>
        <time>2013-09-22T06:31:25.160Z</time>
      </trkpt>
      <trkpt lat="45.73785" lon="6.77721">
        <ele>1909.65299968</ele>
        <time>2013-09-22T06:31:30.160Z</time>
      </trkpt>
      <trkpt lat="45.73795" lon="6.77728">
        <ele>1910.2524948519</ele>
        <time>2013-09-22T06:31:36.160Z</time>
      </trkpt>
      <trkpt lat="45.73804" lon="6.77731">
        <ele>1912.128</ele>
        <time>2013-09-22T06:31:54.910Z</time>
      </trkpt>
      <trkpt lat="45.73813" lon="6.77738">
        <ele>1912.728</ele>
        <time>2013-09-22T06:32:00.910Z</time>
      </trkpt>
      <trkpt lat="45.73821" lon="6.77742">
        <ele>1913</ele>
        <time>2013-09-22T06:32:07.980Z</time>
      </trkpt>
      <trkpt lat="45.73829" lon="6.77746">
        <ele>1913.13499904</ele>
        <time>2013-09-22T06:32:14.980Z</time>
      </trkpt>
      <trkpt lat="45.73836" lon="6.77747">
        <ele>1914</ele>
        <time>2013-09-22T06:32:30.010Z</time>
      </trkpt>
      <trkpt lat="45.73843" lon="6.77749">
        <ele>1914</ele>
        <time>2013-09-22T06:32:43.080Z</time>
      </trkpt>
      <trkpt lat="45.73851" lon="6.77752">
        <ele>1915</ele>
        <time>2013-09-22T06:32:55.080Z</time>
      </trkpt>
      <trkpt lat="45.73863" lon="6.77754">
        <ele>1915.64499968</ele>
        <time>2013-09-22T06:33:10.080Z</time>
      </trkpt>
      <trkpt lat="45.73874" lon="6.77757">
        <ele>1916.15299968</ele>
        <time>2013-09-22T06:33:15.160Z</time>
      </trkpt>
      <trkpt lat="45.73885" lon="6.7776">
        <ele>1916.65299968</ele>
        <time>2013-09-22T06:33:20.160Z</time>
      </trkpt>
      <trkpt lat="45.73894" lon="6.77762">
        <ele>1917.10799872</ele>
        <time>2013-09-22T06:33:24.170Z</time>
      </trkpt>
      <trkpt lat="45.73904" lon="6.77764">
        <ele>1918.10599936</ele>
        <time>2013-09-22T06:33:29.160Z</time>
      </trkpt>
      <trkpt lat="45.73915" lon="6.77766">
        <ele>1919.05299968</ele>
        <time>2013-09-22T06:33:34.160Z</time>
      </trkpt>
      <trkpt lat="45.73923" lon="6.77773">
        <ele>1919.55299968</ele>
        <time>2013-09-22T06:33:39.160Z</time>
      </trkpt>
      <trkpt lat="45.73931" lon="6.77772">
        <ele>1919.15400064</ele>
        <time>2013-09-22T06:34:02.090Z</time>
      </trkpt>
      <trkpt lat="45.73941" lon="6.77772">
        <ele>1919.25299968</ele>
        <time>2013-09-22T06:34:06.160Z</time>
      </trkpt>
      <trkpt lat="45.73953" lon="6.77774">
        <ele>1919.75299968</ele>
        <time>2013-09-22T06:34:11.160Z</time>
      </trkpt>
      <trkpt lat="45.73963" lon="6.77776">
        <ele>1919.84700032</ele>
        <time>2013-09-22T06:34:15.160Z</time>
      </trkpt>
      <trkpt lat="45.73975" lon="6.77776">
        <ele>1919.34700032</ele>
        <time>2013-09-22T06:34:20.160Z</time>
      </trkpt>
      <trkpt lat="45.73985" lon="6.77779">
        <ele>1919</ele>
        <time>2013-09-22T06:34:24.150Z</time>
      </trkpt>
      <trkpt lat="45.73996" lon="6.77787">
        <ele>1919</ele>
        <time>2013-09-22T06:34:29.150Z</time>
      </trkpt>
      <trkpt lat="45.74003" lon="6.77797">
        <ele>1919</ele>
        <time>2013-09-22T06:34:33.150Z</time>
      </trkpt>
      <trkpt lat="45.74013" lon="6.77807">
        <ele>1919.8877756231</ele>
        <time>2013-09-22T06:34:38.080Z</time>
      </trkpt>
      <trkpt lat="45.74023" lon="6.77815">
        <ele>1920.8897789885</ele>
        <time>2013-09-22T06:34:43.080Z</time>
      </trkpt>
      <trkpt lat="45.74033" lon="6.7782">
        <ele>1921</ele>
        <time>2013-09-22T06:34:47.080Z</time>
      </trkpt>
      <trkpt lat="45.74044" lon="6.77825">
        <ele>1921</ele>
        <time>2013-09-22T06:34:52.080Z</time>
      </trkpt>
      <trkpt lat="45.74054" lon="6.77828">
        <ele>1920.772</ele>
        <time>2013-09-22T06:34:55.910Z</time>
      </trkpt>
      <trkpt lat="45.74064" lon="6.77829">
        <ele>1920.372</ele>
        <time>2013-09-22T06:34:59.910Z</time>
      </trkpt>
      <trkpt lat="45.74075" lon="6.77827">
        <ele>1920.13499904</ele>
        <time>2013-09-22T06:35:04.980Z</time>
      </trkpt>
      <trkpt lat="45.74087" lon="6.77824">
        <ele>1920.63500032</ele>
        <time>2013-09-22T06:35:09.980Z</time>
      </trkpt>
      <trkpt lat="45.74096" lon="6.77833">
        <ele>1921</ele>
        <time>2013-09-22T06:35:16.060Z</time>
      </trkpt>
      <trkpt lat="45.741" lon="6.77847">
        <ele>1921</ele>
        <time>2013-09-22T06:35:21.060Z</time>
      </trkpt>
      <trkpt lat="45.74102" lon="6.77864">
        <ele>1921.6673336001</ele>
        <time>2013-09-22T06:35:26.980Z</time>
      </trkpt>
      <trkpt lat="45.74104" lon="6.77878">
        <ele>1922.8697376386</ele>
        <time>2013-09-22T06:35:32.980Z</time>
      </trkpt>
      <trkpt lat="45.74107" lon="6.77892">
        <ele>1924.08599808</ele>
        <time>2013-09-22T06:35:39.060Z</time>
      </trkpt>
      <trkpt lat="45.74113" lon="6.77906">
        <ele>1925.40499712</ele>
        <time>2013-09-22T06:35:44.980Z</time>
      </trkpt>
      <trkpt lat="45.74118" lon="6.77921">
        <ele>1927.20499712</ele>
        <time>2013-09-22T06:35:50.980Z</time>
      </trkpt>
      <trkpt lat="45.74123" lon="6.77935">
        <ele>1928.87000064</ele>
        <time>2013-09-22T06:35:57.980Z</time>
      </trkpt>
      <trkpt lat="45.74133" lon="6.77936">
        <ele>1930.70500096</ele>
        <time>2013-09-22T06:36:05.980Z</time>
      </trkpt>
      <trkpt lat="45.74134" lon="6.77921">
        <ele>1932.20499712</ele>
        <time>2013-09-22T06:36:10.980Z</time>
      </trkpt>
      <trkpt lat="45.74134" lon="6.77906">
        <ele>1933.48600064</ele>
        <time>2013-09-22T06:36:16.060Z</time>
      </trkpt>
      <trkpt lat="45.74135" lon="6.77891">
        <ele>1934.488</ele>
        <time>2013-09-22T06:36:21.070Z</time>
      </trkpt>
      <trkpt lat="45.74136" lon="6.77875">
        <ele>1935.34199936</ele>
        <time>2013-09-22T06:36:27.050Z</time>
      </trkpt>
      <trkpt lat="45.74137" lon="6.77861">
        <ele>1935.84199936</ele>
        <time>2013-09-22T06:36:32.050Z</time>
      </trkpt>
      <trkpt lat="45.74137" lon="6.77846">
        <ele>1936.43500032</ele>
        <time>2013-09-22T06:36:37.980Z</time>
      </trkpt>
      <trkpt lat="45.74136" lon="6.7783">
        <ele>1937.10500096</ele>
        <time>2013-09-22T06:36:43.980Z</time>
      </trkpt>
      <trkpt lat="45.74136" lon="6.77816">
        <ele>1938.90500096</ele>
        <time>2013-09-22T06:36:49.980Z</time>
      </trkpt>
      <trkpt lat="45.74144" lon="6.77809">
        <ele>1941.29899904</ele>
        <time>2013-09-22T06:36:57.960Z</time>
      </trkpt>
      <trkpt lat="45.74149" lon="6.77824">
        <ele>1943.12900096</ele>
        <time>2013-09-22T06:37:04.060Z</time>
      </trkpt>
      <trkpt lat="45.74151" lon="6.77841">
        <ele>1945.22899712</ele>
        <time>2013-09-22T06:37:11.060Z</time>
      </trkpt>
      <trkpt lat="45.74152" lon="6.77856">
        <ele>1946.6846292596</ele>
        <time>2013-09-22T06:37:17.060Z</time>
      </trkpt>
      <trkpt lat="45.7415" lon="6.7787">
        <ele>1947.882234815</ele>
        <time>2013-09-22T06:37:23.060Z</time>
      </trkpt>
      <trkpt lat="45.74149" lon="6.77885">
        <ele>1949.0681349463</ele>
        <time>2013-09-22T06:37:28.980Z</time>
      </trkpt>
      <trkpt lat="45.74151" lon="6.779">
        <ele>1950.26999808</ele>
        <time>2013-09-22T06:37:34.980Z</time>
      </trkpt>
      <trkpt lat="45.74155" lon="6.77914">
        <ele>1951.27000064</ele>
        <time>2013-09-22T06:37:39.980Z</time>
      </trkpt>
      <trkpt lat="45.7416" lon="6.77927">
        <ele>1952.26999808</ele>
        <time>2013-09-22T06:37:44.980Z</time>
      </trkpt>
      <trkpt lat="45.74165" lon="6.77941">
        <ele>1953.27000064</ele>
        <time>2013-09-22T06:37:49.980Z</time>
      </trkpt>
      <trkpt lat="45.7417" lon="6.77956">
        <ele>1954.48600064</ele>
        <time>2013-09-22T06:37:56.060Z</time>
      </trkpt>
      <trkpt lat="45.74176" lon="6.7797">
        <ele>1955.48599808</ele>
        <time>2013-09-22T06:38:01.060Z</time>
      </trkpt>
      <trkpt lat="45.74182" lon="6.77982">
        <ele>1956.2425154443</ele>
        <time>2013-09-22T06:38:06.060Z</time>
      </trkpt>
      <trkpt lat="45.74193" lon="6.77991">
        <ele>1956.7415164816</ele>
        <time>2013-09-22T06:38:11.060Z</time>
      </trkpt>
      <trkpt lat="45.74204" lon="6.77998">
        <ele>1957</ele>
        <time>2013-09-22T06:38:15.980Z</time>
      </trkpt>
      <trkpt lat="45.74211" lon="6.78006">
        <ele>1957</ele>
        <time>2013-09-22T06:38:20.980Z</time>
      </trkpt>
      <trkpt lat="45.74219" lon="6.78015">
        <ele>1957.24300032</ele>
        <time>2013-09-22T06:38:26.060Z</time>
      </trkpt>
      <trkpt lat="45.7423" lon="6.78022">
        <ele>1957.74299904</ele>
        <time>2013-09-22T06:38:31.060Z</time>
      </trkpt>
      <trkpt lat="45.74241" lon="6.78021">
        <ele>1958</ele>
        <time>2013-09-22T06:38:35.980Z</time>
      </trkpt>
      <trkpt lat="45.7425" lon="6.78012">
        <ele>1958</ele>
        <time>2013-09-22T06:38:41.980Z</time>
      </trkpt>
      <trkpt lat="45.74261" lon="6.78009">
        <ele>1960.03500032</ele>
        <time>2013-09-22T06:39:03.980Z</time>
      </trkpt>
      <trkpt lat="45.74269" lon="6.78016">
        <ele>1960.43500032</ele>
        <time>2013-09-22T06:39:07.980Z</time>
      </trkpt>
      <trkpt lat="45.7428" lon="6.78023">
        <ele>1960.93499904</ele>
        <time>2013-09-22T06:39:12.980Z</time>
      </trkpt>
      <trkpt lat="45.74291" lon="6.78028">
        <ele>1961.44300032</ele>
        <time>2013-09-22T06:39:18.060Z</time>
      </trkpt>
      <trkpt lat="45.74301" lon="6.78032">
        <ele>1961.94299904</ele>
        <time>2013-09-22T06:39:23.060Z</time>
      </trkpt>
      <trkpt lat="45.74311" lon="6.78041">
        <ele>1962.44300032</ele>
        <time>2013-09-22T06:39:28.060Z</time>
      </trkpt>
      <trkpt lat="45.74319" lon="6.78053">
        <ele>1962.94299904</ele>
        <time>2013-09-22T06:39:33.060Z</time>
      </trkpt>
      <trkpt lat="45.74326" lon="6.78064">
        <ele>1963.88600064</ele>
        <time>2013-09-22T06:39:38.060Z</time>
      </trkpt>
      <trkpt lat="45.74337" lon="6.78071">
        <ele>1964.88599808</ele>
        <time>2013-09-22T06:39:43.060Z</time>
      </trkpt>
      <trkpt lat="45.74348" lon="6.78076">
        <ele>1965</ele>
        <time>2013-09-22T06:39:48.060Z</time>
      </trkpt>
      <trkpt lat="45.7436" lon="6.7808">
        <ele>1965</ele>
        <time>2013-09-22T06:39:53.060Z</time>
      </trkpt>
      <trkpt lat="45.74371" lon="6.78079">
        <ele>1965.44199936</ele>
        <time>2013-09-22T06:39:58.050Z</time>
      </trkpt>
      <trkpt lat="45.74381" lon="6.78076">
        <ele>1965.84199936</ele>
        <time>2013-09-22T06:40:02.050Z</time>
      </trkpt>
      <trkpt lat="45.74392" lon="6.78071">
        <ele>1966.3423146298</ele>
        <time>2013-09-22T06:40:07.060Z</time>
      </trkpt>
      <trkpt lat="45.74402" lon="6.78067">
        <ele>1966.7415164816</ele>
        <time>2013-09-22T06:40:11.060Z</time>
      </trkpt>
      <trkpt lat="45.74411" lon="6.78061">
        <ele>1967</ele>
        <time>2013-09-22T06:40:14.980Z</time>
      </trkpt>
      <trkpt lat="45.74422" lon="6.78058">
        <ele>1967</ele>
        <time>2013-09-22T06:40:19.980Z</time>
      </trkpt>
      <trkpt lat="45.74433" lon="6.78055">
        <ele>1967.132</ele>
        <time>2013-09-22T06:40:24.950Z</time>
      </trkpt>
      <trkpt lat="45.74442" lon="6.78055">
        <ele>1967.532</ele>
        <time>2013-09-22T06:40:28.950Z</time>
      </trkpt>
      <trkpt lat="45.74451" lon="6.78055">
        <ele>1967.932</ele>
        <time>2013-09-22T06:40:32.950Z</time>
      </trkpt>
      <trkpt lat="45.7446" lon="6.78057">
        <ele>1968.68599808</ele>
        <time>2013-09-22T06:40:37.060Z</time>
      </trkpt>
      <trkpt lat="45.74472" lon="6.78057">
        <ele>1969.68600064</ele>
        <time>2013-09-22T06:40:42.060Z</time>
      </trkpt>
      <trkpt lat="45.74483" lon="6.78052">
        <ele>1970</ele>
        <time>2013-09-22T06:40:47.060Z</time>
      </trkpt>
      <trkpt lat="45.74493" lon="6.7805">
        <ele>1970</ele>
        <time>2013-09-22T06:40:51.060Z</time>
      </trkpt>
      <trkpt lat="45.74502" lon="6.78047">
        <ele>1970.2854274079</ele>
        <time>2013-09-22T06:40:55.060Z</time>
      </trkpt>
      <trkpt lat="45.74513" lon="6.78046">
        <ele>1971.2834345922</ele>
        <time>2013-09-22T06:41:00.060Z</time>
      </trkpt>
      <trkpt lat="45.74524" lon="6.78044">
        <ele>1972</ele>
        <time>2013-09-22T06:41:04.990Z</time>
      </trkpt>
      <trkpt lat="45.74535" lon="6.78041">
        <ele>1972</ele>
        <time>2013-09-22T06:41:09.980Z</time>
      </trkpt>
      <trkpt lat="45.74543" lon="6.78035">
        <ele>1972.08600064</ele>
        <time>2013-09-22T06:41:14.060Z</time>
      </trkpt>
      <trkpt lat="45.7455" lon="6.78026">
        <ele>1973.08599808</ele>
        <time>2013-09-22T06:41:19.060Z</time>
      </trkpt>
      <trkpt lat="45.7456" lon="6.78023">
        <ele>1974</ele>
        <time>2013-09-22T06:41:41.080Z</time>
      </trkpt>
      <trkpt lat="45.74568" lon="6.78021">
        <ele>1974</ele>
        <time>2013-09-22T06:41:49.160Z</time>
      </trkpt>
      <trkpt lat="45.74574" lon="6.78015">
        <ele>1975.08999936</ele>
        <time>2013-09-22T06:42:09.080Z</time>
      </trkpt>
      <trkpt lat="45.74581" lon="6.7801">
        <ele>1976</ele>
        <time>2013-09-22T06:42:16.080Z</time>
      </trkpt>
      <trkpt lat="45.74588" lon="6.78003">
        <ele>1976</ele>
        <time>2013-09-22T06:42:23.090Z</time>
      </trkpt>
      <trkpt lat="45.74592" lon="6.77998">
        <ele>1976</ele>
        <time>2013-09-22T06:42:29.160Z</time>
      </trkpt>
      <trkpt lat="45.74599" lon="6.77993">
        <ele>1976</ele>
        <time>2013-09-22T06:42:33.160Z</time>
      </trkpt>
      <trkpt lat="45.74608" lon="6.77987">
        <ele>1976.35299968</ele>
        <time>2013-09-22T06:42:37.160Z</time>
      </trkpt>
      <trkpt lat="45.74617" lon="6.77983">
        <ele>1976.75299968</ele>
        <time>2013-09-22T06:42:41.160Z</time>
      </trkpt>
      <trkpt lat="45.74625" lon="6.77976">
        <ele>1977.15299968</ele>
        <time>2013-09-22T06:42:45.160Z</time>
      </trkpt>
      <trkpt lat="45.74632" lon="6.7797">
        <ele>1977.55299968</ele>
        <time>2013-09-22T06:42:49.160Z</time>
      </trkpt>
      <trkpt lat="45.74643" lon="6.77962">
        <ele>1978.0518962407</ele>
        <time>2013-09-22T06:42:54.150Z</time>
      </trkpt>
      <trkpt lat="45.74652" lon="6.77954">
        <ele>1978.5508985555</ele>
        <time>2013-09-22T06:42:59.150Z</time>
      </trkpt>
      <trkpt lat="45.74662" lon="6.77947">
        <ele>1979.0430864654</ele>
        <time>2013-09-22T06:43:04.080Z</time>
      </trkpt>
      <trkpt lat="45.74674" lon="6.77943">
        <ele>1979.5440881481</ele>
        <time>2013-09-22T06:43:09.080Z</time>
      </trkpt>
      <trkpt lat="45.74685" lon="6.77941">
        <ele>1980.14499968</ele>
        <time>2013-09-22T06:43:15.080Z</time>
      </trkpt>
      <trkpt lat="45.74697" lon="6.77937">
        <ele>1980.74499968</ele>
        <time>2013-09-22T06:43:21.080Z</time>
      </trkpt>
      <trkpt lat="45.74707" lon="6.77932">
        <ele>1981.228</ele>
        <time>2013-09-22T06:43:25.910Z</time>
      </trkpt>
      <trkpt lat="45.74719" lon="6.77929">
        <ele>1981.728</ele>
        <time>2013-09-22T06:43:30.910Z</time>
      </trkpt>
      <trkpt lat="45.74731" lon="6.77923">
        <ele>1981.75699968</ele>
        <time>2013-09-22T06:43:36.060Z</time>
      </trkpt>
      <trkpt lat="45.74738" lon="6.77912">
        <ele>1981.35699968</ele>
        <time>2013-09-22T06:43:40.060Z</time>
      </trkpt>
      <trkpt lat="45.74746" lon="6.77901">
        <ele>1980.9570854816</ele>
        <time>2013-09-22T06:43:44.060Z</time>
      </trkpt>
      <trkpt lat="45.74753" lon="6.7789">
        <ele>1980.4580844443</ele>
        <time>2013-09-22T06:43:49.060Z</time>
      </trkpt>
      <trkpt lat="45.74763" lon="6.77892">
        <ele>1980.033067073</ele>
        <time>2013-09-22T06:43:53.980Z</time>
      </trkpt>
      <trkpt lat="45.74772" lon="6.77896">
        <ele>1980.9348688193</ele>
        <time>2013-09-22T06:44:02.980Z</time>
      </trkpt>
      <trkpt lat="45.74781" lon="6.77892">
        <ele>1983.10500096</ele>
        <time>2013-09-22T06:44:13.980Z</time>
      </trkpt>
      <trkpt lat="45.7479" lon="6.7789">
        <ele>1985.50500096</ele>
        <time>2013-09-22T06:44:21.980Z</time>
      </trkpt>
      <trkpt lat="45.74799" lon="6.77889">
        <ele>1986.44300032</ele>
        <time>2013-09-22T06:44:28.060Z</time>
      </trkpt>
      <trkpt lat="45.74804" lon="6.77896">
        <ele>1988.47000064</ele>
        <time>2013-09-22T06:44:45.980Z</time>
      </trkpt>
      <trkpt lat="45.74812" lon="6.77894">
        <ele>1990.28599808</ele>
        <time>2013-09-22T06:44:55.060Z</time>
      </trkpt>
      <trkpt lat="45.74819" lon="6.77888">
        <ele>1991.08599808</ele>
        <time>2013-09-22T06:44:59.060Z</time>
      </trkpt>
      <trkpt lat="45.74825" lon="6.77883">
        <ele>1991.68600064</ele>
        <time>2013-09-22T06:45:02.060Z</time>
      </trkpt>
      <trkpt lat="45.74831" lon="6.77878">
        <ele>1992.13499904</ele>
        <time>2013-09-22T06:45:04.980Z</time>
      </trkpt>
      <trkpt lat="45.74838" lon="6.77873">
        <ele>1992.53499904</ele>
        <time>2013-09-22T06:45:08.980Z</time>
      </trkpt>
      <trkpt lat="45.74844" lon="6.77867">
        <ele>1993.47000064</ele>
        <time>2013-09-22T06:45:15.980Z</time>
      </trkpt>
      <trkpt lat="45.74849" lon="6.7786">
        <ele>1994.86999808</ele>
        <time>2013-09-22T06:45:22.980Z</time>
      </trkpt>
      <trkpt lat="45.74856" lon="6.77854">
        <ele>1996.92900096</ele>
        <time>2013-09-22T06:45:30.060Z</time>
      </trkpt>
      <trkpt lat="45.74863" lon="6.77851">
        <ele>1999.77200128</ele>
        <time>2013-09-22T06:45:38.060Z</time>
      </trkpt>
      <trkpt lat="45.74873" lon="6.77849">
        <ele>2003.0029917784</ele>
        <time>2013-09-22T06:45:46.980Z</time>
      </trkpt>
      <trkpt lat="45.7488" lon="6.7785">
        <ele>2005</ele>
        <time>2013-09-22T06:46:05.060Z</time>
      </trkpt>
      <trkpt lat="45.74887" lon="6.7785">
        <ele>2005.53499904</ele>
        <time>2013-09-22T06:46:18.980Z</time>
      </trkpt>
      <trkpt lat="45.74893" lon="6.77849">
        <ele>2006.27599872</ele>
        <time>2013-09-22T06:46:25.010Z</time>
      </trkpt>
      <trkpt lat="45.749" lon="6.77848">
        <ele>2007.47599872</ele>
        <time>2013-09-22T06:46:31.010Z</time>
      </trkpt>
      <trkpt lat="45.74908" lon="6.77844">
        <ele>2009.0568859445</ele>
        <time>2013-09-22T06:46:37.160Z</time>
      </trkpt>
      <trkpt lat="45.74915" lon="6.77842">
        <ele>2010.8532942776</ele>
        <time>2013-09-22T06:46:43.160Z</time>
      </trkpt>
      <trkpt lat="45.74922" lon="6.77839">
        <ele>2012.6322644442</ele>
        <time>2013-09-22T06:46:49.080Z</time>
      </trkpt>
      <trkpt lat="45.74929" lon="6.77831">
        <ele>2014.50599936</ele>
        <time>2013-09-22T06:46:56.160Z</time>
      </trkpt>
      <trkpt lat="45.74938" lon="6.77825">
        <ele>2016.08999936</ele>
        <time>2013-09-22T06:47:04.080Z</time>
      </trkpt>
      <trkpt lat="45.74944" lon="6.77822">
        <ele>2019.88999936</ele>
        <time>2013-09-22T06:47:28.080Z</time>
      </trkpt>
      <trkpt lat="45.74952" lon="6.77822">
        <ele>2021.50599936</ele>
        <time>2013-09-22T06:47:36.160Z</time>
      </trkpt>
      <trkpt lat="45.74959" lon="6.77821">
        <ele>2022.90599936</ele>
        <time>2013-09-22T06:47:43.160Z</time>
      </trkpt>
      <trkpt lat="45.74968" lon="6.77819">
        <ele>2024.30799872</ele>
        <time>2013-09-22T06:47:50.170Z</time>
      </trkpt>
      <trkpt lat="45.74975" lon="6.7781">
        <ele>2026.03499904</ele>
        <time>2013-09-22T06:47:57.080Z</time>
      </trkpt>
      <trkpt lat="45.74983" lon="6.77801">
        <ele>2029.48999936</ele>
        <time>2013-09-22T06:48:11.080Z</time>
      </trkpt>
      <trkpt lat="45.74994" lon="6.77801">
        <ele>2030.65299968</ele>
        <time>2013-09-22T06:48:20.160Z</time>
      </trkpt>
      <trkpt lat="45.74999" lon="6.77798">
        <ele>2033</ele>
        <time>2013-09-22T06:49:03.980Z</time>
      </trkpt>
      <trkpt lat="45.75005" lon="6.77792">
        <ele>2035.2754480003</ele>
        <time>2013-09-22T06:49:25.010Z</time>
      </trkpt>
      <trkpt lat="45.7501" lon="6.77784">
        <ele>2037.0410830999</ele>
        <time>2013-09-22T06:49:34.060Z</time>
      </trkpt>
      <trkpt lat="45.75019" lon="6.77776">
        <ele>2038.08999936</ele>
        <time>2013-09-22T06:49:44.080Z</time>
      </trkpt>
      <trkpt lat="45.75025" lon="6.77769">
        <ele>2039.68999936</ele>
        <time>2013-09-22T06:49:52.080Z</time>
      </trkpt>
      <trkpt lat="45.7503" lon="6.77763">
        <ele>2041.95899904</ele>
        <time>2013-09-22T06:50:00.160Z</time>
      </trkpt>
      <trkpt lat="45.75035" lon="6.77758">
        <ele>2043.73499904</ele>
        <time>2013-09-22T06:50:06.080Z</time>
      </trkpt>
      <trkpt lat="45.75041" lon="6.77752">
        <ele>2045.83499904</ele>
        <time>2013-09-22T06:50:13.080Z</time>
      </trkpt>
      <trkpt lat="45.75048" lon="6.77748">
        <ele>2047.304</ele>
        <time>2013-09-22T06:50:20.150Z</time>
      </trkpt>
      <trkpt lat="45.75055" lon="6.77743">
        <ele>2048.70599936</ele>
        <time>2013-09-22T06:50:27.160Z</time>
      </trkpt>
      <trkpt lat="45.7506" lon="6.77733">
        <ele>2050.57999872</ele>
        <time>2013-09-22T06:50:35.080Z</time>
      </trkpt>
      <trkpt lat="45.75066" lon="6.77724">
        <ele>2053.77999872</ele>
        <time>2013-09-22T06:50:43.080Z</time>
      </trkpt>
      <trkpt lat="45.75073" lon="6.77714">
        <ele>2055.95899904</ele>
        <time>2013-09-22T06:50:50.160Z</time>
      </trkpt>
      <trkpt lat="45.75079" lon="6.77705">
        <ele>2057.656</ele>
        <time>2013-09-22T06:50:56.910Z</time>
      </trkpt>
      <trkpt lat="45.75086" lon="6.77697">
        <ele>2059.07000064</ele>
        <time>2013-09-22T06:51:03.980Z</time>
      </trkpt>
      <trkpt lat="45.75091" lon="6.7769">
        <ele>2060.27000064</ele>
        <time>2013-09-22T06:51:09.980Z</time>
      </trkpt>
      <trkpt lat="45.75097" lon="6.77679">
        <ele>2062.06999808</ele>
        <time>2013-09-22T06:51:18.980Z</time>
      </trkpt>
      <trkpt lat="45.75104" lon="6.77672">
        <ele>2063.6846292596</ele>
        <time>2013-09-22T06:51:27.060Z</time>
      </trkpt>
      <trkpt lat="45.7511" lon="6.77661">
        <ele>2065.7004032382</ele>
        <time>2013-09-22T06:51:35.980Z</time>
      </trkpt>
      <trkpt lat="45.75115" lon="6.77652">
        <ele>2067.804606458</ele>
        <time>2013-09-22T06:51:42.980Z</time>
      </trkpt>
      <trkpt lat="45.75121" lon="6.77639">
        <ele>2070.52900096</ele>
        <time>2013-09-22T06:51:52.060Z</time>
      </trkpt>
      <trkpt lat="45.75127" lon="6.77628">
        <ele>2072.46999808</ele>
        <time>2013-09-22T06:52:00.980Z</time>
      </trkpt>
      <trkpt lat="45.75137" lon="6.77626">
        <ele>2073</ele>
        <time>2013-09-22T06:52:08.980Z</time>
      </trkpt>
      <trkpt lat="45.75142" lon="6.77641">
        <ele>2073.6846292596</ele>
        <time>2013-09-22T06:52:17.060Z</time>
      </trkpt>
      <trkpt lat="45.75149" lon="6.77652">
        <ele>2074.882234815</ele>
        <time>2013-09-22T06:52:23.060Z</time>
      </trkpt>
      <trkpt lat="45.75156" lon="6.77661">
        <ele>2076.2685381845</ele>
        <time>2013-09-22T06:52:29.980Z</time>
      </trkpt>
      <trkpt lat="45.75163" lon="6.77671">
        <ele>2079.52900096</ele>
        <time>2013-09-22T06:52:42.060Z</time>
      </trkpt>
      <trkpt lat="45.75166" lon="6.77681">
        <ele>2082.7149952</ele>
        <time>2013-09-22T06:52:49.060Z</time>
      </trkpt>
      <trkpt lat="45.75172" lon="6.77669">
        <ele>2086.70599936</ele>
        <time>2013-09-22T06:53:02.160Z</time>
      </trkpt>
      <trkpt lat="45.7518" lon="6.77674">
        <ele>2084.65700096</ele>
        <time>2013-09-22T06:53:17.060Z</time>
      </trkpt>
      <trkpt lat="45.75183" lon="6.77684">
        <ele>2084.06700032</ele>
        <time>2013-09-22T06:53:22.960Z</time>
      </trkpt>
      <trkpt lat="45.75185" lon="6.77696">
        <ele>2083.65700096</ele>
        <time>2013-09-22T06:53:27.060Z</time>
      </trkpt>
      <trkpt lat="45.75191" lon="6.77704">
        <ele>2083.25700096</ele>
        <time>2013-09-22T06:53:31.060Z</time>
      </trkpt>
      <trkpt lat="45.752" lon="6.7771">
        <ele>2083</ele>
        <time>2013-09-22T06:53:37.980Z</time>
      </trkpt>
      <trkpt lat="45.7521" lon="6.77711">
        <ele>2083.87000064</ele>
        <time>2013-09-22T06:53:47.980Z</time>
      </trkpt>
      <trkpt lat="45.75217" lon="6.77709">
        <ele>2085.66999808</ele>
        <time>2013-09-22T06:53:56.980Z</time>
      </trkpt>
      <trkpt lat="45.75223" lon="6.77703">
        <ele>2088.0363269307</ele>
        <time>2013-09-22T06:54:24.080Z</time>
      </trkpt>
      <trkpt lat="45.75229" lon="6.77704">
        <ele>2089.3501980952</ele>
        <time>2013-09-22T06:54:37.160Z</time>
      </trkpt>
      <trkpt lat="45.75234" lon="6.77698">
        <ele>2091.256</ele>
        <time>2013-09-22T06:54:59.910Z</time>
      </trkpt>
      <trkpt lat="45.75235" lon="6.7769">
        <ele>2092.2694593338</ele>
        <time>2013-09-22T06:55:04.980Z</time>
      </trkpt>
      <trkpt lat="45.75242" lon="6.77689">
        <ele>2093.8662667409</ele>
        <time>2013-09-22T06:55:12.980Z</time>
      </trkpt>
      <trkpt lat="45.75249" lon="6.7769">
        <ele>2095.9328654539</ele>
        <time>2013-09-22T06:55:20.080Z</time>
      </trkpt>
      <trkpt lat="45.75256" lon="6.77689">
        <ele>2098.6556887222</ele>
        <time>2013-09-22T06:55:29.160Z</time>
      </trkpt>
      <trkpt lat="45.75262" lon="6.77687">
        <ele>2102.2084167</ele>
        <time>2013-09-22T06:55:39.160Z</time>
      </trkpt>
      <trkpt lat="45.75258" lon="6.77676">
        <ele>2105.08999936</ele>
        <time>2013-09-22T06:55:49.080Z</time>
      </trkpt>
      <trkpt lat="45.75252" lon="6.77667">
        <ele>2107.48999936</ele>
        <time>2013-09-22T06:56:01.080Z</time>
      </trkpt>
      <trkpt lat="45.75252" lon="6.77656">
        <ele>2110.25899904</ele>
        <time>2013-09-22T06:56:11.160Z</time>
      </trkpt>
      <trkpt lat="45.75257" lon="6.7765">
        <ele>2114.7649984</ele>
        <time>2013-09-22T06:56:21.160Z</time>
      </trkpt>
      <trkpt lat="45.75262" lon="6.77649">
        <ele>2116.88999936</ele>
        <time>2013-09-22T06:56:28.080Z</time>
      </trkpt>
      <trkpt lat="45.75261" lon="6.7764">
        <ele>2119.08999936</ele>
        <time>2013-09-22T06:56:39.080Z</time>
      </trkpt>
      <trkpt lat="45.75259" lon="6.7763">
        <ele>2121.93499904</ele>
        <time>2013-09-22T06:56:50.080Z</time>
      </trkpt>
      <trkpt lat="45.75262" lon="6.77621">
        <ele>2125.61199872</ele>
        <time>2013-09-22T06:57:00.160Z</time>
      </trkpt>
      <trkpt lat="45.75263" lon="6.7761">
        <ele>2128.1037924815</ele>
        <time>2013-09-22T06:57:09.160Z</time>
      </trkpt>
      <trkpt lat="45.75268" lon="6.77604">
        <ele>2130.7755512461</ele>
        <time>2013-09-22T06:57:18.080Z</time>
      </trkpt>
      <trkpt lat="45.75272" lon="6.77599">
        <ele>2134.4105885828</ele>
        <time>2013-09-22T06:57:27.160Z</time>
      </trkpt>
      <trkpt lat="45.75277" lon="6.77595">
        <ele>2137.0873882543</ele>
        <time>2013-09-22T06:57:34.080Z</time>
      </trkpt>
      <trkpt lat="45.75276" lon="6.77584">
        <ele>2141.0838323889</ele>
        <time>2013-09-22T06:57:53.910Z</time>
      </trkpt>
      <trkpt lat="45.75279" lon="6.77576">
        <ele>2145.2705415499</ele>
        <time>2013-09-22T06:58:09.990Z</time>
      </trkpt>
      <trkpt lat="45.75283" lon="6.77571">
        <ele>2146.48600064</ele>
        <time>2013-09-22T06:58:16.060Z</time>
      </trkpt>
      <trkpt lat="45.75286" lon="6.77563">
        <ele>2147.88599808</ele>
        <time>2013-09-22T06:58:23.060Z</time>
      </trkpt>
      <trkpt lat="45.75291" lon="6.77558">
        <ele>2149.92900096</ele>
        <time>2013-09-22T06:58:30.060Z</time>
      </trkpt>
      <trkpt lat="45.75294" lon="6.77559">
        <ele>2151.14000128</ele>
        <time>2013-09-22T06:58:33.980Z</time>
      </trkpt>
      <trkpt lat="45.75296" lon="6.77555">
        <ele>2153.13999616</ele>
        <time>2013-09-22T06:58:38.980Z</time>
      </trkpt>
      <trkpt lat="45.75298" lon="6.77552">
        <ele>2154.73999616</ele>
        <time>2013-09-22T06:58:42.980Z</time>
      </trkpt>
      <trkpt lat="45.753" lon="6.77545">
        <ele>2157.2150016</ele>
        <time>2013-09-22T06:58:48.060Z</time>
      </trkpt>
      <trkpt lat="45.75302" lon="6.77541">
        <ele>2158.7149952</ele>
        <time>2013-09-22T06:58:51.060Z</time>
      </trkpt>
      <trkpt lat="45.75303" lon="6.77537">
        <ele>2160.28599808</ele>
        <time>2013-09-22T06:58:55.060Z</time>
      </trkpt>
      <trkpt lat="45.75305" lon="6.77535">
        <ele>2161.28600064</ele>
        <time>2013-09-22T06:59:00.060Z</time>
      </trkpt>
      <trkpt lat="45.75312" lon="6.77537">
        <ele>2164.47000064</ele>
        <time>2013-09-22T06:59:15.980Z</time>
      </trkpt>
      <trkpt lat="45.75322" lon="6.77533">
        <ele>2167.74499968</ele>
        <time>2013-09-22T06:59:51.080Z</time>
      </trkpt>
      <trkpt lat="45.75327" lon="6.77522">
        <ele>2170.8503012218</ele>
        <time>2013-09-22T07:00:03.150Z</time>
      </trkpt>
      <trkpt lat="45.75336" lon="6.7752">
        <ele>2176.97199616</ele>
        <time>2013-09-22T07:00:21.060Z</time>
      </trkpt>
      <trkpt lat="45.75338" lon="6.77505">
        <ele>2180.0802407479</ele>
        <time>2013-09-22T07:00:34.060Z</time>
      </trkpt>
      <trkpt lat="45.75343" lon="6.77494">
        <ele>2184.0721442423</ele>
        <time>2013-09-22T07:00:54.010Z</time>
      </trkpt>
      <trkpt lat="45.75351" lon="6.77483">
        <ele>2187.3033934074</ele>
        <time>2013-09-22T07:01:10.160Z</time>
      </trkpt>
      <trkpt lat="45.75355" lon="6.77471">
        <ele>2189.9569135346</ele>
        <time>2013-09-22T07:01:20.160Z</time>
      </trkpt>
      <trkpt lat="45.75365" lon="6.77469">
        <ele>2192.884</ele>
        <time>2013-09-22T07:01:29.910Z</time>
      </trkpt>
      <trkpt lat="45.75374" lon="6.77462">
        <ele>2195.60499712</ele>
        <time>2013-09-22T07:01:38.980Z</time>
      </trkpt>
      <trkpt lat="45.75381" lon="6.77452">
        <ele>2198.62899712</ele>
        <time>2013-09-22T07:01:49.060Z</time>
      </trkpt>
      <trkpt lat="45.7539" lon="6.77446">
        <ele>2201.88599808</ele>
        <time>2013-09-22T07:02:03.060Z</time>
      </trkpt>
      <trkpt lat="45.754" lon="6.77444">
        <ele>2205.62899712</ele>
        <time>2013-09-22T07:02:19.060Z</time>
      </trkpt>
      <trkpt lat="45.75408" lon="6.77441">
        <ele>2211.9690936888</ele>
        <time>2013-09-22T07:02:36.060Z</time>
      </trkpt>
      <trkpt lat="45.75412" lon="6.77433">
        <ele>2215.3379711096</ele>
        <time>2013-09-22T07:02:47.060Z</time>
      </trkpt>
      <trkpt lat="45.75419" lon="6.77431">
        <ele>2219.48600064</ele>
        <time>2013-09-22T07:03:06.060Z</time>
      </trkpt>
      <trkpt lat="45.75425" lon="6.77438">
        <ele>2221.48999936</ele>
        <time>2013-09-22T07:03:16.080Z</time>
      </trkpt>
      <trkpt lat="45.75428" lon="6.77426">
        <ele>2225.4041890007</ele>
        <time>2013-09-22T07:03:34.980Z</time>
      </trkpt>
      <trkpt lat="45.75431" lon="6.77414">
        <ele>2228.4669354921</ele>
        <time>2013-09-22T07:03:45.980Z</time>
      </trkpt>
      <trkpt lat="45.75442" lon="6.77411">
        <ele>2232.81399808</ele>
        <time>2013-09-22T07:04:03.010Z</time>
      </trkpt>
      <trkpt lat="45.75452" lon="6.7741">
        <ele>2237.7649984</ele>
        <time>2013-09-22T07:04:13.160Z</time>
      </trkpt>
      <trkpt lat="45.75457" lon="6.77402">
        <ele>2239.28999936</ele>
        <time>2013-09-22T07:04:25.080Z</time>
      </trkpt>
      <trkpt lat="45.75458" lon="6.77392">
        <ele>2241.14499968</ele>
        <time>2013-09-22T07:04:35.080Z</time>
      </trkpt>
      <trkpt lat="45.7546" lon="6.77383">
        <ele>2241.94499968</ele>
        <time>2013-09-22T07:04:43.080Z</time>
      </trkpt>
      <trkpt lat="45.75455" lon="6.77372">
        <ele>2243.83500032</ele>
        <time>2013-09-22T07:05:11.980Z</time>
      </trkpt>
      <trkpt lat="45.75459" lon="6.77358">
        <ele>2247.672</ele>
        <time>2013-09-22T07:05:31.990Z</time>
      </trkpt>
      <trkpt lat="45.75463" lon="6.77345">
        <ele>2251.6022024194</ele>
        <time>2013-09-22T07:05:48.980Z</time>
      </trkpt>
      <trkpt lat="45.75462" lon="6.77331">
        <ele>2254.92900096</ele>
        <time>2013-09-22T07:06:00.060Z</time>
      </trkpt>
      <trkpt lat="45.75469" lon="6.77327">
        <ele>2259.10500096</ele>
        <time>2013-09-22T07:06:13.980Z</time>
      </trkpt>
      <trkpt lat="45.75476" lon="6.77322">
        <ele>2262.0379235372</ele>
        <time>2013-09-22T07:06:24.010Z</time>
      </trkpt>
      <trkpt lat="45.75484" lon="6.77321">
        <ele>2262.7365267778</ele>
        <time>2013-09-22T07:06:31.010Z</time>
      </trkpt>
      <trkpt lat="45.75493" lon="6.77317">
        <ele>2264.4889776423</ele>
        <time>2013-09-22T07:06:41.080Z</time>
      </trkpt>
      <trkpt lat="45.75501" lon="6.77313">
        <ele>2267.5564434146</ele>
        <time>2013-09-22T07:06:52.160Z</time>
      </trkpt>
      <trkpt lat="45.75503" lon="6.77304">
        <ele>2272.17999872</ele>
        <time>2013-09-22T07:07:04.080Z</time>
      </trkpt>
      <trkpt lat="45.75513" lon="6.77301">
        <ele>2276.88999936</ele>
        <time>2013-09-22T07:07:18.080Z</time>
      </trkpt>
      <trkpt lat="45.75516" lon="6.77293">
        <ele>2279.584</ele>
        <time>2013-09-22T07:07:28.910Z</time>
      </trkpt>
      <trkpt lat="45.75517" lon="6.77282">
        <ele>2283.88600064</ele>
        <time>2013-09-22T07:07:48.060Z</time>
      </trkpt>
      <trkpt lat="45.75525" lon="6.77274">
        <ele>2286.62899712</ele>
        <time>2013-09-22T07:07:59.060Z</time>
      </trkpt>
      <trkpt lat="45.75524" lon="6.77264">
        <ele>2291.03500032</ele>
        <time>2013-09-22T07:08:13.980Z</time>
      </trkpt>
      <trkpt lat="45.75532" lon="6.77263">
        <ele>2292.2894207038</ele>
        <time>2013-09-22T07:09:15.080Z</time>
      </trkpt>
      <trkpt lat="45.75539" lon="6.77261">
        <ele>2293.4870262592</ele>
        <time>2013-09-22T07:09:21.080Z</time>
      </trkpt>
      <trkpt lat="45.75543" lon="6.77254">
        <ele>2295.2805622249</ele>
        <time>2013-09-22T07:09:27.910Z</time>
      </trkpt>
      <trkpt lat="45.75545" lon="6.77245">
        <ele>2297.26999808</ele>
        <time>2013-09-22T07:09:34.980Z</time>
      </trkpt>
      <trkpt lat="45.75548" lon="6.77239">
        <ele>2298.46999808</ele>
        <time>2013-09-22T07:09:40.980Z</time>
      </trkpt>
      <trkpt lat="45.75548" lon="6.77231">
        <ele>2299.47000064</ele>
        <time>2013-09-22T07:09:45.980Z</time>
      </trkpt>
      <trkpt lat="45.75549" lon="6.77224">
        <ele>2300.27000064</ele>
        <time>2013-09-22T07:09:49.980Z</time>
      </trkpt>
      <trkpt lat="45.7555" lon="6.77215">
        <ele>2301.28599808</ele>
        <time>2013-09-22T07:09:55.060Z</time>
      </trkpt>
      <trkpt lat="45.75556" lon="6.77213">
        <ele>2302.28600064</ele>
        <time>2013-09-22T07:10:00.060Z</time>
      </trkpt>
      <trkpt lat="45.75562" lon="6.77218">
        <ele>2303.68599808</ele>
        <time>2013-09-22T07:10:07.060Z</time>
      </trkpt>
      <trkpt lat="45.75566" lon="6.77227">
        <ele>2305.26999808</ele>
        <time>2013-09-22T07:10:14.980Z</time>
      </trkpt>
      <trkpt lat="45.75571" lon="6.7722">
        <ele>2307.67599872</ele>
        <time>2013-09-22T07:10:27.010Z</time>
      </trkpt>
      <trkpt lat="45.75575" lon="6.77214">
        <ele>2309.1341939621</ele>
        <time>2013-09-22T07:10:34.080Z</time>
      </trkpt>
      <trkpt lat="45.75579" lon="6.7722">
        <ele>2311.5198813645</ele>
        <time>2013-09-22T07:10:42.080Z</time>
      </trkpt>
      <trkpt lat="45.75582" lon="6.7723">
        <ele>2314.628</ele>
        <time>2013-09-22T07:10:59.910Z</time>
      </trkpt>
      <trkpt lat="45.75585" lon="6.77235">
        <ele>2315.26999808</ele>
        <time>2013-09-22T07:11:04.980Z</time>
      </trkpt>
      <trkpt lat="45.75589" lon="6.77223">
        <ele>2317.2675898569</ele>
        <time>2013-09-22T07:11:14.980Z</time>
      </trkpt>
      <trkpt lat="45.75587" lon="6.77209">
        <ele>2319.2744701435</ele>
        <time>2013-09-22T07:11:25.080Z</time>
      </trkpt>
      <trkpt lat="45.75587" lon="6.77197">
        <ele>2321.28999936</ele>
        <time>2013-09-22T07:11:35.080Z</time>
      </trkpt>
      <trkpt lat="45.7559" lon="6.77184">
        <ele>2323.13499904</ele>
        <time>2013-09-22T07:11:44.080Z</time>
      </trkpt>
      <trkpt lat="45.75598" lon="6.77183">
        <ele>2326.656</ele>
        <time>2013-09-22T07:11:56.910Z</time>
      </trkpt>
      <trkpt lat="45.75608" lon="6.77181">
        <ele>2330.3997983809</ele>
        <time>2013-09-22T07:12:14.980Z</time>
      </trkpt>
      <trkpt lat="45.75609" lon="6.77175">
        <ele>2332.804606458</ele>
        <time>2013-09-22T07:12:22.980Z</time>
      </trkpt>
      <trkpt lat="45.75617" lon="6.77173">
        <ele>2336.48599808</ele>
        <time>2013-09-22T07:12:41.060Z</time>
      </trkpt>
      <trkpt lat="45.75621" lon="6.77164">
        <ele>2339.57200128</ele>
        <time>2013-09-22T07:12:50.060Z</time>
      </trkpt>
      <trkpt lat="45.75625" lon="6.77158">
        <ele>2341.87599872</ele>
        <time>2013-09-22T07:12:58.010Z</time>
      </trkpt>
      <trkpt lat="45.75625" lon="6.77146">
        <ele>2343.88999936</ele>
        <time>2013-09-22T07:13:08.080Z</time>
      </trkpt>
      <trkpt lat="45.75625" lon="6.77138">
        <ele>2345.30599936</ele>
        <time>2013-09-22T07:13:15.160Z</time>
      </trkpt>
      <trkpt lat="45.75629" lon="6.77132">
        <ele>2346.70599936</ele>
        <time>2013-09-22T07:13:22.160Z</time>
      </trkpt>
      <trkpt lat="45.75636" lon="6.77127">
        <ele>2351.67000064</ele>
        <time>2013-09-22T07:13:41.980Z</time>
      </trkpt>
      <trkpt lat="45.75644" lon="6.77126">
        <ele>2354.94000128</ele>
        <time>2013-09-22T07:13:55.980Z</time>
      </trkpt>
      <trkpt lat="45.75646" lon="6.77111">
        <ele>2358.2854274079</ele>
        <time>2013-09-22T07:14:05.060Z</time>
      </trkpt>
      <trkpt lat="45.75651" lon="6.77102">
        <ele>2361.3016052575</ele>
        <time>2013-09-22T07:14:17.980Z</time>
      </trkpt>
      <trkpt lat="45.75658" lon="6.77095">
        <ele>2364.74000128</ele>
        <time>2013-09-22T07:14:27.980Z</time>
      </trkpt>
      <trkpt lat="45.75666" lon="6.77091">
        <ele>2368.46999808</ele>
        <time>2013-09-22T07:14:40.980Z</time>
      </trkpt>
      <trkpt lat="45.75668" lon="6.7708">
        <ele>2372.955090111</ele>
        <time>2013-09-22T07:15:00.160Z</time>
      </trkpt>
      <trkpt lat="45.75676" lon="6.7708">
        <ele>2376.8346684828</ele>
        <time>2013-09-22T07:15:13.080Z</time>
      </trkpt>
      <trkpt lat="45.75686" lon="6.77076">
        <ele>2380.256</ele>
        <time>2013-09-22T07:15:29.910Z</time>
      </trkpt>
      <trkpt lat="45.75694" lon="6.77072">
        <ele>2384.488</ele>
        <time>2013-09-22T07:16:41.070Z</time>
      </trkpt>
      <trkpt lat="45.75701" lon="6.7707">
        <ele>2388.9101802221</ele>
        <time>2013-09-22T07:16:55.910Z</time>
      </trkpt>
      <trkpt lat="45.75711" lon="6.77066">
        <ele>2395.28599808</ele>
        <time>2013-09-22T07:17:15.060Z</time>
      </trkpt>
      <trkpt lat="45.7572" lon="6.77067">
        <ele>2398.47599872</ele>
        <time>2013-09-22T07:17:31.010Z</time>
      </trkpt>
      <trkpt lat="45.75727" lon="6.7706">
        <ele>2403.0269438895</ele>
        <time>2013-09-22T07:17:47.060Z</time>
      </trkpt>
      <trkpt lat="45.75733" lon="6.77065">
        <ele>2405.2264534019</ele>
        <time>2013-09-22T07:17:55.910Z</time>
      </trkpt>
      <trkpt lat="45.75737" lon="6.77058">
        <ele>2408.12900096</ele>
        <time>2013-09-22T07:18:24.060Z</time>
      </trkpt>
      <trkpt lat="45.75741" lon="6.77056">
        <ele>2412.12600064</ele>
        <time>2013-09-22T07:18:39.260Z</time>
      </trkpt>
      <trkpt lat="45.75746" lon="6.77055">
        <ele>2413.15500032</ele>
        <time>2013-09-22T07:18:45.180Z</time>
      </trkpt>
      <trkpt lat="45.75755" lon="6.77055">
        <ele>2416.15199744</ele>
        <time>2013-09-22T07:18:59.010Z</time>
      </trkpt>
      <trkpt lat="45.75765" lon="6.77056">
        <ele>2419.932</ele>
        <time>2013-09-22T07:19:10.070Z</time>
      </trkpt>
      <trkpt lat="45.75774" lon="6.77049">
        <ele>2423.85899904</ele>
        <time>2013-09-22T07:19:23.160Z</time>
      </trkpt>
      <trkpt lat="45.75784" lon="6.77045">
        <ele>2426.24499968</ele>
        <time>2013-09-22T07:19:36.080Z</time>
      </trkpt>
      <trkpt lat="45.75794" lon="6.77049">
        <ele>2427.2874127373</ele>
        <time>2013-09-22T07:19:45.080Z</time>
      </trkpt>
      <trkpt lat="45.75804" lon="6.7705">
        <ele>2429.3814308355</ele>
        <time>2013-09-22T07:19:54.980Z</time>
      </trkpt>
      <trkpt lat="45.75813" lon="6.77058">
        <ele>2432.07000064</ele>
        <time>2013-09-22T07:20:03.980Z</time>
      </trkpt>
      <trkpt lat="45.75823" lon="6.77065">
        <ele>2435.06999808</ele>
        <time>2013-09-22T07:20:18.980Z</time>
      </trkpt>
      <trkpt lat="45.75834" lon="6.77067">
        <ele>2437.48599808</ele>
        <time>2013-09-22T07:20:31.060Z</time>
      </trkpt>
      <trkpt lat="45.75843" lon="6.77073">
        <ele>2442.1362698926</ele>
        <time>2013-09-22T07:20:48.980Z</time>
      </trkpt>
      <trkpt lat="45.75848" lon="6.77079">
        <ele>2445</ele>
        <time>2013-09-22T07:21:04.970Z</time>
      </trkpt>
      <trkpt lat="45.75855" lon="6.7709">
        <ele>2446.48599808</ele>
        <time>2013-09-22T07:21:21.060Z</time>
      </trkpt>
      <trkpt lat="45.75861" lon="6.77102">
        <ele>2449.88999936</ele>
        <time>2013-09-22T07:21:38.080Z</time>
      </trkpt>
      <trkpt lat="45.75867" lon="6.77114">
        <ele>2451.44499968</ele>
        <time>2013-09-22T07:21:48.080Z</time>
      </trkpt>
      <trkpt lat="45.75869" lon="6.77129">
        <ele>2455.10599936</ele>
        <time>2013-09-22T07:22:04.160Z</time>
      </trkpt>
      <trkpt lat="45.75867" lon="6.77144">
        <ele>2457.856</ele>
        <time>2013-09-22T07:22:27.910Z</time>
      </trkpt>
      <trkpt lat="45.75877" lon="6.77146">
        <ele>2462.71399808</ele>
        <time>2013-09-22T07:22:56.010Z</time>
      </trkpt>
      <trkpt lat="45.75887" lon="6.77143">
        <ele>2467.652</ele>
        <time>2013-09-22T07:23:20.150Z</time>
      </trkpt>
      <trkpt lat="45.75895" lon="6.77147">
        <ele>2469.6866271851</ele>
        <time>2013-09-22T07:23:32.080Z</time>
      </trkpt>
      <trkpt lat="45.75904" lon="6.77154">
        <ele>2473.33499904</ele>
        <time>2013-09-22T07:23:48.080Z</time>
      </trkpt>
      <trkpt lat="45.75909" lon="6.77166">
        <ele>2478.44300032</ele>
        <time>2013-09-22T07:24:08.060Z</time>
      </trkpt>
      <trkpt lat="45.75915" lon="6.77175">
        <ele>2482.08199936</ele>
        <time>2013-09-22T07:24:29.040Z</time>
      </trkpt>
      <trkpt lat="45.75922" lon="6.77185">
        <ele>2486.07799808</ele>
        <time>2013-09-22T07:24:43.890Z</time>
      </trkpt>
      <trkpt lat="45.75929" lon="6.77191">
        <ele>2489.66999808</ele>
        <time>2013-09-22T07:24:56.980Z</time>
      </trkpt>
      <trkpt lat="45.75937" lon="6.772">
        <ele>2493.68599808</ele>
        <time>2013-09-22T07:25:17.060Z</time>
      </trkpt>
      <trkpt lat="45.75947" lon="6.77199">
        <ele>2500.24499968</ele>
        <time>2013-09-22T07:25:46.080Z</time>
      </trkpt>
      <trkpt lat="45.75956" lon="6.77194">
        <ele>2502.76799744</ele>
        <time>2013-09-22T07:25:58.050Z</time>
      </trkpt>
      <trkpt lat="45.75966" lon="6.77191">
        <ele>2508.7025952591</ele>
        <time>2013-09-22T07:26:22.160Z</time>
      </trkpt>
      <trkpt lat="45.75975" lon="6.77192">
        <ele>2511.93499904</ele>
        <time>2013-09-22T07:26:40.080Z</time>
      </trkpt>
      <trkpt lat="45.75981" lon="6.77196">
        <ele>2514.778221068</ele>
        <time>2013-09-22T07:26:48.080Z</time>
      </trkpt>
      <trkpt lat="45.75987" lon="6.77208">
        <ele>2519.8588579431</ele>
        <time>2013-09-22T07:27:03.160Z</time>
      </trkpt>
      <trkpt lat="45.75997" lon="6.77213">
        <ele>2523.57999872</ele>
        <time>2013-09-22T07:27:20.080Z</time>
      </trkpt>
      <trkpt lat="45.76003" lon="6.7722">
        <ele>2526.88999936</ele>
        <time>2013-09-22T07:27:33.080Z</time>
      </trkpt>
      <trkpt lat="45.76013" lon="6.77221">
        <ele>2529.75899904</ele>
        <time>2013-09-22T07:27:46.160Z</time>
      </trkpt>
      <trkpt lat="45.76019" lon="6.77232">
        <ele>2538.1337949285</ele>
        <time>2013-09-22T07:28:14.080Z</time>
      </trkpt>
      <trkpt lat="45.76026" lon="6.77242">
        <ele>2541.6579197875</ele>
        <time>2013-09-22T07:28:26.980Z</time>
      </trkpt>
      <trkpt lat="45.7603" lon="6.77248">
        <ele>2543.24300032</ele>
        <time>2013-09-22T07:28:36.060Z</time>
      </trkpt>
      <trkpt lat="45.76035" lon="6.77256">
        <ele>2544.26999808</ele>
        <time>2013-09-22T07:28:44.980Z</time>
      </trkpt>
      <trkpt lat="45.76038" lon="6.77265">
        <ele>2546.53999616</ele>
        <time>2013-09-22T07:28:54.980Z</time>
      </trkpt>
      <trkpt lat="45.76044" lon="6.77275">
        <ele>2550.2674639633</ele>
        <time>2013-09-22T07:29:04.970Z</time>
      </trkpt>
      <trkpt lat="45.76046" lon="6.77288">
        <ele>2552.2685381845</ele>
        <time>2013-09-22T07:29:14.990Z</time>
      </trkpt>
      <trkpt lat="45.76049" lon="6.77298">
        <ele>2553.8717435692</ele>
        <time>2013-09-22T07:29:22.990Z</time>
      </trkpt>
      <trkpt lat="45.76056" lon="6.77299">
        <ele>2554.75299968</ele>
        <time>2013-09-22T07:29:31.160Z</time>
      </trkpt>
      <trkpt lat="45.76061" lon="6.77297">
        <ele>2556.68999936</ele>
        <time>2013-09-22T07:29:42.080Z</time>
      </trkpt>
      <trkpt lat="45.76067" lon="6.77299">
        <ele>2559.684</ele>
        <time>2013-09-22T07:30:25.910Z</time>
      </trkpt>
      <trkpt lat="45.76074" lon="6.77304">
        <ele>2562.28599808</ele>
        <time>2013-09-22T07:30:35.060Z</time>
      </trkpt>
      <trkpt lat="45.76083" lon="6.77309">
        <ele>2564.40499712</ele>
        <time>2013-09-22T07:30:44.980Z</time>
      </trkpt>
      <trkpt lat="45.76092" lon="6.7731">
        <ele>2567.68599808</ele>
        <time>2013-09-22T07:30:57.060Z</time>
      </trkpt>
      <trkpt lat="45.76098" lon="6.7731">
        <ele>2568.88599808</ele>
        <time>2013-09-22T07:31:03.060Z</time>
      </trkpt>
      <trkpt lat="45.76102" lon="6.77311">
        <ele>2569.8682646664</ele>
        <time>2013-09-22T07:31:07.980Z</time>
      </trkpt>
      <trkpt lat="45.7611" lon="6.77311">
        <ele>2571</ele>
        <time>2013-09-22T07:31:21.980Z</time>
      </trkpt>
      <trkpt lat="45.76118" lon="6.77319">
        <ele>2571.10500096</ele>
        <time>2013-09-22T07:31:33.980Z</time>
      </trkpt>
      <trkpt lat="45.76127" lon="6.77325">
        <ele>2574.68599808</ele>
        <time>2013-09-22T07:31:47.060Z</time>
      </trkpt>
      <trkpt lat="45.76135" lon="6.7732">
        <ele>2578.1976042779</ele>
        <time>2013-09-22T07:32:00.970Z</time>
      </trkpt>
      <trkpt lat="45.76142" lon="6.77312">
        <ele>2582.23500032</ele>
        <time>2013-09-22T07:32:15.980Z</time>
      </trkpt>
      <trkpt lat="45.76148" lon="6.77303">
        <ele>2584.62599808</ele>
        <time>2013-09-22T07:32:29.050Z</time>
      </trkpt>
      <trkpt lat="45.76155" lon="6.77298">
        <ele>2586.888</ele>
        <time>2013-09-22T07:32:38.070Z</time>
      </trkpt>
      <trkpt lat="45.76161" lon="6.77295">
        <ele>2588.13499904</ele>
        <time>2013-09-22T07:32:44.980Z</time>
      </trkpt>
      <trkpt lat="45.76166" lon="6.77299">
        <ele>2588.83500032</ele>
        <time>2013-09-22T07:32:51.980Z</time>
      </trkpt>
      <trkpt lat="45.76175" lon="6.773">
        <ele>2592.84300032</ele>
        <time>2013-09-22T07:33:12.060Z</time>
      </trkpt>
      <trkpt lat="45.76176" lon="6.77285">
        <ele>2595.14000128</ele>
        <time>2013-09-22T07:33:23.980Z</time>
      </trkpt>
      <trkpt lat="45.76183" lon="6.7728">
        <ele>2601.68599808</ele>
        <time>2013-09-22T07:33:47.060Z</time>
      </trkpt>
      <trkpt lat="45.76188" lon="6.77288">
        <ele>2603.8622759999</ele>
        <time>2013-09-22T07:33:57.950Z</time>
      </trkpt>
      <trkpt lat="45.76193" lon="6.77294">
        <ele>2605</ele>
        <time>2013-09-22T07:34:08.960Z</time>
      </trkpt>
      <trkpt lat="45.76196" lon="6.77301">
        <ele>2605.83500032</ele>
        <time>2013-09-22T07:34:21.980Z</time>
      </trkpt>
      <trkpt lat="45.76201" lon="6.77306">
        <ele>2608.17199616</ele>
        <time>2013-09-22T07:34:29.060Z</time>
      </trkpt>
      <trkpt lat="45.76207" lon="6.7731">
        <ele>2610.74299904</ele>
        <time>2013-09-22T07:34:41.060Z</time>
      </trkpt>
      <trkpt lat="45.76214" lon="6.77308">
        <ele>2613.2665322539</ele>
        <time>2013-09-22T07:34:54.980Z</time>
      </trkpt>
      <trkpt lat="45.7622" lon="6.773">
        <ele>2615.93499904</ele>
        <time>2013-09-22T07:35:12.980Z</time>
      </trkpt>
      <trkpt lat="45.76229" lon="6.77307">
        <ele>2620.54000128</ele>
        <time>2013-09-22T07:35:29.980Z</time>
      </trkpt>
      <trkpt lat="45.76236" lon="6.773">
        <ele>2623.8841145684</ele>
        <time>2013-09-22T07:35:43.060Z</time>
      </trkpt>
      <trkpt lat="45.76235" lon="6.77289">
        <ele>2624</ele>
        <time>2013-09-22T07:35:50.980Z</time>
      </trkpt>
      <trkpt lat="45.76237" lon="6.7728">
        <ele>2625.07599872</ele>
        <time>2013-09-22T07:35:59.010Z</time>
      </trkpt>
      <trkpt lat="45.76246" lon="6.77278">
        <ele>2627.888</ele>
        <time>2013-09-22T07:36:13.070Z</time>
      </trkpt>
      <trkpt lat="45.76254" lon="6.77272">
        <ele>2629.88399872</ele>
        <time>2013-09-22T07:36:23.050Z</time>
      </trkpt>
      <trkpt lat="45.76262" lon="6.77276">
        <ele>2635.872</ele>
        <time>2013-09-22T07:36:37.990Z</time>
      </trkpt>
      <trkpt lat="45.7627" lon="6.7728">
        <ele>2637.6640220936</ele>
        <time>2013-09-22T07:36:46.980Z</time>
      </trkpt>
      <trkpt lat="45.76276" lon="6.77286">
        <ele>2639.6417757766</ele>
        <time>2013-09-22T07:37:00.080Z</time>
      </trkpt>
      <trkpt lat="45.76283" lon="6.77294">
        <ele>2642.70599936</ele>
        <time>2013-09-22T07:37:17.160Z</time>
      </trkpt>
      <trkpt lat="45.7629" lon="6.77296">
        <ele>2647.2894207038</ele>
        <time>2013-09-22T07:37:35.080Z</time>
      </trkpt>
      <trkpt lat="45.7629" lon="6.77283">
        <ele>2649</ele>
        <time>2013-09-22T07:37:46.080Z</time>
      </trkpt>
      <trkpt lat="45.76299" lon="6.77286">
        <ele>2651.5255237556</ele>
        <time>2013-09-22T07:38:02.050Z</time>
      </trkpt>
      <trkpt lat="45.76307" lon="6.77292">
        <ele>2655.81199872</ele>
        <time>2013-09-22T07:38:13.160Z</time>
      </trkpt>
      <trkpt lat="45.76313" lon="6.77302">
        <ele>2656.75299968</ele>
        <time>2013-09-22T07:38:21.160Z</time>
      </trkpt>
      <trkpt lat="45.76321" lon="6.7731">
        <ele>2660.77199616</ele>
        <time>2013-09-22T07:38:33.060Z</time>
      </trkpt>
      <trkpt lat="45.7633" lon="6.77313">
        <ele>2664.72900096</ele>
        <time>2013-09-22T07:38:46.060Z</time>
      </trkpt>
      <trkpt lat="45.76339" lon="6.77316">
        <ele>2668.31399808</ele>
        <time>2013-09-22T07:38:58.010Z</time>
      </trkpt>
      <trkpt lat="45.76347" lon="6.7732">
        <ele>2672.57999872</ele>
        <time>2013-09-22T07:39:10.080Z</time>
      </trkpt>
      <trkpt lat="45.76357" lon="6.77316">
        <ele>2674.64999936</ele>
        <time>2013-09-22T07:39:20.130Z</time>
      </trkpt>
      <trkpt lat="45.76364" lon="6.77327">
        <ele>2675</ele>
        <time>2013-09-22T07:39:32.160Z</time>
      </trkpt>
      <trkpt lat="45.76368" lon="6.77337">
        <ele>2676.902196185</ele>
        <time>2013-09-22T07:39:43.160Z</time>
      </trkpt>
      <trkpt lat="45.76375" lon="6.77344">
        <ele>2681.48999936</ele>
        <time>2013-09-22T07:40:01.080Z</time>
      </trkpt>
      <trkpt lat="45.76383" lon="6.77351">
        <ele>2684.85899904</ele>
        <time>2013-09-22T07:40:13.160Z</time>
      </trkpt>
      <trkpt lat="45.76391" lon="6.77357">
        <ele>2689.7045906297</ele>
        <time>2013-09-22T07:40:27.160Z</time>
      </trkpt>
      <trkpt lat="45.76398" lon="6.77355">
        <ele>2693.456</ele>
        <time>2013-09-22T07:41:00.910Z</time>
      </trkpt>
      <trkpt lat="45.76404" lon="6.77356">
        <ele>2696.66999808</ele>
        <time>2013-09-22T07:41:56.980Z</time>
      </trkpt>
      <trkpt lat="45.76413" lon="6.7736">
        <ele>2699.07000064</ele>
        <time>2013-09-22T07:42:13.980Z</time>
      </trkpt>
      <trkpt lat="45.76421" lon="6.77362">
        <ele>2701.3343305928</ele>
        <time>2013-09-22T07:42:26.980Z</time>
      </trkpt>
      <trkpt lat="45.76431" lon="6.77362">
        <ele>2704.94000128</ele>
        <time>2013-09-22T07:42:45.980Z</time>
      </trkpt>
      <trkpt lat="45.76437" lon="6.77371">
        <ele>2708.66999808</ele>
        <time>2013-09-22T07:42:56.980Z</time>
      </trkpt>
      <trkpt lat="45.76446" lon="6.77376">
        <ele>2711.07599872</ele>
        <time>2013-09-22T07:43:09.010Z</time>
      </trkpt>
      <trkpt lat="45.76453" lon="6.77384">
        <ele>2713.6526956664</ele>
        <time>2013-09-22T07:43:19.150Z</time>
      </trkpt>
      <trkpt lat="45.76458" lon="6.77394">
        <ele>2717.73499904</ele>
        <time>2013-09-22T07:43:36.080Z</time>
      </trkpt>
      <trkpt lat="45.76466" lon="6.77399">
        <ele>2722.57999872</ele>
        <time>2013-09-22T07:43:50.080Z</time>
      </trkpt>
      <trkpt lat="45.76473" lon="6.77405">
        <ele>2725.50599936</ele>
        <time>2013-09-22T07:44:01.160Z</time>
      </trkpt>
      <trkpt lat="45.76482" lon="6.77409">
        <ele>2729.30599936</ele>
        <time>2013-09-22T07:44:20.160Z</time>
      </trkpt>
      <trkpt lat="45.76491" lon="6.77408">
        <ele>2732.23499904</ele>
        <time>2013-09-22T07:44:31.080Z</time>
      </trkpt>
      <trkpt lat="45.76497" lon="6.77406">
        <ele>2733.74499968</ele>
        <time>2013-09-22T07:45:01.080Z</time>
      </trkpt>
      <trkpt lat="45.76506" lon="6.77406">
        <ele>2734.75299968</ele>
        <time>2013-09-22T07:45:11.160Z</time>
      </trkpt>
      <trkpt lat="45.76514" lon="6.77406">
        <ele>2735.5480672501</ele>
        <time>2013-09-22T07:45:19.160Z</time>
      </trkpt>
      <trkpt lat="45.76521" lon="6.77408">
        <ele>2737.2896079791</ele>
        <time>2013-09-22T07:45:27.980Z</time>
      </trkpt>
      <trkpt lat="45.76524" lon="6.77418">
        <ele>2739.336</ele>
        <time>2013-09-22T07:45:36.990Z</time>
      </trkpt>
      <trkpt lat="45.76529" lon="6.77429">
        <ele>2742.53499904</ele>
        <time>2013-09-22T07:45:52.080Z</time>
      </trkpt>
      <trkpt lat="45.7653" lon="6.77441">
        <ele>2744.70599936</ele>
        <time>2013-09-22T07:46:02.160Z</time>
      </trkpt>
      <trkpt lat="45.76533" lon="6.77452">
        <ele>2746.2865736038</ele>
        <time>2013-09-22T07:46:15.080Z</time>
      </trkpt>
      <trkpt lat="45.76542" lon="6.77459">
        <ele>2748.88999936</ele>
        <time>2013-09-22T07:46:38.080Z</time>
      </trkpt>
      <trkpt lat="45.76545" lon="6.77463">
        <ele>2752</ele>
        <time>2013-09-22T07:46:57.160Z</time>
      </trkpt>
      <trkpt lat="45.76545" lon="6.77462">
        <ele>2752</ele>
        <time>2013-09-22T07:47:19.960Z</time>
      </trkpt>
      <trkpt lat="45.76543" lon="6.77439">
        <ele>2749</ele>
        <time>2013-09-22T07:48:59.650Z</time>
      </trkpt>
      <trkpt lat="45.76536" lon="6.77433">
        <ele>2748.528</ele>
        <time>2013-09-22T07:49:10.990Z</time>
      </trkpt>
      <trkpt lat="45.76531" lon="6.77442">
        <ele>2746.44700032</ele>
        <time>2013-09-22T07:49:24.160Z</time>
      </trkpt>
      <trkpt lat="45.76531" lon="6.77438">
        <ele>2746</ele>
        <time>2013-09-22T07:49:36.260Z</time>
      </trkpt>
      <trkpt lat="45.76531" lon="6.77447">
        <ele>2746.9999346614</ele>
        <time>2013-09-22T07:52:09.350Z</time>
      </trkpt>
      <trkpt lat="45.76536" lon="6.77455">
        <ele>2747.236</ele>
        <time>2013-09-22T07:52:20.990Z</time>
      </trkpt>
      <trkpt lat="45.76535" lon="6.7747">
        <ele>2748.93500032</ele>
        <time>2013-09-22T07:52:37.980Z</time>
      </trkpt>
      <trkpt lat="45.76531" lon="6.77482">
        <ele>2747.51399936</ele>
        <time>2013-09-22T07:52:46.060Z</time>
      </trkpt>
      <trkpt lat="45.76526" lon="6.77496">
        <ele>2745.31400192</ele>
        <time>2013-09-22T07:52:57.060Z</time>
      </trkpt>
      <trkpt lat="45.76523" lon="6.77504">
        <ele>2742.82799872</ele>
        <time>2013-09-22T07:53:04.060Z</time>
      </trkpt>
      <trkpt lat="45.76524" lon="6.77516">
        <ele>2742.48600064</ele>
        <time>2013-09-22T07:53:16.060Z</time>
      </trkpt>
      <trkpt lat="45.7652" lon="6.77527">
        <ele>2743</ele>
        <time>2013-09-22T07:53:28.980Z</time>
      </trkpt>
      <trkpt lat="45.76514" lon="6.77538">
        <ele>2742.96500096</ele>
        <time>2013-09-22T07:53:38.980Z</time>
      </trkpt>
      <trkpt lat="45.76508" lon="6.77551">
        <ele>2742</ele>
        <time>2013-09-22T07:53:50.980Z</time>
      </trkpt>
      <trkpt lat="45.76502" lon="6.77565">
        <ele>2742</ele>
        <time>2013-09-22T07:53:55.980Z</time>
      </trkpt>
      <trkpt lat="45.76495" lon="6.7758">
        <ele>2741.5159381673</ele>
        <time>2013-09-22T07:54:01.060Z</time>
      </trkpt>
      <trkpt lat="45.76489" lon="6.77591">
        <ele>2740.7191254183</ele>
        <time>2013-09-22T07:54:05.060Z</time>
      </trkpt>
      <trkpt lat="45.76483" lon="6.77604">
        <ele>2739.9688764659</ele>
        <time>2013-09-22T07:54:08.980Z</time>
      </trkpt>
      <trkpt lat="45.76477" lon="6.77615">
        <ele>2739.5672700402</ele>
        <time>2013-09-22T07:54:12.980Z</time>
      </trkpt>
      <trkpt lat="45.76473" lon="6.77628">
        <ele>2739.1656636145</ele>
        <time>2013-09-22T07:54:16.980Z</time>
      </trkpt>
      <trkpt lat="45.7647" lon="6.77644">
        <ele>2738.11600128</ele>
        <time>2013-09-22T07:54:23.050Z</time>
      </trkpt>
      <trkpt lat="45.76468" lon="6.77659">
        <ele>2736.86000384</ele>
        <time>2013-09-22T07:54:28.980Z</time>
      </trkpt>
      <trkpt lat="45.76464" lon="6.77673">
        <ele>2734.46000384</ele>
        <time>2013-09-22T07:54:34.980Z</time>
      </trkpt>
      <trkpt lat="45.76462" lon="6.77686">
        <ele>2733</ele>
        <time>2013-09-22T07:54:41.060Z</time>
      </trkpt>
      <trkpt lat="45.76457" lon="6.77698">
        <ele>2733</ele>
        <time>2013-09-22T07:54:47.060Z</time>
      </trkpt>
      <trkpt lat="45.76454" lon="6.77712">
        <ele>2729.52600064</ele>
        <time>2013-09-22T07:55:01.000Z</time>
      </trkpt>
      <trkpt lat="45.76451" lon="6.77724">
        <ele>2727.64700032</ele>
        <time>2013-09-22T07:55:12.160Z</time>
      </trkpt>
      <trkpt lat="45.76447" lon="6.77735">
        <ele>2727.14700032</ele>
        <time>2013-09-22T07:55:17.160Z</time>
      </trkpt>
      <trkpt lat="45.76439" lon="6.77745">
        <ele>2722.86499968</ele>
        <time>2013-09-22T07:55:49.980Z</time>
      </trkpt>
      <trkpt lat="45.76432" lon="6.77754">
        <ele>2721.80200192</ele>
        <time>2013-09-22T07:55:58.960Z</time>
      </trkpt>
      <trkpt lat="45.76426" lon="6.77768">
        <ele>2717.00200192</ele>
        <time>2013-09-22T07:56:06.960Z</time>
      </trkpt>
      <trkpt lat="45.7642" lon="6.7778">
        <ele>2714.65999872</ele>
        <time>2013-09-22T07:56:11.980Z</time>
      </trkpt>
      <trkpt lat="45.76414" lon="6.77793">
        <ele>2712.66000384</ele>
        <time>2013-09-22T07:56:16.980Z</time>
      </trkpt>
      <trkpt lat="45.76411" lon="6.77808">
        <ele>2708.25499776</ele>
        <time>2013-09-22T07:56:23.980Z</time>
      </trkpt>
      <trkpt lat="45.7641" lon="6.7782">
        <ele>2704.04299904</ele>
        <time>2013-09-22T07:56:39.060Z</time>
      </trkpt>
      <trkpt lat="45.76411" lon="6.77835">
        <ele>2704.84299904</ele>
        <time>2013-09-22T07:56:47.060Z</time>
      </trkpt>
      <trkpt lat="45.76407" lon="6.7785">
        <ele>2705.3515933068</ele>
        <time>2013-09-22T07:56:52.160Z</time>
      </trkpt>
      <trkpt lat="45.76404" lon="6.77862">
        <ele>2705.7499996813</ele>
        <time>2013-09-22T07:56:56.160Z</time>
      </trkpt>
      <trkpt lat="45.76402" lon="6.7787">
        <ele>2704</ele>
        <time>2013-09-22T07:57:24.160Z</time>
      </trkpt>
      <trkpt lat="45.76397" lon="6.77884">
        <ele>2702.71400192</ele>
        <time>2013-09-22T07:57:35.060Z</time>
      </trkpt>
      <trkpt lat="45.7639" lon="6.77892">
        <ele>2696.88200192</ele>
        <time>2013-09-22T07:57:47.160Z</time>
      </trkpt>
      <trkpt lat="45.76384" lon="6.77901">
        <ele>2692.9660345945</ele>
        <time>2013-09-22T07:58:02.080Z</time>
      </trkpt>
      <trkpt lat="45.76384" lon="6.77914">
        <ele>2690.755755834</ele>
        <time>2013-09-22T07:58:11.080Z</time>
      </trkpt>
      <trkpt lat="45.7638" lon="6.77929">
        <ele>2690.0550553577</ele>
        <time>2013-09-22T07:58:18.080Z</time>
      </trkpt>
      <trkpt lat="45.76378" lon="6.77941">
        <ele>2687.28200192</ele>
        <time>2013-09-22T07:58:23.160Z</time>
      </trkpt>
      <trkpt lat="45.76376" lon="6.77952">
        <ele>2684.28200192</ele>
        <time>2013-09-22T07:58:28.160Z</time>
      </trkpt>
      <trkpt lat="45.76373" lon="6.77961">
        <ele>2683.09400064</ele>
        <time>2013-09-22T07:58:33.160Z</time>
      </trkpt>
      <trkpt lat="45.76369" lon="6.77967">
        <ele>2682</ele>
        <time>2013-09-22T07:58:40.160Z</time>
      </trkpt>
      <trkpt lat="45.76365" lon="6.77973">
        <ele>2682</ele>
        <time>2013-09-22T07:58:47.160Z</time>
      </trkpt>
      <trkpt lat="45.76361" lon="6.7798">
        <ele>2682</ele>
        <time>2013-09-22T07:58:54.160Z</time>
      </trkpt>
      <trkpt lat="45.76358" lon="6.77987">
        <ele>2682.34499968</ele>
        <time>2013-09-22T07:59:02.080Z</time>
      </trkpt>
      <trkpt lat="45.76355" lon="6.77992">
        <ele>2683</ele>
        <time>2013-09-22T07:59:09.080Z</time>
      </trkpt>
      <trkpt lat="45.7635" lon="6.77997">
        <ele>2683</ele>
        <time>2013-09-22T07:59:20.910Z</time>
      </trkpt>
      <trkpt lat="45.76343" lon="6.78009">
        <ele>2683.43499904</ele>
        <time>2013-09-22T07:59:32.980Z</time>
      </trkpt>
      <trkpt lat="45.76334" lon="6.78016">
        <ele>2684</ele>
        <time>2013-09-22T07:59:44.060Z</time>
      </trkpt>
      <trkpt lat="45.76334" lon="6.78028">
        <ele>2683.3594383936</ele>
        <time>2013-09-22T07:59:55.050Z</time>
      </trkpt>
      <trkpt lat="45.76336" lon="6.78034">
        <ele>2683</ele>
        <time>2013-09-22T08:00:05.160Z</time>
      </trkpt>
      <trkpt lat="45.7633" lon="6.78044">
        <ele>2680.45500032</ele>
        <time>2013-09-22T08:00:24.080Z</time>
      </trkpt>
      <trkpt lat="45.76331" lon="6.78051">
        <ele>2678.25699968</ele>
        <time>2013-09-22T08:00:46.060Z</time>
      </trkpt>
      <trkpt lat="45.76331" lon="6.78063">
        <ele>2670.356</ele>
        <time>2013-09-22T08:01:15.070Z</time>
      </trkpt>
      <trkpt lat="45.76332" lon="6.78071">
        <ele>2667.76700032</ele>
        <time>2013-09-22T08:01:30.960Z</time>
      </trkpt>
      <trkpt lat="45.76332" lon="6.78086">
        <ele>2663.74100096</ele>
        <time>2013-09-22T08:02:06.160Z</time>
      </trkpt>
      <trkpt lat="45.76335" lon="6.781">
        <ele>2655.9770672057</ele>
        <time>2013-09-22T08:02:32.060Z</time>
      </trkpt>
      <trkpt lat="45.76341" lon="6.78112">
        <ele>2653.6576308434</ele>
        <time>2013-09-22T08:02:42.080Z</time>
      </trkpt>
      <trkpt lat="45.76344" lon="6.78126">
        <ele>2649.69400064</ele>
        <time>2013-09-22T08:03:25.160Z</time>
      </trkpt>
      <trkpt lat="45.76344" lon="6.78141">
        <ele>2646.38800128</ele>
        <time>2013-09-22T08:03:35.160Z</time>
      </trkpt>
      <trkpt lat="45.76343" lon="6.78156">
        <ele>2644.24700032</ele>
        <time>2013-09-22T08:03:46.160Z</time>
      </trkpt>
      <trkpt lat="45.76342" lon="6.78171">
        <ele>2642.31000064</ele>
        <time>2013-09-22T08:03:57.080Z</time>
      </trkpt>
      <trkpt lat="45.76338" lon="6.78184">
        <ele>2640</ele>
        <time>2013-09-22T08:04:13.150Z</time>
      </trkpt>
      <trkpt lat="45.76329" lon="6.78192">
        <ele>2640</ele>
        <time>2013-09-22T08:04:22.980Z</time>
      </trkpt>
      <trkpt lat="45.7632" lon="6.78199">
        <ele>2640</ele>
        <time>2013-09-22T08:04:29.060Z</time>
      </trkpt>
      <trkpt lat="45.76312" lon="6.78208">
        <ele>2640</ele>
        <time>2013-09-22T08:04:37.060Z</time>
      </trkpt>
      <trkpt lat="45.76303" lon="6.78215">
        <ele>2640</ele>
        <time>2013-09-22T08:04:46.980Z</time>
      </trkpt>
      <trkpt lat="45.7631" lon="6.78219">
        <ele>2644.6576321285</ele>
        <time>2013-09-22T08:05:29.980Z</time>
      </trkpt>
      <trkpt lat="45.76317" lon="6.78223">
        <ele>2651.24499968</ele>
        <time>2013-09-22T08:06:11.080Z</time>
      </trkpt>
      <trkpt lat="45.76307" lon="6.78222">
        <ele>2651.15500032</ele>
        <time>2013-09-22T08:06:27.080Z</time>
      </trkpt>
      <trkpt lat="45.76298" lon="6.7822">
        <ele>2644.2750016</ele>
        <time>2013-09-22T08:06:40.080Z</time>
      </trkpt>
      <trkpt lat="45.76288" lon="6.78219">
        <ele>2639.36</ele>
        <time>2013-09-22T08:06:49.910Z</time>
      </trkpt>
      <trkpt lat="45.76277" lon="6.78216">
        <ele>2634.59800192</ele>
        <time>2013-09-22T08:06:59.970Z</time>
      </trkpt>
      <trkpt lat="45.76267" lon="6.78212">
        <ele>2630.26000384</ele>
        <time>2013-09-22T08:07:12.980Z</time>
      </trkpt>
      <trkpt lat="45.76257" lon="6.7821">
        <ele>2626.3100032</ele>
        <time>2013-09-22T08:07:22.010Z</time>
      </trkpt>
      <trkpt lat="45.76248" lon="6.78207">
        <ele>2623</ele>
        <time>2013-09-22T08:07:35.080Z</time>
      </trkpt>
      <trkpt lat="45.76238" lon="6.78204">
        <ele>2618.48200192</ele>
        <time>2013-09-22T08:07:46.160Z</time>
      </trkpt>
      <trkpt lat="45.76232" lon="6.78201">
        <ele>2614.02000128</ele>
        <time>2013-09-22T08:07:56.080Z</time>
      </trkpt>
      <trkpt lat="45.76226" lon="6.78201">
        <ele>2610.9759036145</ele>
        <time>2013-09-22T08:08:18.910Z</time>
      </trkpt>
      <trkpt lat="45.7622" lon="6.78198">
        <ele>2609.53000192</ele>
        <time>2013-09-22T08:08:50.980Z</time>
      </trkpt>
      <trkpt lat="45.76211" lon="6.78194">
        <ele>2603.368</ele>
        <time>2013-09-22T08:09:14.070Z</time>
      </trkpt>
      <trkpt lat="45.76201" lon="6.78193">
        <ele>2597.02000128</ele>
        <time>2013-09-22T08:09:31.080Z</time>
      </trkpt>
      <trkpt lat="45.76192" lon="6.78187">
        <ele>2592.25699968</ele>
        <time>2013-09-22T08:09:56.060Z</time>
      </trkpt>
      <trkpt lat="45.76182" lon="6.78186">
        <ele>2584.09500288</ele>
        <time>2013-09-22T08:10:14.980Z</time>
      </trkpt>
      <trkpt lat="45.76173" lon="6.78183">
        <ele>2580.02000128</ele>
        <time>2013-09-22T08:10:31.080Z</time>
      </trkpt>
      <trkpt lat="45.76164" lon="6.78181">
        <ele>2575.2293126287</ele>
        <time>2013-09-22T08:11:03.080Z</time>
      </trkpt>
      <trkpt lat="45.76157" lon="6.78179">
        <ele>2572</ele>
        <time>2013-09-22T08:11:51.050Z</time>
      </trkpt>
      <trkpt lat="45.76149" lon="6.78175">
        <ele>2569.51399936</ele>
        <time>2013-09-22T08:12:16.060Z</time>
      </trkpt>
      <trkpt lat="45.76159" lon="6.78177">
        <ele>2568.71499776</ele>
        <time>2013-09-22T08:12:51.080Z</time>
      </trkpt>
      <trkpt lat="45.76169" lon="6.7818">
        <ele>2575.65899904</ele>
        <time>2013-09-22T08:13:04.160Z</time>
      </trkpt>
      <trkpt lat="45.76175" lon="6.78178">
        <ele>2579</ele>
        <time>2013-09-22T08:13:27.080Z</time>
      </trkpt>
      <trkpt lat="45.76183" lon="6.78178">
        <ele>2582.3392686901</ele>
        <time>2013-09-22T08:13:52.060Z</time>
      </trkpt>
      <trkpt lat="45.76189" lon="6.78181">
        <ele>2584.9656276977</ele>
        <time>2013-09-22T08:14:01.980Z</time>
      </trkpt>
      <trkpt lat="45.76197" lon="6.78187">
        <ele>2591.97200128</ele>
        <time>2013-09-22T08:14:16.060Z</time>
      </trkpt>
      <trkpt lat="45.76202" lon="6.78187">
        <ele>2595.0027498901</ele>
        <time>2013-09-22T08:15:02.260Z</time>
      </trkpt>
      <trkpt lat="45.76201" lon="6.78187">
        <ele>2594</ele>
        <time>2013-09-22T08:15:55.870Z</time>
      </trkpt>
      <trkpt lat="45.76194" lon="6.78184">
        <ele>2593.27099904</ele>
        <time>2013-09-22T08:16:08.060Z</time>
      </trkpt>
      <trkpt lat="45.76186" lon="6.78183">
        <ele>2588.3250048</ele>
        <time>2013-09-22T08:16:20.980Z</time>
      </trkpt>
      <trkpt lat="45.76177" lon="6.78184">
        <ele>2584.31399936</ele>
        <time>2013-09-22T08:16:34.060Z</time>
      </trkpt>
      <trkpt lat="45.76167" lon="6.78182">
        <ele>2579.8249984</ele>
        <time>2013-09-22T08:16:47.980Z</time>
      </trkpt>
      <trkpt lat="45.76157" lon="6.78179">
        <ele>2573.02800384</ele>
        <time>2013-09-22T08:17:03.060Z</time>
      </trkpt>
      <trkpt lat="45.76147" lon="6.78176">
        <ele>2567.85200128</ele>
        <time>2013-09-22T08:17:21.000Z</time>
      </trkpt>
      <trkpt lat="45.76141" lon="6.78175">
        <ele>2563.78800128</ele>
        <time>2013-09-22T08:17:31.160Z</time>
      </trkpt>
      <trkpt lat="45.76132" lon="6.78171">
        <ele>2558.58800128</ele>
        <time>2013-09-22T08:17:44.160Z</time>
      </trkpt>
      <trkpt lat="45.76123" lon="6.78172">
        <ele>2553.790162249</ele>
        <time>2013-09-22T08:17:58.080Z</time>
      </trkpt>
      <trkpt lat="45.76116" lon="6.7817">
        <ele>2549.268</ele>
        <time>2013-09-22T08:18:08.070Z</time>
      </trkpt>
      <trkpt lat="45.76106" lon="6.78167">
        <ele>2544.82000128</ele>
        <time>2013-09-22T08:18:21.080Z</time>
      </trkpt>
      <trkpt lat="45.76098" lon="6.78166">
        <ele>2539.18800128</ele>
        <time>2013-09-22T08:18:35.160Z</time>
      </trkpt>
      <trkpt lat="45.76092" lon="6.78164">
        <ele>2536.46500096</ele>
        <time>2013-09-22T08:18:44.080Z</time>
      </trkpt>
      <trkpt lat="45.76082" lon="6.78159">
        <ele>2530.28</ele>
        <time>2013-09-22T08:18:59.070Z</time>
      </trkpt>
      <trkpt lat="45.76072" lon="6.78158">
        <ele>2525.312</ele>
        <time>2013-09-22T08:19:14.070Z</time>
      </trkpt>
      <trkpt lat="45.76064" lon="6.78156">
        <ele>2521.7750016</ele>
        <time>2013-09-22T08:19:26.080Z</time>
      </trkpt>
      <trkpt lat="45.76056" lon="6.78157">
        <ele>2516.02000128</ele>
        <time>2013-09-22T08:19:38.080Z</time>
      </trkpt>
      <trkpt lat="45.76047" lon="6.78154">
        <ele>2509.98800128</ele>
        <time>2013-09-22T08:19:53.160Z</time>
      </trkpt>
      <trkpt lat="45.76039" lon="6.78159">
        <ele>2502.368</ele>
        <time>2013-09-22T08:20:11.070Z</time>
      </trkpt>
      <trkpt lat="45.76041" lon="6.78169">
        <ele>2500.78800128</ele>
        <time>2013-09-22T08:20:16.160Z</time>
      </trkpt>
      <trkpt lat="45.7604" lon="6.78181">
        <ele>2498.38800128</ele>
        <time>2013-09-22T08:20:22.160Z</time>
      </trkpt>
      <trkpt lat="45.76043" lon="6.7819">
        <ele>2495.18800128</ele>
        <time>2013-09-22T08:20:30.160Z</time>
      </trkpt>
      <trkpt lat="45.76045" lon="6.78198">
        <ele>2493.98800128</ele>
        <time>2013-09-22T08:20:33.160Z</time>
      </trkpt>
      <trkpt lat="45.76043" lon="6.78211">
        <ele>2492.6597429366</ele>
        <time>2013-09-22T08:20:39.070Z</time>
      </trkpt>
      <trkpt lat="45.76041" lon="6.78224">
        <ele>2491.9757330559</ele>
        <time>2013-09-22T08:20:45.980Z</time>
      </trkpt>
      <trkpt lat="45.7604" lon="6.78236">
        <ele>2490.66600064</ele>
        <time>2013-09-22T08:20:58.970Z</time>
      </trkpt>
      <trkpt lat="45.7604" lon="6.78245">
        <ele>2490</ele>
        <time>2013-09-22T08:21:25.060Z</time>
      </trkpt>
      <trkpt lat="45.76039" lon="6.78254">
        <ele>2490</ele>
        <time>2013-09-22T08:21:37.980Z</time>
      </trkpt>
      <trkpt lat="45.76042" lon="6.78263">
        <ele>2490</ele>
        <time>2013-09-22T08:21:50.000Z</time>
      </trkpt>
      <trkpt lat="45.76039" lon="6.78275">
        <ele>2489.256</ele>
        <time>2013-09-22T08:22:03.070Z</time>
      </trkpt>
      <trkpt lat="45.76029" lon="6.78279">
        <ele>2486.67099904</ele>
        <time>2013-09-22T08:22:20.060Z</time>
      </trkpt>
      <trkpt lat="45.76018" lon="6.78277">
        <ele>2481.8249984</ele>
        <time>2013-09-22T08:22:31.980Z</time>
      </trkpt>
      <trkpt lat="45.76014" lon="6.78286">
        <ele>2477.06000384</ele>
        <time>2013-09-22T08:22:42.980Z</time>
      </trkpt>
      <trkpt lat="45.76017" lon="6.78297">
        <ele>2476</ele>
        <time>2013-09-22T08:22:47.080Z</time>
      </trkpt>
      <trkpt lat="45.76024" lon="6.78303">
        <ele>2476</ele>
        <time>2013-09-22T08:22:51.080Z</time>
      </trkpt>
      <trkpt lat="45.76024" lon="6.78316">
        <ele>2475.89400064</ele>
        <time>2013-09-22T08:22:56.160Z</time>
      </trkpt>
      <trkpt lat="45.76026" lon="6.78326">
        <ele>2474.4401578033</ele>
        <time>2013-09-22T08:23:30.080Z</time>
      </trkpt>
      <trkpt lat="45.76029" lon="6.78337">
        <ele>2474.9347174885</ele>
        <time>2013-09-22T08:23:35.080Z</time>
      </trkpt>
      <trkpt lat="45.76026" lon="6.78346">
        <ele>2475.6309405479</ele>
        <time>2013-09-22T08:23:41.980Z</time>
      </trkpt>
      <trkpt lat="45.7602" lon="6.78353">
        <ele>2477.62899712</ele>
        <time>2013-09-22T08:23:51.060Z</time>
      </trkpt>
      <trkpt lat="45.76022" lon="6.78364">
        <ele>2479.68599808</ele>
        <time>2013-09-22T08:23:59.060Z</time>
      </trkpt>
      <trkpt lat="45.7602" lon="6.78375">
        <ele>2480.88599808</ele>
        <time>2013-09-22T08:24:05.060Z</time>
      </trkpt>
      <trkpt lat="45.76016" lon="6.78388">
        <ele>2481</ele>
        <time>2013-09-22T08:24:11.060Z</time>
      </trkpt>
      <trkpt lat="45.76006" lon="6.78395">
        <ele>2481</ele>
        <time>2013-09-22T08:24:18.060Z</time>
      </trkpt>
      <trkpt lat="45.76002" lon="6.78406">
        <ele>2481</ele>
        <time>2013-09-22T08:24:23.060Z</time>
      </trkpt>
      <trkpt lat="45.76005" lon="6.7842">
        <ele>2482.46999808</ele>
        <time>2013-09-22T08:24:32.980Z</time>
      </trkpt>
      <trkpt lat="45.76008" lon="6.78433">
        <ele>2483.14299904</ele>
        <time>2013-09-22T08:24:37.060Z</time>
      </trkpt>
      <trkpt lat="45.7601" lon="6.78444">
        <ele>2484.66999808</ele>
        <time>2013-09-22T08:24:58.980Z</time>
      </trkpt>
      <trkpt lat="45.76014" lon="6.78454">
        <ele>2486</ele>
        <time>2013-09-22T08:25:07.970Z</time>
      </trkpt>
      <trkpt lat="45.7602" lon="6.78461">
        <ele>2486.272</ele>
        <time>2013-09-22T08:25:16.990Z</time>
      </trkpt>
      <trkpt lat="45.76025" lon="6.78469">
        <ele>2488.15899904</ele>
        <time>2013-09-22T08:25:26.160Z</time>
      </trkpt>
      <trkpt lat="45.76031" lon="6.78476">
        <ele>2491.43499904</ele>
        <time>2013-09-22T08:25:37.080Z</time>
      </trkpt>
      <trkpt lat="45.76034" lon="6.78485">
        <ele>2494.68100096</ele>
        <time>2013-09-22T08:25:47.900Z</time>
      </trkpt>
      <trkpt lat="45.76039" lon="6.78493">
        <ele>2497.48600064</ele>
        <time>2013-09-22T08:25:58.060Z</time>
      </trkpt>
      <trkpt lat="45.7604" lon="6.78502">
        <ele>2499</ele>
        <time>2013-09-22T08:26:07.060Z</time>
      </trkpt>
      <trkpt lat="45.76037" lon="6.7851">
        <ele>2499</ele>
        <time>2013-09-22T08:26:15.060Z</time>
      </trkpt>
      <trkpt lat="45.76038" lon="6.78517">
        <ele>2500</ele>
        <time>2013-09-22T08:26:26.980Z</time>
      </trkpt>
      <trkpt lat="45.7604" lon="6.78524">
        <ele>2500</ele>
        <time>2013-09-22T08:26:33.980Z</time>
      </trkpt>
      <trkpt lat="45.76038" lon="6.78532">
        <ele>2499.05700096</ele>
        <time>2013-09-22T08:26:45.060Z</time>
      </trkpt>
      <trkpt lat="45.7604" lon="6.7854">
        <ele>2498.65700096</ele>
        <time>2013-09-22T08:26:49.060Z</time>
      </trkpt>
      <trkpt lat="45.76044" lon="6.78546">
        <ele>2498.96799744</ele>
        <time>2013-09-22T08:26:58.050Z</time>
      </trkpt>
      <trkpt lat="45.76049" lon="6.78556">
        <ele>2502.26799872</ele>
        <time>2013-09-22T08:27:06.970Z</time>
      </trkpt>
      <trkpt lat="45.76053" lon="6.78561">
        <ele>2504.03699968</ele>
        <time>2013-09-22T08:27:16.000Z</time>
      </trkpt>
      <trkpt lat="45.76056" lon="6.78567">
        <ele>2505</ele>
        <time>2013-09-22T08:27:26.070Z</time>
      </trkpt>
      <trkpt lat="45.76059" lon="6.78577">
        <ele>2506.12699904</ele>
        <time>2013-09-22T08:27:46.900Z</time>
      </trkpt>
      <trkpt lat="45.76055" lon="6.7859">
        <ele>2509.20199808</ele>
        <time>2013-09-22T08:28:22.970Z</time>
      </trkpt>
      <trkpt lat="45.76059" lon="6.78602">
        <ele>2511.53399936</ele>
        <time>2013-09-22T08:28:40.970Z</time>
      </trkpt>
      <trkpt lat="45.76054" lon="6.78615">
        <ele>2509.78800128</ele>
        <time>2013-09-22T08:29:56.160Z</time>
      </trkpt>
      <trkpt lat="45.76044" lon="6.78621">
        <ele>2506</ele>
        <time>2013-09-22T08:30:12.080Z</time>
      </trkpt>
      <trkpt lat="45.7604" lon="6.78626">
        <ele>2506.72699904</ele>
        <time>2013-09-22T08:30:22.900Z</time>
      </trkpt>
      <trkpt lat="45.76042" lon="6.78637">
        <ele>2510.10199808</ele>
        <time>2013-09-22T08:30:35.970Z</time>
      </trkpt>
      <trkpt lat="45.76048" lon="6.78644">
        <ele>2513.71399808</ele>
        <time>2013-09-22T08:30:48.010Z</time>
      </trkpt>
      <trkpt lat="45.76053" lon="6.78655">
        <ele>2518</ele>
        <time>2013-09-22T08:31:05.970Z</time>
      </trkpt>
      <trkpt lat="45.7606" lon="6.78665">
        <ele>2521.53599744</ele>
        <time>2013-09-22T08:31:26.970Z</time>
      </trkpt>
      <trkpt lat="45.76069" lon="6.78675">
        <ele>2527.28999936</ele>
        <time>2013-09-22T08:31:47.080Z</time>
      </trkpt>
      <trkpt lat="45.76078" lon="6.78677">
        <ele>2533.2489959839</ele>
        <time>2013-09-22T08:32:06.910Z</time>
      </trkpt>
      <trkpt lat="45.76084" lon="6.78684">
        <ele>2535.66999808</ele>
        <time>2013-09-22T08:32:18.980Z</time>
      </trkpt>
      <trkpt lat="45.76091" lon="6.78693">
        <ele>2538.88599808</ele>
        <time>2013-09-22T08:32:35.060Z</time>
      </trkpt>
      <trkpt lat="45.76096" lon="6.78705">
        <ele>2548.4854837284</ele>
        <time>2013-09-22T08:33:23.060Z</time>
      </trkpt>
      <trkpt lat="45.76086" lon="6.7871">
        <ele>2550.76499968</ele>
        <time>2013-09-22T08:33:37.980Z</time>
      </trkpt>
      <trkpt lat="45.76078" lon="6.78715">
        <ele>2551.12699904</ele>
        <time>2013-09-22T08:34:06.900Z</time>
      </trkpt>
      <trkpt lat="45.76068" lon="6.78712">
        <ele>2552.07000064</ele>
        <time>2013-09-22T08:34:15.980Z</time>
      </trkpt>
      <trkpt lat="45.76058" lon="6.78707">
        <ele>2554.14299904</ele>
        <time>2013-09-22T08:34:27.060Z</time>
      </trkpt>
      <trkpt lat="45.76048" lon="6.78702">
        <ele>2554.76499968</ele>
        <time>2013-09-22T08:34:37.980Z</time>
      </trkpt>
      <trkpt lat="45.76041" lon="6.78698">
        <ele>2553.7659359363</ele>
        <time>2013-09-22T08:34:47.980Z</time>
      </trkpt>
      <trkpt lat="45.76035" lon="6.78707">
        <ele>2551.93399936</ele>
        <time>2013-09-22T08:35:24.970Z</time>
      </trkpt>
      <trkpt lat="45.76027" lon="6.78707">
        <ele>2550.33000192</ele>
        <time>2013-09-22T08:35:38.980Z</time>
      </trkpt>
      <trkpt lat="45.76023" lon="6.787">
        <ele>2547.67099904</ele>
        <time>2013-09-22T08:35:50.060Z</time>
      </trkpt>
      <trkpt lat="45.7602" lon="6.78714">
        <ele>2542.06300032</ele>
        <time>2013-09-22T08:36:15.000Z</time>
      </trkpt>
      <trkpt lat="45.76016" lon="6.78729">
        <ele>2542</ele>
        <time>2013-09-22T08:36:23.160Z</time>
      </trkpt>
      <trkpt lat="45.76016" lon="6.78744">
        <ele>2542.90599936</ele>
        <time>2013-09-22T08:36:30.160Z</time>
      </trkpt>
      <trkpt lat="45.76014" lon="6.78759">
        <ele>2544</ele>
        <time>2013-09-22T08:36:37.160Z</time>
      </trkpt>
      <trkpt lat="45.7601" lon="6.78773">
        <ele>2544</ele>
        <time>2013-09-22T08:36:44.160Z</time>
      </trkpt>
      <trkpt lat="45.76003" lon="6.78784">
        <ele>2544</ele>
        <time>2013-09-22T08:36:51.160Z</time>
      </trkpt>
      <trkpt lat="45.75992" lon="6.78781">
        <ele>2543.26500096</ele>
        <time>2013-09-22T08:36:58.080Z</time>
      </trkpt>
      <trkpt lat="45.75986" lon="6.78788">
        <ele>2541.46500096</ele>
        <time>2013-09-22T08:37:04.080Z</time>
      </trkpt>
      <trkpt lat="45.75982" lon="6.78794">
        <ele>2541</ele>
        <time>2013-09-22T08:37:11.160Z</time>
      </trkpt>
      <trkpt lat="45.75977" lon="6.78801">
        <ele>2541</ele>
        <time>2013-09-22T08:37:15.160Z</time>
      </trkpt>
      <trkpt lat="45.75974" lon="6.78809">
        <ele>2540.34700032</ele>
        <time>2013-09-22T08:37:22.160Z</time>
      </trkpt>
      <trkpt lat="45.75969" lon="6.78818">
        <ele>2538.94100096</ele>
        <time>2013-09-22T08:37:29.160Z</time>
      </trkpt>
      <trkpt lat="45.75964" lon="6.78823">
        <ele>2534.7500009562</ele>
        <time>2013-09-22T08:37:43.160Z</time>
      </trkpt>
      <trkpt lat="45.7596" lon="6.78831">
        <ele>2533.6576308434</ele>
        <time>2013-09-22T08:37:49.080Z</time>
      </trkpt>
      <trkpt lat="45.75952" lon="6.7884">
        <ele>2532.82000128</ele>
        <time>2013-09-22T08:37:56.080Z</time>
      </trkpt>
      <trkpt lat="45.75947" lon="6.7885">
        <ele>2530.424</ele>
        <time>2013-09-22T08:38:02.070Z</time>
      </trkpt>
      <trkpt lat="45.75944" lon="6.78858">
        <ele>2528.42000128</ele>
        <time>2013-09-22T08:38:07.080Z</time>
      </trkpt>
      <trkpt lat="45.7594" lon="6.78867">
        <ele>2524.09400064</ele>
        <time>2013-09-22T08:38:20.160Z</time>
      </trkpt>
      <trkpt lat="45.75933" lon="6.78871">
        <ele>2522.34700032</ele>
        <time>2013-09-22T08:38:32.160Z</time>
      </trkpt>
      <trkpt lat="45.75923" lon="6.78867">
        <ele>2519.66500096</ele>
        <time>2013-09-22T08:38:50.080Z</time>
      </trkpt>
      <trkpt lat="45.75916" lon="6.78878">
        <ele>2516.3700032</ele>
        <time>2013-09-22T08:38:58.890Z</time>
      </trkpt>
      <trkpt lat="45.75912" lon="6.78889">
        <ele>2513</ele>
        <time>2013-09-22T08:39:09.000Z</time>
      </trkpt>
      <trkpt lat="45.75914" lon="6.78899">
        <ele>2513.45899904</ele>
        <time>2013-09-22T08:39:17.160Z</time>
      </trkpt>
      <trkpt lat="45.75914" lon="6.78911">
        <ele>2516</ele>
        <time>2013-09-22T08:39:35.070Z</time>
      </trkpt>
      <trkpt lat="45.75908" lon="6.78925">
        <ele>2517.50599936</ele>
        <time>2013-09-22T08:39:43.160Z</time>
      </trkpt>
      <trkpt lat="45.75906" lon="6.78937">
        <ele>2518</ele>
        <time>2013-09-22T08:39:50.080Z</time>
      </trkpt>
      <trkpt lat="45.75895" lon="6.78942">
        <ele>2518.444</ele>
        <time>2013-09-22T08:40:00.070Z</time>
      </trkpt>
      <trkpt lat="45.75884" lon="6.78946">
        <ele>2519.13499904</ele>
        <time>2013-09-22T08:40:06.080Z</time>
      </trkpt>
      <trkpt lat="45.75872" lon="6.78946">
        <ele>2520.93499904</ele>
        <time>2013-09-22T08:40:12.080Z</time>
      </trkpt>
      <trkpt lat="45.75861" lon="6.78948">
        <ele>2522.30599936</ele>
        <time>2013-09-22T08:40:17.160Z</time>
      </trkpt>
      <trkpt lat="45.75851" lon="6.78951">
        <ele>2523.50599936</ele>
        <time>2013-09-22T08:40:23.160Z</time>
      </trkpt>
      <trkpt lat="45.75846" lon="6.78965">
        <ele>2525.6758353954</ele>
        <time>2013-09-22T08:40:34.160Z</time>
      </trkpt>
      <trkpt lat="45.75843" lon="6.78978">
        <ele>2525.6670060011</ele>
        <time>2013-09-22T08:40:39.080Z</time>
      </trkpt>
      <trkpt lat="45.75838" lon="6.78991">
        <ele>2525.056008436</ele>
        <time>2013-09-22T08:40:45.080Z</time>
      </trkpt>
      <trkpt lat="45.75832" lon="6.79004">
        <ele>2522.78800128</ele>
        <time>2013-09-22T08:40:51.160Z</time>
      </trkpt>
      <trkpt lat="45.75826" lon="6.79015">
        <ele>2519.048</ele>
        <time>2013-09-22T08:40:58.070Z</time>
      </trkpt>
      <trkpt lat="45.75817" lon="6.79019">
        <ele>2512.54599936</ele>
        <time>2013-09-22T08:41:07.900Z</time>
      </trkpt>
      <trkpt lat="45.75817" lon="6.79034">
        <ele>2511.14600192</ele>
        <time>2013-09-22T08:41:14.900Z</time>
      </trkpt>
      <trkpt lat="45.75818" lon="6.79048">
        <ele>2509.51400192</ele>
        <time>2013-09-22T08:41:23.060Z</time>
      </trkpt>
      <trkpt lat="45.75809" lon="6.79051">
        <ele>2507.71399936</ele>
        <time>2013-09-22T08:41:32.060Z</time>
      </trkpt>
      <trkpt lat="45.75799" lon="6.79055">
        <ele>2508.00199808</ele>
        <time>2013-09-22T08:41:38.970Z</time>
      </trkpt>
      <trkpt lat="45.7579" lon="6.79063">
        <ele>2509.50199808</ele>
        <time>2013-09-22T08:41:43.970Z</time>
      </trkpt>
      <trkpt lat="45.75785" lon="6.79075">
        <ele>2509.46600064</ele>
        <time>2013-09-22T08:41:50.970Z</time>
      </trkpt>
      <trkpt lat="45.75778" lon="6.79086">
        <ele>2507.09800192</ele>
        <time>2013-09-22T08:42:01.970Z</time>
      </trkpt>
      <trkpt lat="45.75774" lon="6.791">
        <ele>2506.84300032</ele>
        <time>2013-09-22T08:42:14.060Z</time>
      </trkpt>
      <trkpt lat="45.75768" lon="6.79112">
        <ele>2507</ele>
        <time>2013-09-22T08:42:21.060Z</time>
      </trkpt>
      <trkpt lat="45.75761" lon="6.79123">
        <ele>2506.45700096</ele>
        <time>2013-09-22T08:42:31.060Z</time>
      </trkpt>
      <trkpt lat="45.75756" lon="6.79135">
        <ele>2505</ele>
        <time>2013-09-22T08:42:46.980Z</time>
      </trkpt>
      <trkpt lat="45.75747" lon="6.79141">
        <ele>2504.03699968</ele>
        <time>2013-09-22T08:43:06.000Z</time>
      </trkpt>
      <trkpt lat="45.7574" lon="6.79147">
        <ele>2505.6503980877</ele>
        <time>2013-09-22T08:43:22.160Z</time>
      </trkpt>
      <trkpt lat="45.75731" lon="6.79154">
        <ele>2512.9439439619</ele>
        <time>2013-09-22T08:43:55.070Z</time>
      </trkpt>
      <trkpt lat="45.75721" lon="6.79154">
        <ele>2516.68600064</ele>
        <time>2013-09-22T08:45:04.060Z</time>
      </trkpt>
      <trkpt lat="45.7571" lon="6.79153">
        <ele>2517.7412583389</ele>
        <time>2013-09-22T08:45:23.050Z</time>
      </trkpt>
      <trkpt lat="45.75705" lon="6.79163">
        <ele>2524.032</ele>
        <time>2013-09-22T08:45:39.070Z</time>
      </trkpt>
      <trkpt lat="45.7571" lon="6.79171">
        <ele>2527.932</ele>
        <time>2013-09-22T08:45:52.070Z</time>
      </trkpt>
      <trkpt lat="45.75717" lon="6.79175">
        <ele>2533.5338645418</ele>
        <time>2013-09-22T08:46:10.990Z</time>
      </trkpt>
      <trkpt lat="45.75722" lon="6.79188">
        <ele>2536.46799872</ele>
        <time>2013-09-22T08:46:27.970Z</time>
      </trkpt>
      <trkpt lat="45.75725" lon="6.79197">
        <ele>2539.86799872</ele>
        <time>2013-09-22T08:46:44.970Z</time>
      </trkpt>
      <trkpt lat="45.75731" lon="6.79203">
        <ele>2545.77199616</ele>
        <time>2013-09-22T08:47:05.060Z</time>
      </trkpt>
      <trkpt lat="45.75732" lon="6.79215">
        <ele>2548.26799872</ele>
        <time>2013-09-22T08:47:16.970Z</time>
      </trkpt>
      <trkpt lat="45.75731" lon="6.79227">
        <ele>2550.23500032</ele>
        <time>2013-09-22T08:47:27.980Z</time>
      </trkpt>
      <trkpt lat="45.75731" lon="6.79241">
        <ele>2551.8651345023</ele>
        <time>2013-09-22T08:47:39.960Z</time>
      </trkpt>
      <trkpt lat="45.75733" lon="6.79254">
        <ele>2554.0850834562</ele>
        <time>2013-09-22T08:47:51.060Z</time>
      </trkpt>
      <trkpt lat="45.75731" lon="6.79268">
        <ele>2555.64300032</ele>
        <time>2013-09-22T08:48:02.060Z</time>
      </trkpt>
      <trkpt lat="45.7573" lon="6.79283">
        <ele>2558.22899712</ele>
        <time>2013-09-22T08:48:13.060Z</time>
      </trkpt>
      <trkpt lat="45.75725" lon="6.79297">
        <ele>2561</ele>
        <time>2013-09-22T08:48:26.070Z</time>
      </trkpt>
      <trkpt lat="45.7572" lon="6.7931">
        <ele>2561.50599936</ele>
        <time>2013-09-22T08:48:38.160Z</time>
      </trkpt>
      <trkpt lat="45.75719" lon="6.79319">
        <ele>2563.088</ele>
        <time>2013-09-22T08:48:46.070Z</time>
      </trkpt>
      <trkpt lat="45.75719" lon="6.7933">
        <ele>2564.888</ele>
        <time>2013-09-22T08:48:55.070Z</time>
      </trkpt>
      <trkpt lat="45.75722" lon="6.79338">
        <ele>2566.6992025498</ele>
        <time>2013-09-22T08:49:04.160Z</time>
      </trkpt>
      <trkpt lat="45.75724" lon="6.79348">
        <ele>2568.9249233474</ele>
        <time>2013-09-22T08:49:12.080Z</time>
      </trkpt>
      <trkpt lat="45.75723" lon="6.79359">
        <ele>2570.2427276205</ele>
        <time>2013-09-22T08:49:18.080Z</time>
      </trkpt>
      <trkpt lat="45.75727" lon="6.79368">
        <ele>2570.9448341648</ele>
        <time>2013-09-22T08:49:25.080Z</time>
      </trkpt>
      <trkpt lat="45.75729" lon="6.79378">
        <ele>2571.85299968</ele>
        <time>2013-09-22T08:49:34.160Z</time>
      </trkpt>
      <trkpt lat="45.75732" lon="6.79387">
        <ele>2573.35899904</ele>
        <time>2013-09-22T08:49:40.160Z</time>
      </trkpt>
      <trkpt lat="45.75734" lon="6.79396">
        <ele>2575.30599936</ele>
        <time>2013-09-22T08:49:47.160Z</time>
      </trkpt>
      <trkpt lat="45.75737" lon="6.79405">
        <ele>2577.08600064</ele>
        <time>2013-09-22T08:49:56.060Z</time>
      </trkpt>
      <trkpt lat="45.75738" lon="6.79415">
        <ele>2578.48599808</ele>
        <time>2013-09-22T08:50:03.060Z</time>
      </trkpt>
      <trkpt lat="45.7574" lon="6.79424">
        <ele>2580.62899712</ele>
        <time>2013-09-22T08:50:11.060Z</time>
      </trkpt>
      <trkpt lat="45.75745" lon="6.79435">
        <ele>2582.33699968</ele>
        <time>2013-09-22T08:50:19.000Z</time>
      </trkpt>
      <trkpt lat="45.75748" lon="6.79443">
        <ele>2583.488</ele>
        <time>2013-09-22T08:50:28.070Z</time>
      </trkpt>
      <trkpt lat="45.75752" lon="6.79451">
        <ele>2585.30599936</ele>
        <time>2013-09-22T08:50:37.160Z</time>
      </trkpt>
      <trkpt lat="45.75754" lon="6.79458">
        <ele>2586.90599936</ele>
        <time>2013-09-22T08:50:45.160Z</time>
      </trkpt>
      <trkpt lat="45.75757" lon="6.79466">
        <ele>2588.50599936</ele>
        <time>2013-09-22T08:50:53.160Z</time>
      </trkpt>
      <trkpt lat="45.75762" lon="6.79472">
        <ele>2590.2649984</ele>
        <time>2013-09-22T08:50:58.160Z</time>
      </trkpt>
      <trkpt lat="45.75766" lon="6.79478">
        <ele>2593.7649984</ele>
        <time>2013-09-22T08:51:05.160Z</time>
      </trkpt>
      <trkpt lat="45.7577" lon="6.79488">
        <ele>2596.288</ele>
        <time>2013-09-22T08:51:17.070Z</time>
      </trkpt>
      <trkpt lat="45.75772" lon="6.79498">
        <ele>2597.68999936</ele>
        <time>2013-09-22T08:51:24.080Z</time>
      </trkpt>
      <trkpt lat="45.75775" lon="6.79504">
        <ele>2598.744</ele>
        <time>2013-09-22T08:51:33.070Z</time>
      </trkpt>
      <trkpt lat="45.75779" lon="6.79511">
        <ele>2599.70799872</ele>
        <time>2013-09-22T08:51:39.170Z</time>
      </trkpt>
      <trkpt lat="45.75784" lon="6.7952">
        <ele>2601.08600064</ele>
        <time>2013-09-22T08:52:06.060Z</time>
      </trkpt>
      <trkpt lat="45.75789" lon="6.79525">
        <ele>2602.28600064</ele>
        <time>2013-09-22T08:52:12.060Z</time>
      </trkpt>
      <trkpt lat="45.75794" lon="6.79532">
        <ele>2603.73499904</ele>
        <time>2013-09-22T08:52:18.080Z</time>
      </trkpt>
      <trkpt lat="45.758" lon="6.79539">
        <ele>2605.83499904</ele>
        <time>2013-09-22T08:52:25.080Z</time>
      </trkpt>
      <trkpt lat="45.75805" lon="6.79549">
        <ele>2606</ele>
        <time>2013-09-22T08:52:31.160Z</time>
      </trkpt>
      <trkpt lat="45.75809" lon="6.7956">
        <ele>2605.424</ele>
        <time>2013-09-22T08:52:37.070Z</time>
      </trkpt>
      <trkpt lat="45.75812" lon="6.79573">
        <ele>2603.424</ele>
        <time>2013-09-22T08:52:42.070Z</time>
      </trkpt>
      <trkpt lat="45.75812" lon="6.79585">
        <ele>2601.84700032</ele>
        <time>2013-09-22T08:52:47.160Z</time>
      </trkpt>
      <trkpt lat="45.75811" lon="6.79597">
        <ele>2601.34700032</ele>
        <time>2013-09-22T08:52:52.160Z</time>
      </trkpt>
      <trkpt lat="45.75808" lon="6.79609">
        <ele>2600.54100096</ele>
        <time>2013-09-22T08:52:57.160Z</time>
      </trkpt>
      <trkpt lat="45.75806" lon="6.79621">
        <ele>2599.04100096</ele>
        <time>2013-09-22T08:53:02.160Z</time>
      </trkpt>
      <trkpt lat="45.75797" lon="6.79614">
        <ele>2595.02000128</ele>
        <time>2013-09-22T08:53:13.080Z</time>
      </trkpt>
      <trkpt lat="45.7579" lon="6.79616">
        <ele>2589.8249984</ele>
        <time>2013-09-22T08:53:23.980Z</time>
      </trkpt>
      <trkpt lat="45.75787" lon="6.79626">
        <ele>2587.2850048</ele>
        <time>2013-09-22T08:53:29.060Z</time>
      </trkpt>
      <trkpt lat="45.75779" lon="6.79623">
        <ele>2581.3300032</ele>
        <time>2013-09-22T08:53:40.970Z</time>
      </trkpt>
      <trkpt lat="45.75776" lon="6.7963">
        <ele>2577.29899776</ele>
        <time>2013-09-22T08:53:48.060Z</time>
      </trkpt>
      <trkpt lat="45.75773" lon="6.79639">
        <ele>2573.79900672</ele>
        <time>2013-09-22T08:53:53.060Z</time>
      </trkpt>
      <trkpt lat="45.7577" lon="6.79648">
        <ele>2571.52999936</ele>
        <time>2013-09-22T08:53:57.980Z</time>
      </trkpt>
      <trkpt lat="45.75768" lon="6.79659">
        <ele>2570.32999936</ele>
        <time>2013-09-22T08:54:03.980Z</time>
      </trkpt>
      <trkpt lat="45.75765" lon="6.79672">
        <ele>2567.42799872</ele>
        <time>2013-09-22T08:54:12.060Z</time>
      </trkpt>
      <trkpt lat="45.75758" lon="6.79679">
        <ele>2564.93000192</ele>
        <time>2013-09-22T08:54:20.980Z</time>
      </trkpt>
      <trkpt lat="45.75751" lon="6.79683">
        <ele>2560.9436217785</ele>
        <time>2013-09-22T08:54:40.970Z</time>
      </trkpt>
      <trkpt lat="45.75748" lon="6.79689">
        <ele>2560.1523262822</ele>
        <time>2013-09-22T08:54:44.970Z</time>
      </trkpt>
      <trkpt lat="45.75739" lon="6.79697">
        <ele>2554.34100096</ele>
        <time>2013-09-22T08:55:01.160Z</time>
      </trkpt>
      <trkpt lat="45.75729" lon="6.79695">
        <ele>2550.31899904</ele>
        <time>2013-09-22T08:55:17.900Z</time>
      </trkpt>
      <trkpt lat="45.7572" lon="6.79688">
        <ele>2546.66400256</ele>
        <time>2013-09-22T08:55:28.970Z</time>
      </trkpt>
      <trkpt lat="45.75714" lon="6.79679">
        <ele>2540.66400256</ele>
        <time>2013-09-22T08:55:43.970Z</time>
      </trkpt>
      <trkpt lat="45.75709" lon="6.79679">
        <ele>2538.67099904</ele>
        <time>2013-09-22T08:55:50.060Z</time>
      </trkpt>
      <trkpt lat="45.75701" lon="6.79671">
        <ele>2533.46400256</ele>
        <time>2013-09-22T08:56:06.970Z</time>
      </trkpt>
      <trkpt lat="45.75691" lon="6.79666">
        <ele>2527.97100288</ele>
        <time>2013-09-22T08:56:29.060Z</time>
      </trkpt>
      <trkpt lat="45.75687" lon="6.79666">
        <ele>2525.93200128</ele>
        <time>2013-09-22T08:56:35.970Z</time>
      </trkpt>
      <trkpt lat="45.75681" lon="6.79667">
        <ele>2524.712</ele>
        <time>2013-09-22T08:56:42.070Z</time>
      </trkpt>
      <trkpt lat="45.75678" lon="6.79677">
        <ele>2525.25899904</ele>
        <time>2013-09-22T08:57:03.160Z</time>
      </trkpt>
      <trkpt lat="45.75678" lon="6.79691">
        <ele>2526.888</ele>
        <time>2013-09-22T08:57:10.070Z</time>
      </trkpt>
      <trkpt lat="45.75678" lon="6.79705">
        <ele>2527.888</ele>
        <time>2013-09-22T08:57:15.070Z</time>
      </trkpt>
      <trkpt lat="45.75675" lon="6.79719">
        <ele>2528</ele>
        <time>2013-09-22T08:57:20.160Z</time>
      </trkpt>
      <trkpt lat="45.75676" lon="6.79731">
        <ele>2528</ele>
        <time>2013-09-22T08:57:26.160Z</time>
      </trkpt>
      <trkpt lat="45.75676" lon="6.79742">
        <ele>2528</ele>
        <time>2013-09-22T08:57:33.160Z</time>
      </trkpt>
      <trkpt lat="45.75676" lon="6.79757">
        <ele>2528.6435739759</ele>
        <time>2013-09-22T08:57:42.080Z</time>
      </trkpt>
      <trkpt lat="45.75669" lon="6.79767">
        <ele>2528.568</ele>
        <time>2013-09-22T08:57:57.070Z</time>
      </trkpt>
      <trkpt lat="45.75662" lon="6.79774">
        <ele>2522.912</ele>
        <time>2013-09-22T08:58:21.070Z</time>
      </trkpt>
      <trkpt lat="45.75664" lon="6.79786">
        <ele>2520.04100096</ele>
        <time>2013-09-22T08:58:32.160Z</time>
      </trkpt>
      <trkpt lat="45.75665" lon="6.79799">
        <ele>2518.34700032</ele>
        <time>2013-09-22T08:58:42.160Z</time>
      </trkpt>
      <trkpt lat="45.75663" lon="6.79813">
        <ele>2517.73200128</ele>
        <time>2013-09-22T08:58:46.970Z</time>
      </trkpt>
      <trkpt lat="45.7566" lon="6.79827">
        <ele>2516.73200128</ele>
        <time>2013-09-22T08:58:51.970Z</time>
      </trkpt>
      <trkpt lat="45.75656" lon="6.79838">
        <ele>2515.59500288</ele>
        <time>2013-09-22T08:58:56.980Z</time>
      </trkpt>
      <trkpt lat="45.75654" lon="6.79848">
        <ele>2513.49800192</ele>
        <time>2013-09-22T08:59:03.970Z</time>
      </trkpt>
      <trkpt lat="45.75652" lon="6.79857">
        <ele>2513.88600064</ele>
        <time>2013-09-22T08:59:10.060Z</time>
      </trkpt>
      <trkpt lat="45.7565" lon="6.79867">
        <ele>2515.47599872</ele>
        <time>2013-09-22T08:59:18.010Z</time>
      </trkpt>
      <trkpt lat="45.75651" lon="6.79875">
        <ele>2517.88999936</ele>
        <time>2013-09-22T08:59:30.080Z</time>
      </trkpt>
      <trkpt lat="45.75655" lon="6.79881">
        <ele>2518.88999936</ele>
        <time>2013-09-22T08:59:35.080Z</time>
      </trkpt>
      <trkpt lat="45.75661" lon="6.79891">
        <ele>2519.90599936</ele>
        <time>2013-09-22T08:59:40.160Z</time>
      </trkpt>
      <trkpt lat="45.75665" lon="6.79902">
        <ele>2520.90599936</ele>
        <time>2013-09-22T08:59:45.160Z</time>
      </trkpt>
      <trkpt lat="45.75666" lon="6.79913">
        <ele>2521</ele>
        <time>2013-09-22T08:59:50.150Z</time>
      </trkpt>
      <trkpt lat="45.75668" lon="6.7992">
        <ele>2521.08999936</ele>
        <time>2013-09-22T08:59:56.080Z</time>
      </trkpt>
      <trkpt lat="45.75672" lon="6.79929">
        <ele>2522.488</ele>
        <time>2013-09-22T09:00:03.070Z</time>
      </trkpt>
      <trkpt lat="45.75673" lon="6.79939">
        <ele>2523.88999936</ele>
        <time>2013-09-22T09:00:10.080Z</time>
      </trkpt>
      <trkpt lat="45.75676" lon="6.79948">
        <ele>2525.5039834263</ele>
        <time>2013-09-22T09:00:18.160Z</time>
      </trkpt>
      <trkpt lat="45.75678" lon="6.79958">
        <ele>2526.6992025498</ele>
        <time>2013-09-22T09:00:24.160Z</time>
      </trkpt>
      <trkpt lat="45.75679" lon="6.79966">
        <ele>2527.8614451406</ele>
        <time>2013-09-22T09:00:29.960Z</time>
      </trkpt>
      <trkpt lat="45.75679" lon="6.79978">
        <ele>2529.34299904</ele>
        <time>2013-09-22T09:00:39.060Z</time>
      </trkpt>
      <trkpt lat="45.75678" lon="6.79987">
        <ele>2529.94299904</ele>
        <time>2013-09-22T09:00:45.060Z</time>
      </trkpt>
      <trkpt lat="45.75678" lon="6.79997">
        <ele>2531.92900096</ele>
        <time>2013-09-22T09:00:52.060Z</time>
      </trkpt>
      <trkpt lat="45.75678" lon="6.80008">
        <ele>2533.66799872</ele>
        <time>2013-09-22T09:00:58.970Z</time>
      </trkpt>
      <trkpt lat="45.75678" lon="6.80017">
        <ele>2534.86799872</ele>
        <time>2013-09-22T09:01:04.970Z</time>
      </trkpt>
      <trkpt lat="45.75679" lon="6.80029">
        <ele>2536.88399872</ele>
        <time>2013-09-22T09:01:15.050Z</time>
      </trkpt>
      <trkpt lat="45.75679" lon="6.80041">
        <ele>2539.52900096</ele>
        <time>2013-09-22T09:01:24.060Z</time>
      </trkpt>
      <trkpt lat="45.75677" lon="6.80054">
        <ele>2542.07599872</ele>
        <time>2013-09-22T09:01:36.010Z</time>
      </trkpt>
      <trkpt lat="45.75675" lon="6.80064">
        <ele>2543.47599872</ele>
        <time>2013-09-22T09:01:43.010Z</time>
      </trkpt>
      <trkpt lat="45.75674" lon="6.80074">
        <ele>2544.888</ele>
        <time>2013-09-22T09:01:50.070Z</time>
      </trkpt>
      <trkpt lat="45.75673" lon="6.80088">
        <ele>2546</ele>
        <time>2013-09-22T09:01:57.060Z</time>
      </trkpt>
      <trkpt lat="45.75672" lon="6.80103">
        <ele>2546</ele>
        <time>2013-09-22T09:02:03.060Z</time>
      </trkpt>
      <trkpt lat="45.75671" lon="6.80111">
        <ele>2547</ele>
        <time>2013-09-22T09:02:20.160Z</time>
      </trkpt>
      <trkpt lat="45.75669" lon="6.80123">
        <ele>2546.84700032</ele>
        <time>2013-09-22T09:02:27.160Z</time>
      </trkpt>
      <trkpt lat="45.75666" lon="6.8014">
        <ele>2546</ele>
        <time>2013-09-22T09:02:38.080Z</time>
      </trkpt>
      <trkpt lat="45.75658" lon="6.8015">
        <ele>2546</ele>
        <time>2013-09-22T09:02:47.070Z</time>
      </trkpt>
      <trkpt lat="45.75648" lon="6.80156">
        <ele>2547.625498008</ele>
        <time>2013-09-22T09:03:11.910Z</time>
      </trkpt>
      <trkpt lat="45.75639" lon="6.80162">
        <ele>2550.503013012</ele>
        <time>2013-09-22T09:03:23.980Z</time>
      </trkpt>
      <trkpt lat="45.75648" lon="6.80168">
        <ele>2553.52900096</ele>
        <time>2013-09-22T09:03:34.060Z</time>
      </trkpt>
      <trkpt lat="45.75645" lon="6.80179">
        <ele>2556</ele>
        <time>2013-09-22T09:03:49.970Z</time>
      </trkpt>
      <trkpt lat="45.75637" lon="6.8019">
        <ele>2561.20199808</ele>
        <time>2013-09-22T09:04:12.970Z</time>
      </trkpt>
      <trkpt lat="45.75642" lon="6.8019">
        <ele>2562.42899712</ele>
        <time>2013-09-22T09:04:17.060Z</time>
      </trkpt>
      <trkpt lat="45.75646" lon="6.80193">
        <ele>2563.62899712</ele>
        <time>2013-09-22T09:04:21.060Z</time>
      </trkpt>
      <trkpt lat="45.75651" lon="6.80197">
        <ele>2564.82899712</ele>
        <time>2013-09-22T09:04:25.060Z</time>
      </trkpt>
      <trkpt lat="45.75645" lon="6.80205">
        <ele>2568.432</ele>
        <time>2013-09-22T09:04:47.070Z</time>
      </trkpt>
      <trkpt lat="45.75635" lon="6.80209">
        <ele>2572.888</ele>
        <time>2013-09-22T09:05:05.070Z</time>
      </trkpt>
      <trkpt lat="45.75625" lon="6.80211">
        <ele>2575.48999936</ele>
        <time>2013-09-22T09:05:18.080Z</time>
      </trkpt>
      <trkpt lat="45.75615" lon="6.80208">
        <ele>2577.75299968</ele>
        <time>2013-09-22T09:05:33.160Z</time>
      </trkpt>
      <trkpt lat="45.75608" lon="6.8021">
        <ele>2578.101594263</ele>
        <time>2013-09-22T09:06:05.160Z</time>
      </trkpt>
      <trkpt lat="45.75604" lon="6.80215">
        <ele>2581.63499904</ele>
        <time>2013-09-22T09:06:31.080Z</time>
      </trkpt>
      <trkpt lat="45.75608" lon="6.80229">
        <ele>2592.432</ele>
        <time>2013-09-22T09:07:17.070Z</time>
      </trkpt>
      <trkpt lat="45.75616" lon="6.80238">
        <ele>2597.79899904</ele>
        <time>2013-09-22T09:07:34.960Z</time>
      </trkpt>
      <trkpt lat="45.75619" lon="6.80252">
        <ele>2603.42899712</ele>
        <time>2013-09-22T09:07:57.060Z</time>
      </trkpt>
      <trkpt lat="45.75621" lon="6.80266">
        <ele>2610.86799872</ele>
        <time>2013-09-22T09:08:24.970Z</time>
      </trkpt>
      <trkpt lat="45.7563" lon="6.80272">
        <ele>2614.944</ele>
        <time>2013-09-22T09:08:45.070Z</time>
      </trkpt>
      <trkpt lat="45.75638" lon="6.80278">
        <ele>2617.5488038247</ele>
        <time>2013-09-22T09:08:54.160Z</time>
      </trkpt>
      <trkpt lat="45.75648" lon="6.80285">
        <ele>2620.66799872</ele>
        <time>2013-09-22T09:09:08.970Z</time>
      </trkpt>
      <trkpt lat="45.75655" lon="6.80295">
        <ele>2623.67000064</ele>
        <time>2013-09-22T09:09:23.980Z</time>
      </trkpt>
      <trkpt lat="45.75644" lon="6.80293">
        <ele>2627.432</ele>
        <time>2013-09-22T09:09:37.070Z</time>
      </trkpt>
      <trkpt lat="45.75636" lon="6.80294">
        <ele>2629.232</ele>
        <time>2013-09-22T09:09:43.070Z</time>
      </trkpt>
      <trkpt lat="45.75629" lon="6.80296">
        <ele>2630</ele>
        <time>2013-09-22T09:09:55.160Z</time>
      </trkpt>
      <trkpt lat="45.75624" lon="6.80305">
        <ele>2626</ele>
        <time>2013-09-22T09:10:09.070Z</time>
      </trkpt>
      <trkpt lat="45.75618" lon="6.80314">
        <ele>2626</ele>
        <time>2013-09-22T09:10:13.080Z</time>
      </trkpt>
      <trkpt lat="45.7561" lon="6.80323">
        <ele>2624.98800128</ele>
        <time>2013-09-22T09:10:18.160Z</time>
      </trkpt>
      <trkpt lat="45.756" lon="6.80326">
        <ele>2620.688</ele>
        <time>2013-09-22T09:10:28.910Z</time>
      </trkpt>
      <trkpt lat="45.7559" lon="6.80335">
        <ele>2617.62000128</ele>
        <time>2013-09-22T09:11:19.080Z</time>
      </trkpt>
      <trkpt lat="45.7558" lon="6.80339">
        <ele>2615.62000128</ele>
        <time>2013-09-22T09:11:24.080Z</time>
      </trkpt>
      <trkpt lat="45.7557" lon="6.80345">
        <ele>2613.6423581674</ele>
        <time>2013-09-22T09:11:30.160Z</time>
      </trkpt>
      <trkpt lat="45.75561" lon="6.80349">
        <ele>2611.4660678859</ele>
        <time>2013-09-22T09:11:40.990Z</time>
      </trkpt>
      <trkpt lat="45.75556" lon="6.80361">
        <ele>2609.52300288</ele>
        <time>2013-09-22T09:11:56.160Z</time>
      </trkpt>
      <trkpt lat="45.75548" lon="6.80365">
        <ele>2605.92300288</ele>
        <time>2013-09-22T09:12:00.160Z</time>
      </trkpt>
      <trkpt lat="45.7554" lon="6.80374">
        <ele>2600.756</ele>
        <time>2013-09-22T09:12:08.070Z</time>
      </trkpt>
      <trkpt lat="45.75528" lon="6.80378">
        <ele>2600.256</ele>
        <time>2013-09-22T09:12:13.070Z</time>
      </trkpt>
      <trkpt lat="45.75518" lon="6.80381">
        <ele>2599.69400064</ele>
        <time>2013-09-22T09:12:17.160Z</time>
      </trkpt>
      <trkpt lat="45.75509" lon="6.80386">
        <ele>2598.89400064</ele>
        <time>2013-09-22T09:12:21.160Z</time>
      </trkpt>
      <trkpt lat="45.75503" lon="6.80392">
        <ele>2598.29400064</ele>
        <time>2013-09-22T09:12:24.160Z</time>
      </trkpt>
      <trkpt lat="45.75496" lon="6.80399">
        <ele>2596.72</ele>
        <time>2013-09-22T09:12:26.910Z</time>
      </trkpt>
      <trkpt lat="45.75486" lon="6.80402">
        <ele>2592.72</ele>
        <time>2013-09-22T09:12:30.910Z</time>
      </trkpt>
      <trkpt lat="45.75475" lon="6.80406">
        <ele>2588.72</ele>
        <time>2013-09-22T09:12:34.910Z</time>
      </trkpt>
      <trkpt lat="45.75468" lon="6.80412">
        <ele>2587.02799872</ele>
        <time>2013-09-22T09:12:38.060Z</time>
      </trkpt>
      <trkpt lat="45.75458" lon="6.80417">
        <ele>2585.42799872</ele>
        <time>2013-09-22T09:12:42.060Z</time>
      </trkpt>
      <trkpt lat="45.75447" lon="6.80423">
        <ele>2583.86800128</ele>
        <time>2013-09-22T09:12:45.960Z</time>
      </trkpt>
      <trkpt lat="45.75438" lon="6.80426">
        <ele>2582.26800128</ele>
        <time>2013-09-22T09:12:49.960Z</time>
      </trkpt>
      <trkpt lat="45.75428" lon="6.80432">
        <ele>2580.66800128</ele>
        <time>2013-09-22T09:12:53.960Z</time>
      </trkpt>
      <trkpt lat="45.75422" lon="6.80439">
        <ele>2579.2850048</ele>
        <time>2013-09-22T09:12:57.060Z</time>
      </trkpt>
      <trkpt lat="45.75417" lon="6.80447">
        <ele>2577.7849984</ele>
        <time>2013-09-22T09:13:00.060Z</time>
      </trkpt>
      <trkpt lat="45.75409" lon="6.80458">
        <ele>2575.7849984</ele>
        <time>2013-09-22T09:13:04.060Z</time>
      </trkpt>
      <trkpt lat="45.754" lon="6.80467">
        <ele>2573.7849984</ele>
        <time>2013-09-22T09:13:08.060Z</time>
      </trkpt>
      <trkpt lat="45.75394" lon="6.80475">
        <ele>2572.2850048</ele>
        <time>2013-09-22T09:13:11.060Z</time>
      </trkpt>
      <trkpt lat="45.75383" lon="6.80479">
        <ele>2570.2850048</ele>
        <time>2013-09-22T09:13:15.060Z</time>
      </trkpt>
      <trkpt lat="45.75375" lon="6.8048">
        <ele>2569.51399936</ele>
        <time>2013-09-22T09:13:18.060Z</time>
      </trkpt>
      <trkpt lat="45.75366" lon="6.80483">
        <ele>2568.71399936</ele>
        <time>2013-09-22T09:13:22.060Z</time>
      </trkpt>
      <trkpt lat="45.7537" lon="6.80493">
        <ele>2567.28600192</ele>
        <time>2013-09-22T09:13:28.010Z</time>
      </trkpt>
      <trkpt lat="45.75371" lon="6.80505">
        <ele>2566.08600192</ele>
        <time>2013-09-22T09:13:32.010Z</time>
      </trkpt>
      <trkpt lat="45.75367" lon="6.80516">
        <ele>2565.18600192</ele>
        <time>2013-09-22T09:13:35.010Z</time>
      </trkpt>
      <trkpt lat="45.7536" lon="6.80527">
        <ele>2564.24100096</ele>
        <time>2013-09-22T09:13:38.160Z</time>
      </trkpt>
      <trkpt lat="45.75351" lon="6.80534">
        <ele>2563.04100096</ele>
        <time>2013-09-22T09:13:42.160Z</time>
      </trkpt>
      <trkpt lat="45.7534" lon="6.80537">
        <ele>2561.36</ele>
        <time>2013-09-22T09:13:46.910Z</time>
      </trkpt>
      <trkpt lat="45.75328" lon="6.80542">
        <ele>2558.86</ele>
        <time>2013-09-22T09:13:51.910Z</time>
      </trkpt>
      <trkpt lat="45.75319" lon="6.80545">
        <ele>2557.36</ele>
        <time>2013-09-22T09:13:54.910Z</time>
      </trkpt>
      <trkpt lat="45.75309" lon="6.80547">
        <ele>2556.31400192</ele>
        <time>2013-09-22T09:13:59.060Z</time>
      </trkpt>
      <trkpt lat="45.75299" lon="6.80552">
        <ele>2555.51400192</ele>
        <time>2013-09-22T09:14:03.060Z</time>
      </trkpt>
      <trkpt lat="45.75291" lon="6.80559">
        <ele>2554.71400192</ele>
        <time>2013-09-22T09:14:07.060Z</time>
      </trkpt>
      <trkpt lat="45.75287" lon="6.8057">
        <ele>2553.71399936</ele>
        <time>2013-09-22T09:14:12.060Z</time>
      </trkpt>
      <trkpt lat="45.75287" lon="6.80583">
        <ele>2552.87099904</ele>
        <time>2013-09-22T09:14:16.060Z</time>
      </trkpt>
      <trkpt lat="45.75279" lon="6.80593">
        <ele>2550.77100288</ele>
        <time>2013-09-22T09:14:23.060Z</time>
      </trkpt>
      <trkpt lat="45.7527" lon="6.80586">
        <ele>2549.599603506</ele>
        <time>2013-09-22T09:14:26.970Z</time>
      </trkpt>
      <trkpt lat="45.75262" lon="6.80584">
        <ele>2548.4043843825</ele>
        <time>2013-09-22T09:14:30.970Z</time>
      </trkpt>
      <trkpt lat="45.75254" lon="6.80588">
        <ele>2547.209165259</ele>
        <time>2013-09-22T09:14:34.970Z</time>
      </trkpt>
      <trkpt lat="45.75249" lon="6.80596">
        <ele>2544.3494027309</ele>
        <time>2013-09-22T09:14:38.970Z</time>
      </trkpt>
      <trkpt lat="45.75242" lon="6.80602">
        <ele>2541.1365513253</ele>
        <time>2013-09-22T09:14:42.970Z</time>
      </trkpt>
      <trkpt lat="45.75232" lon="6.80606">
        <ele>2538.51399936</ele>
        <time>2013-09-22T09:14:48.060Z</time>
      </trkpt>
      <trkpt lat="45.75224" lon="6.8061">
        <ele>2537.51400192</ele>
        <time>2013-09-22T09:14:53.060Z</time>
      </trkpt>
      <trkpt lat="45.75219" lon="6.80618">
        <ele>2535.99900672</ele>
        <time>2013-09-22T09:14:57.060Z</time>
      </trkpt>
      <trkpt lat="45.75216" lon="6.8063">
        <ele>2533.19900672</ele>
        <time>2013-09-22T09:15:01.060Z</time>
      </trkpt>
      <trkpt lat="45.75215" lon="6.80641">
        <ele>2530.39900672</ele>
        <time>2013-09-22T09:15:05.060Z</time>
      </trkpt>
      <trkpt lat="45.75208" lon="6.8065">
        <ele>2528.37100288</ele>
        <time>2013-09-22T09:15:11.060Z</time>
      </trkpt>
      <trkpt lat="45.75201" lon="6.80655">
        <ele>2526.71400192</ele>
        <time>2013-09-22T09:15:17.060Z</time>
      </trkpt>
      <trkpt lat="45.7519" lon="6.80655">
        <ele>2525.71399936</ele>
        <time>2013-09-22T09:15:22.060Z</time>
      </trkpt>
      <trkpt lat="45.75183" lon="6.80659">
        <ele>2524.88600192</ele>
        <time>2013-09-22T09:15:26.010Z</time>
      </trkpt>
      <trkpt lat="45.75175" lon="6.80664">
        <ele>2523.68600192</ele>
        <time>2013-09-22T09:15:30.010Z</time>
      </trkpt>
      <trkpt lat="45.75169" lon="6.8067">
        <ele>2522.78600192</ele>
        <time>2013-09-22T09:15:33.010Z</time>
      </trkpt>
      <trkpt lat="45.7516" lon="6.80676">
        <ele>2521.49400064</ele>
        <time>2013-09-22T09:15:38.160Z</time>
      </trkpt>
      <trkpt lat="45.75152" lon="6.80681">
        <ele>2520.69400064</ele>
        <time>2013-09-22T09:15:42.160Z</time>
      </trkpt>
      <trkpt lat="45.75144" lon="6.80687">
        <ele>2520</ele>
        <time>2013-09-22T09:15:47.160Z</time>
      </trkpt>
      <trkpt lat="45.75138" lon="6.80697">
        <ele>2520</ele>
        <time>2013-09-22T09:15:52.160Z</time>
      </trkpt>
      <trkpt lat="45.75134" lon="6.80708">
        <ele>2520</ele>
        <time>2013-09-22T09:15:57.160Z</time>
      </trkpt>
      <trkpt lat="45.75133" lon="6.80712">
        <ele>2520</ele>
        <time>2013-09-22T09:15:59.660Z</time>
      </trkpt>
      <trkpt lat="45.75137" lon="6.807">
        <ele>2522</ele>
        <time>2013-09-22T09:17:27.260Z</time>
      </trkpt>
      <trkpt lat="45.7514" lon="6.80691">
        <ele>2520.5272153775</ele>
        <time>2013-09-22T09:17:34.160Z</time>
      </trkpt>
      <trkpt lat="45.75143" lon="6.80682">
        <ele>2519.6943062359</ele>
        <time>2013-09-22T09:17:38.160Z</time>
      </trkpt>
      <trkpt lat="45.75149" lon="6.80677">
        <ele>2518.0440440299</ele>
        <time>2013-09-22T09:17:47.080Z</time>
      </trkpt>
      <trkpt lat="45.75147" lon="6.8067">
        <ele>2517.912</ele>
        <time>2013-09-22T09:18:02.070Z</time>
      </trkpt>
      <trkpt lat="45.75145" lon="6.80661">
        <ele>2517</ele>
        <time>2013-09-22T09:18:09.080Z</time>
      </trkpt>
      <trkpt lat="45.7514" lon="6.80649">
        <ele>2516.556</ele>
        <time>2013-09-22T09:18:21.070Z</time>
      </trkpt>
      <trkpt lat="45.75137" lon="6.80638">
        <ele>2516.256</ele>
        <time>2013-09-22T09:18:24.070Z</time>
      </trkpt>
      <trkpt lat="45.75136" lon="6.80624">
        <ele>2515.84700032</ele>
        <time>2013-09-22T09:18:28.160Z</time>
      </trkpt>
      <trkpt lat="45.7513" lon="6.80608">
        <ele>2515.34700032</ele>
        <time>2013-09-22T09:18:33.160Z</time>
      </trkpt>
      <trkpt lat="45.75125" lon="6.80594">
        <ele>2514.7750016</ele>
        <time>2013-09-22T09:18:37.080Z</time>
      </trkpt>
      <trkpt lat="45.75122" lon="6.80585">
        <ele>2513.2750016</ele>
        <time>2013-09-22T09:18:40.080Z</time>
      </trkpt>
      <trkpt lat="45.75117" lon="6.80576">
        <ele>2511.7750016</ele>
        <time>2013-09-22T09:18:43.080Z</time>
      </trkpt>
      <trkpt lat="45.75112" lon="6.80569">
        <ele>2510.2750016</ele>
        <time>2013-09-22T09:18:46.080Z</time>
      </trkpt>
      <trkpt lat="45.75107" lon="6.80562">
        <ele>2508.7350016</ele>
        <time>2013-09-22T09:18:49.160Z</time>
      </trkpt>
      <trkpt lat="45.75102" lon="6.80553">
        <ele>2507.2350016</ele>
        <time>2013-09-22T09:18:52.160Z</time>
      </trkpt>
      <trkpt lat="45.75096" lon="6.80544">
        <ele>2505.7350016</ele>
        <time>2013-09-22T09:18:55.160Z</time>
      </trkpt>
      <trkpt lat="45.7509" lon="6.80534">
        <ele>2504.69400064</ele>
        <time>2013-09-22T09:18:58.160Z</time>
      </trkpt>
      <trkpt lat="45.75086" lon="6.80524">
        <ele>2504.09400064</ele>
        <time>2013-09-22T09:19:01.160Z</time>
      </trkpt>
      <trkpt lat="45.75081" lon="6.80517">
        <ele>2503.49400064</ele>
        <time>2013-09-22T09:19:04.160Z</time>
      </trkpt>
      <trkpt lat="45.75079" lon="6.80508">
        <ele>2502.86</ele>
        <time>2013-09-22T09:19:06.910Z</time>
      </trkpt>
      <trkpt lat="45.75077" lon="6.80498">
        <ele>2501.36</ele>
        <time>2013-09-22T09:19:09.910Z</time>
      </trkpt>
      <trkpt lat="45.75075" lon="6.80484">
        <ele>2499.36</ele>
        <time>2013-09-22T09:19:13.910Z</time>
      </trkpt>
      <trkpt lat="45.75072" lon="6.80474">
        <ele>2497.8306804781</ele>
        <time>2013-09-22T09:19:16.970Z</time>
      </trkpt>
      <trkpt lat="45.75068" lon="6.8046">
        <ele>2495.3406406375</ele>
        <time>2013-09-22T09:19:21.970Z</time>
      </trkpt>
      <trkpt lat="45.75064" lon="6.80449">
        <ele>2493.8466167331</ele>
        <time>2013-09-22T09:19:24.970Z</time>
      </trkpt>
      <trkpt lat="45.7506" lon="6.80443">
        <ele>2493</ele>
        <time>2013-09-22T09:19:26.980Z</time>
      </trkpt>
      <trkpt lat="45.75054" lon="6.80433">
        <ele>2493</ele>
        <time>2013-09-22T09:19:29.980Z</time>
      </trkpt>
      <trkpt lat="45.75048" lon="6.80423">
        <ele>2493</ele>
        <time>2013-09-22T09:19:32.980Z</time>
      </trkpt>
      <trkpt lat="45.75044" lon="6.80412">
        <ele>2493</ele>
        <time>2013-09-22T09:19:35.980Z</time>
      </trkpt>
      <trkpt lat="45.75038" lon="6.80403">
        <ele>2492.75700096</ele>
        <time>2013-09-22T09:19:39.060Z</time>
      </trkpt>
      <trkpt lat="45.75033" lon="6.80395">
        <ele>2492.45699968</ele>
        <time>2013-09-22T09:19:42.060Z</time>
      </trkpt>
      <trkpt lat="45.75027" lon="6.80387">
        <ele>2492.15700096</ele>
        <time>2013-09-22T09:19:45.060Z</time>
      </trkpt>
      <trkpt lat="45.75022" lon="6.80379">
        <ele>2491.42799872</ele>
        <time>2013-09-22T09:19:48.060Z</time>
      </trkpt>
      <trkpt lat="45.75018" lon="6.80371">
        <ele>2490.22800384</ele>
        <time>2013-09-22T09:19:51.060Z</time>
      </trkpt>
      <trkpt lat="45.75013" lon="6.80361">
        <ele>2489.024</ele>
        <time>2013-09-22T09:19:54.070Z</time>
      </trkpt>
      <trkpt lat="45.7501" lon="6.80355">
        <ele>2488.22799872</ele>
        <time>2013-09-22T09:19:56.060Z</time>
      </trkpt>
      <trkpt lat="45.75004" lon="6.80342">
        <ele>2488</ele>
        <time>2013-09-22T09:19:59.970Z</time>
      </trkpt>
      <trkpt lat="45.75002" lon="6.80333">
        <ele>2488</ele>
        <time>2013-09-22T09:20:02.980Z</time>
      </trkpt>
      <trkpt lat="45.74997" lon="6.80323">
        <ele>2487.8250048</ele>
        <time>2013-09-22T09:20:06.980Z</time>
      </trkpt>
      <trkpt lat="45.74992" lon="6.80314">
        <ele>2485.8250048</ele>
        <time>2013-09-22T09:20:10.980Z</time>
      </trkpt>
      <trkpt lat="45.74988" lon="6.80305">
        <ele>2484.3249984</ele>
        <time>2013-09-22T09:20:13.980Z</time>
      </trkpt>
      <trkpt lat="45.74984" lon="6.80296">
        <ele>2482.87100288</ele>
        <time>2013-09-22T09:20:17.060Z</time>
      </trkpt>
      <trkpt lat="45.7498" lon="6.80286">
        <ele>2481.97099904</ele>
        <time>2013-09-22T09:20:20.060Z</time>
      </trkpt>
      <trkpt lat="45.74976" lon="6.80278">
        <ele>2481.07100288</ele>
        <time>2013-09-22T09:20:23.060Z</time>
      </trkpt>
      <trkpt lat="45.74972" lon="6.80271">
        <ele>2480.17099904</ele>
        <time>2013-09-22T09:20:26.060Z</time>
      </trkpt>
      <trkpt lat="45.74968" lon="6.80261">
        <ele>2478.7850048</ele>
        <time>2013-09-22T09:20:29.060Z</time>
      </trkpt>
      <trkpt lat="45.74965" lon="6.80255">
        <ele>2477.7850048</ele>
        <time>2013-09-22T09:20:31.060Z</time>
      </trkpt>
      <trkpt lat="45.74962" lon="6.80248">
        <ele>2476.7850048</ele>
        <time>2013-09-22T09:20:33.060Z</time>
      </trkpt>
      <trkpt lat="45.7496" lon="6.8024">
        <ele>2475.7850048</ele>
        <time>2013-09-22T09:20:35.060Z</time>
      </trkpt>
      <trkpt lat="45.74957" lon="6.8023">
        <ele>2474.57099904</ele>
        <time>2013-09-22T09:20:38.060Z</time>
      </trkpt>
      <trkpt lat="45.74955" lon="6.8022">
        <ele>2473.67100288</ele>
        <time>2013-09-22T09:20:41.060Z</time>
      </trkpt>
      <trkpt lat="45.74955" lon="6.80211">
        <ele>2472</ele>
        <time>2013-09-22T09:23:28.060Z</time>
      </trkpt>
      <trkpt lat="45.74951" lon="6.80204">
        <ele>2470.53200128</ele>
        <time>2013-09-22T09:23:43.970Z</time>
      </trkpt>
      <trkpt lat="45.74947" lon="6.80193">
        <ele>2469.91400192</ele>
        <time>2013-09-22T09:23:47.060Z</time>
      </trkpt>
      <trkpt lat="45.74945" lon="6.80185">
        <ele>2469.51400192</ele>
        <time>2013-09-22T09:23:49.060Z</time>
      </trkpt>
      <trkpt lat="45.74943" lon="6.80176">
        <ele>2469.11400192</ele>
        <time>2013-09-22T09:23:51.060Z</time>
      </trkpt>
      <trkpt lat="45.74942" lon="6.80168">
        <ele>2468.71400192</ele>
        <time>2013-09-22T09:23:53.060Z</time>
      </trkpt>
      <trkpt lat="45.74942" lon="6.80153">
        <ele>2467.86000384</ele>
        <time>2013-09-22T09:23:56.980Z</time>
      </trkpt>
      <trkpt lat="45.74944" lon="6.80142">
        <ele>2464</ele>
        <time>2013-09-22T09:24:21.070Z</time>
      </trkpt>
      <trkpt lat="45.74941" lon="6.80131">
        <ele>2464</ele>
        <time>2013-09-22T09:24:24.070Z</time>
      </trkpt>
      <trkpt lat="45.74935" lon="6.80117">
        <ele>2462.7350016</ele>
        <time>2013-09-22T09:24:29.160Z</time>
      </trkpt>
      <trkpt lat="45.74929" lon="6.80102">
        <ele>2460.7350016</ele>
        <time>2013-09-22T09:24:33.160Z</time>
      </trkpt>
      <trkpt lat="45.74925" lon="6.80087">
        <ele>2458.68200192</ele>
        <time>2013-09-22T09:24:37.160Z</time>
      </trkpt>
      <trkpt lat="45.74919" lon="6.80073">
        <ele>2456.28200192</ele>
        <time>2013-09-22T09:24:41.160Z</time>
      </trkpt>
      <trkpt lat="45.74914" lon="6.80063">
        <ele>2454.48200192</ele>
        <time>2013-09-22T09:24:44.160Z</time>
      </trkpt>
      <trkpt lat="45.74912" lon="6.80055">
        <ele>2453.28200192</ele>
        <time>2013-09-22T09:24:46.160Z</time>
      </trkpt>
      <trkpt lat="45.7491" lon="6.80046">
        <ele>2452.2350016</ele>
        <time>2013-09-22T09:24:48.160Z</time>
      </trkpt>
      <trkpt lat="45.74907" lon="6.80038">
        <ele>2451.2350016</ele>
        <time>2013-09-22T09:24:50.160Z</time>
      </trkpt>
      <trkpt lat="45.74904" lon="6.80026">
        <ele>2449.7350016</ele>
        <time>2013-09-22T09:24:53.160Z</time>
      </trkpt>
      <trkpt lat="45.74899" lon="6.80012">
        <ele>2447.7318788538</ele>
        <time>2013-09-22T09:24:57.080Z</time>
      </trkpt>
      <trkpt lat="45.74894" lon="6.79999">
        <ele>2445.3485628287</ele>
        <time>2013-09-22T09:25:01.080Z</time>
      </trkpt>
      <trkpt lat="45.74888" lon="6.79983">
        <ele>2441.79600384</ele>
        <time>2013-09-22T09:25:16.970Z</time>
      </trkpt>
      <trkpt lat="45.74883" lon="6.79967">
        <ele>2439.39600384</ele>
        <time>2013-09-22T09:25:20.970Z</time>
      </trkpt>
      <trkpt lat="45.74877" lon="6.79953">
        <ele>2437.59600384</ele>
        <time>2013-09-22T09:25:23.970Z</time>
      </trkpt>
      <trkpt lat="45.74871" lon="6.79941">
        <ele>2435.8281756094</ele>
        <time>2013-09-22T09:25:27.060Z</time>
      </trkpt>
      <trkpt lat="45.74866" lon="6.79929">
        <ele>2434.6293689125</ele>
        <time>2013-09-22T09:25:30.060Z</time>
      </trkpt>
      <trkpt lat="45.74863" lon="6.79914">
        <ele>2433.4305724453</ele>
        <time>2013-09-22T09:25:33.060Z</time>
      </trkpt>
      <trkpt lat="45.7486" lon="6.799">
        <ele>2432.2317657484</ele>
        <time>2013-09-22T09:25:36.060Z</time>
      </trkpt>
      <trkpt lat="45.74856" lon="6.79883">
        <ele>2429.9519545299</ele>
        <time>2013-09-22T09:25:40.050Z</time>
      </trkpt>
      <trkpt lat="45.74854" lon="6.79866">
        <ele>2427.549552897</ele>
        <time>2013-09-22T09:25:44.050Z</time>
      </trkpt>
      <trkpt lat="45.74851" lon="6.79849">
        <ele>2424.78499712</ele>
        <time>2013-09-22T09:25:47.980Z</time>
      </trkpt>
      <trkpt lat="45.74846" lon="6.79834">
        <ele>2421.18499712</ele>
        <time>2013-09-22T09:25:51.980Z</time>
      </trkpt>
      <trkpt lat="45.74841" lon="6.79824">
        <ele>2416.96600064</ele>
        <time>2013-09-22T09:25:56.970Z</time>
      </trkpt>
      <trkpt lat="45.74836" lon="6.79814">
        <ele>2416</ele>
        <time>2013-09-22T09:26:15.060Z</time>
      </trkpt>
      <trkpt lat="45.74831" lon="6.79803">
        <ele>2416</ele>
        <time>2013-09-22T09:26:25.060Z</time>
      </trkpt>
      <trkpt lat="45.74826" lon="6.7979">
        <ele>2413.02799872</ele>
        <time>2013-09-22T09:26:34.060Z</time>
      </trkpt>
      <trkpt lat="45.7482" lon="6.79775">
        <ele>2410.7850048</ele>
        <time>2013-09-22T09:26:39.060Z</time>
      </trkpt>
      <trkpt lat="45.74813" lon="6.79763">
        <ele>2407.7850048</ele>
        <time>2013-09-22T09:26:45.060Z</time>
      </trkpt>
      <trkpt lat="45.74808" lon="6.79761">
        <ele>2406.05499776</ele>
        <time>2013-09-22T09:26:47.980Z</time>
      </trkpt>
      <trkpt lat="45.74796" lon="6.79756">
        <ele>2402.55500672</ele>
        <time>2013-09-22T09:26:52.980Z</time>
      </trkpt>
      <trkpt lat="45.74791" lon="6.7975">
        <ele>2399.76500096</ele>
        <time>2013-09-22T09:26:58.980Z</time>
      </trkpt>
      <trkpt lat="45.74785" lon="6.79737">
        <ele>2398.66600064</ele>
        <time>2013-09-22T09:27:09.970Z</time>
      </trkpt>
      <trkpt lat="45.74777" lon="6.79723">
        <ele>2398.26600064</ele>
        <time>2013-09-22T09:27:13.970Z</time>
      </trkpt>
      <trkpt lat="45.7477" lon="6.79713">
        <ele>2397.65600768</ele>
        <time>2013-09-22T09:27:17.060Z</time>
      </trkpt>
      <trkpt lat="45.74763" lon="6.79701">
        <ele>2395.25599744</ele>
        <time>2013-09-22T09:27:20.060Z</time>
      </trkpt>
      <trkpt lat="45.74757" lon="6.7969">
        <ele>2392.85600768</ele>
        <time>2013-09-22T09:27:23.060Z</time>
      </trkpt>
      <trkpt lat="45.74752" lon="6.79677">
        <ele>2390.45599744</ele>
        <time>2013-09-22T09:27:26.060Z</time>
      </trkpt>
      <trkpt lat="45.74749" lon="6.79663">
        <ele>2389.51400192</ele>
        <time>2013-09-22T09:27:29.060Z</time>
      </trkpt>
      <trkpt lat="45.74745" lon="6.7965">
        <ele>2388.91399936</ele>
        <time>2013-09-22T09:27:32.060Z</time>
      </trkpt>
      <trkpt lat="45.7474" lon="6.79639">
        <ele>2388.31400192</ele>
        <time>2013-09-22T09:27:35.060Z</time>
      </trkpt>
      <trkpt lat="45.74736" lon="6.79624">
        <ele>2386.32</ele>
        <time>2013-09-22T09:27:39.990Z</time>
      </trkpt>
      <trkpt lat="45.74734" lon="6.79606">
        <ele>2383.82</ele>
        <time>2013-09-22T09:27:44.990Z</time>
      </trkpt>
      <trkpt lat="45.7473" lon="6.79591">
        <ele>2381.5936267729</ele>
        <time>2013-09-22T09:27:50.160Z</time>
      </trkpt>
      <trkpt lat="45.74723" lon="6.79576">
        <ele>2379.6015949004</ele>
        <time>2013-09-22T09:27:55.160Z</time>
      </trkpt>
      <trkpt lat="45.74717" lon="6.79566">
        <ele>2378.4337362249</ele>
        <time>2013-09-22T09:27:58.080Z</time>
      </trkpt>
      <trkpt lat="45.74708" lon="6.79554">
        <ele>2376.8313253012</ele>
        <time>2013-09-22T09:28:02.070Z</time>
      </trkpt>
      <trkpt lat="45.74701" lon="6.7954">
        <ele>2375.2208848193</ele>
        <time>2013-09-22T09:28:06.080Z</time>
      </trkpt>
      <trkpt lat="45.74693" lon="6.79528">
        <ele>2373.2350016</ele>
        <time>2013-09-22T09:28:10.160Z</time>
      </trkpt>
      <trkpt lat="45.74686" lon="6.79514">
        <ele>2371.2350016</ele>
        <time>2013-09-22T09:28:14.160Z</time>
      </trkpt>
      <trkpt lat="45.74681" lon="6.79501">
        <ele>2369.78800128</ele>
        <time>2013-09-22T09:28:17.160Z</time>
      </trkpt>
      <trkpt lat="45.74676" lon="6.79487">
        <ele>2368.18800128</ele>
        <time>2013-09-22T09:28:21.160Z</time>
      </trkpt>
      <trkpt lat="45.7467" lon="6.79472">
        <ele>2366.58800128</ele>
        <time>2013-09-22T09:28:25.160Z</time>
      </trkpt>
      <trkpt lat="45.74666" lon="6.79456">
        <ele>2364.22900224</ele>
        <time>2013-09-22T09:28:29.160Z</time>
      </trkpt>
      <trkpt lat="45.74663" lon="6.79441">
        <ele>2361.42900224</ele>
        <time>2013-09-22T09:28:33.160Z</time>
      </trkpt>
      <trkpt lat="45.74659" lon="6.79426">
        <ele>2358.7750016</ele>
        <time>2013-09-22T09:28:37.080Z</time>
      </trkpt>
      <trkpt lat="45.74655" lon="6.79412">
        <ele>2356.7750016</ele>
        <time>2013-09-22T09:28:41.080Z</time>
      </trkpt>
      <trkpt lat="45.74651" lon="6.79398">
        <ele>2354.7750016</ele>
        <time>2013-09-22T09:28:45.080Z</time>
      </trkpt>
      <trkpt lat="45.74644" lon="6.79385">
        <ele>2352.48200192</ele>
        <time>2013-09-22T09:28:49.160Z</time>
      </trkpt>
      <trkpt lat="45.74638" lon="6.79373">
        <ele>2350.08200192</ele>
        <time>2013-09-22T09:28:53.160Z</time>
      </trkpt>
      <trkpt lat="45.74631" lon="6.79359">
        <ele>2347.2350016</ele>
        <time>2013-09-22T09:28:58.160Z</time>
      </trkpt>
      <trkpt lat="45.74626" lon="6.79346">
        <ele>2345.2350016</ele>
        <time>2013-09-22T09:29:02.160Z</time>
      </trkpt>
      <trkpt lat="45.74623" lon="6.79333">
        <ele>2343.7850048</ele>
        <time>2013-09-22T09:29:05.060Z</time>
      </trkpt>
      <trkpt lat="45.7462" lon="6.79316">
        <ele>2341.7850048</ele>
        <time>2013-09-22T09:29:09.060Z</time>
      </trkpt>
      <trkpt lat="45.74618" lon="6.79299">
        <ele>2339.7850048</ele>
        <time>2013-09-22T09:29:13.060Z</time>
      </trkpt>
      <trkpt lat="45.74613" lon="6.79286">
        <ele>2337.82800384</ele>
        <time>2013-09-22T09:29:17.060Z</time>
      </trkpt>
      <trkpt lat="45.74609" lon="6.79272">
        <ele>2336.22800384</ele>
        <time>2013-09-22T09:29:21.060Z</time>
      </trkpt>
      <trkpt lat="45.74604" lon="6.79258">
        <ele>2334.62800384</ele>
        <time>2013-09-22T09:29:25.060Z</time>
      </trkpt>
      <trkpt lat="45.74602" lon="6.79246">
        <ele>2333.14199808</ele>
        <time>2013-09-22T09:29:28.060Z</time>
      </trkpt>
      <trkpt lat="45.746" lon="6.79229">
        <ele>2330.14200576</ele>
        <time>2013-09-22T09:29:33.060Z</time>
      </trkpt>
      <trkpt lat="45.74597" lon="6.79213">
        <ele>2327.05499776</ele>
        <time>2013-09-22T09:29:37.980Z</time>
      </trkpt>
      <trkpt lat="45.74596" lon="6.79199">
        <ele>2323.55500672</ele>
        <time>2013-09-22T09:29:42.980Z</time>
      </trkpt>
      <trkpt lat="45.74594" lon="6.79182">
        <ele>2320.43200256</ele>
        <time>2013-09-22T09:29:48.050Z</time>
      </trkpt>
      <trkpt lat="45.74589" lon="6.79173">
        <ele>2318.83200256</ele>
        <time>2013-09-22T09:29:52.050Z</time>
      </trkpt>
      <trkpt lat="45.7458" lon="6.79165">
        <ele>2317.23200256</ele>
        <time>2013-09-22T09:29:56.050Z</time>
      </trkpt>
      <trkpt lat="45.74574" lon="6.79157">
        <ele>2315.22900224</ele>
        <time>2013-09-22T09:29:59.160Z</time>
      </trkpt>
      <trkpt lat="45.74569" lon="6.7915">
        <ele>2313.12900224</ele>
        <time>2013-09-22T09:30:02.160Z</time>
      </trkpt>
      <trkpt lat="45.74561" lon="6.79146">
        <ele>2311.09900672</ele>
        <time>2013-09-22T09:30:05.060Z</time>
      </trkpt>
      <trkpt lat="45.74553" lon="6.79143">
        <ele>2309.14199808</ele>
        <time>2013-09-22T09:30:08.060Z</time>
      </trkpt>
      <trkpt lat="45.74541" lon="6.79139">
        <ele>2306.14200576</ele>
        <time>2013-09-22T09:30:13.060Z</time>
      </trkpt>
      <trkpt lat="45.7453" lon="6.79134">
        <ele>2303.82800384</ele>
        <time>2013-09-22T09:30:17.060Z</time>
      </trkpt>
      <trkpt lat="45.74522" lon="6.79133">
        <ele>2302.62799872</ele>
        <time>2013-09-22T09:30:20.060Z</time>
      </trkpt>
      <trkpt lat="45.74514" lon="6.79138">
        <ele>2301.02799872</ele>
        <time>2013-09-22T09:30:24.060Z</time>
      </trkpt>
      <trkpt lat="45.74505" lon="6.79148">
        <ele>2299.208</ele>
        <time>2013-09-22T09:30:27.950Z</time>
      </trkpt>
      <trkpt lat="45.74495" lon="6.79153">
        <ele>2297.408</ele>
        <time>2013-09-22T09:30:30.950Z</time>
      </trkpt>
      <trkpt lat="45.74486" lon="6.79155">
        <ele>2295.608</ele>
        <time>2013-09-22T09:30:33.950Z</time>
      </trkpt>
      <trkpt lat="45.74475" lon="6.79157">
        <ele>2293.6102362205</ele>
        <time>2013-09-22T09:30:37.950Z</time>
      </trkpt>
      <trkpt lat="45.74467" lon="6.79164">
        <ele>2292.7244094488</ele>
        <time>2013-09-22T09:30:40.950Z</time>
      </trkpt>
      <trkpt lat="45.74458" lon="6.79171">
        <ele>2291.8385826772</ele>
        <time>2013-09-22T09:30:43.950Z</time>
      </trkpt>
      <trkpt lat="45.74447" lon="6.79177">
        <ele>2290.3953235772</ele>
        <time>2013-09-22T09:30:47.980Z</time>
      </trkpt>
      <trkpt lat="45.74436" lon="6.79183">
        <ele>2288.362803252</ele>
        <time>2013-09-22T09:30:51.980Z</time>
      </trkpt>
      <trkpt lat="45.74425" lon="6.7919">
        <ele>2285.84</ele>
        <time>2013-09-22T09:30:56.950Z</time>
      </trkpt>
      <trkpt lat="45.74415" lon="6.79199">
        <ele>2283.34</ele>
        <time>2013-09-22T09:31:01.950Z</time>
      </trkpt>
      <trkpt lat="45.74404" lon="6.79208">
        <ele>2280.78800128</ele>
        <time>2013-09-22T09:31:07.160Z</time>
      </trkpt>
      <trkpt lat="45.74396" lon="6.79216">
        <ele>2279.18800128</ele>
        <time>2013-09-22T09:31:11.160Z</time>
      </trkpt>
      <trkpt lat="45.74387" lon="6.79224">
        <ele>2277.18800128</ele>
        <time>2013-09-22T09:31:16.160Z</time>
      </trkpt>
      <trkpt lat="45.74381" lon="6.79237">
        <ele>2275.58800128</ele>
        <time>2013-09-22T09:31:20.160Z</time>
      </trkpt>
      <trkpt lat="45.74377" lon="6.7925">
        <ele>2274.02799872</ele>
        <time>2013-09-22T09:31:24.060Z</time>
      </trkpt>
      <trkpt lat="45.74371" lon="6.79265">
        <ele>2272.27100288</ele>
        <time>2013-09-22T09:31:29.060Z</time>
      </trkpt>
      <trkpt lat="45.74365" lon="6.79281">
        <ele>2270.77099904</ele>
        <time>2013-09-22T09:31:34.060Z</time>
      </trkpt>
      <trkpt lat="45.74357" lon="6.79294">
        <ele>2269.76500096</ele>
        <time>2013-09-22T09:31:38.980Z</time>
      </trkpt>
      <trkpt lat="45.74346" lon="6.79299">
        <ele>2269.26499968</ele>
        <time>2013-09-22T09:31:43.980Z</time>
      </trkpt>
      <trkpt lat="45.74336" lon="6.79302">
        <ele>2267.7350016</ele>
        <time>2013-09-22T09:31:49.160Z</time>
      </trkpt>
      <trkpt lat="45.74333" lon="6.79316">
        <ele>2265.2350016</ele>
        <time>2013-09-22T09:31:54.160Z</time>
      </trkpt>
      <trkpt lat="45.74323" lon="6.79326">
        <ele>2262.8300032</ele>
        <time>2013-09-22T09:31:58.970Z</time>
      </trkpt>
      <trkpt lat="45.74312" lon="6.79332">
        <ele>2259.78</ele>
        <time>2013-09-22T09:32:05.070Z</time>
      </trkpt>
      <trkpt lat="45.74303" lon="6.79325">
        <ele>2257.2350016</ele>
        <time>2013-09-22T09:32:10.160Z</time>
      </trkpt>
      <trkpt lat="45.74292" lon="6.79319">
        <ele>2255.2350016</ele>
        <time>2013-09-22T09:32:14.160Z</time>
      </trkpt>
      <trkpt lat="45.74282" lon="6.79313">
        <ele>2253.2350016</ele>
        <time>2013-09-22T09:32:18.160Z</time>
      </trkpt>
      <trkpt lat="45.74276" lon="6.793">
        <ele>2250.7350016</ele>
        <time>2013-09-22T09:32:23.160Z</time>
      </trkpt>
      <trkpt lat="45.74271" lon="6.79288">
        <ele>2248.2900032</ele>
        <time>2013-09-22T09:32:28.050Z</time>
      </trkpt>
      <trkpt lat="45.74262" lon="6.79293">
        <ele>2246.34</ele>
        <time>2013-09-22T09:32:31.950Z</time>
      </trkpt>
      <trkpt lat="45.74252" lon="6.79294">
        <ele>2244.34</ele>
        <time>2013-09-22T09:32:35.950Z</time>
      </trkpt>
      <trkpt lat="45.74243" lon="6.79286">
        <ele>2242.37099904</ele>
        <time>2013-09-22T09:32:42.060Z</time>
      </trkpt>
      <trkpt lat="45.74234" lon="6.79279">
        <ele>2240.30699904</ele>
        <time>2013-09-22T09:32:48.940Z</time>
      </trkpt>
      <trkpt lat="45.74225" lon="6.79269">
        <ele>2238</ele>
        <time>2013-09-22T09:32:56.950Z</time>
      </trkpt>
      <trkpt lat="45.74217" lon="6.79261">
        <ele>2238</ele>
        <time>2013-09-22T09:33:04.050Z</time>
      </trkpt>
      <trkpt lat="45.74207" lon="6.79258">
        <ele>2236.22900224</ele>
        <time>2013-09-22T09:33:09.160Z</time>
      </trkpt>
      <trkpt lat="45.74197" lon="6.79251">
        <ele>2230.84100096</ele>
        <time>2013-09-22T09:33:17.160Z</time>
      </trkpt>
      <trkpt lat="45.74189" lon="6.79241">
        <ele>2226.9792902433</ele>
        <time>2013-09-22T09:33:30.080Z</time>
      </trkpt>
      <trkpt lat="45.7418" lon="6.79233">
        <ele>2225.7958575437</ele>
        <time>2013-09-22T09:33:34.080Z</time>
      </trkpt>
      <trkpt lat="45.74172" lon="6.79225">
        <ele>2224.140967373</ele>
        <time>2013-09-22T09:33:37.980Z</time>
      </trkpt>
      <trkpt lat="45.74164" lon="6.79215">
        <ele>2220.5912830239</ele>
        <time>2013-09-22T09:33:42.980Z</time>
      </trkpt>
      <trkpt lat="45.74164" lon="6.792">
        <ele>2216.008</ele>
        <time>2013-09-22T09:33:49.950Z</time>
      </trkpt>
      <trkpt lat="45.74163" lon="6.79185">
        <ele>2213.008</ele>
        <time>2013-09-22T09:33:54.950Z</time>
      </trkpt>
      <trkpt lat="45.74159" lon="6.7917">
        <ele>2210.2350016</ele>
        <time>2013-09-22T09:34:00.160Z</time>
      </trkpt>
      <trkpt lat="45.74157" lon="6.79155">
        <ele>2207.7350016</ele>
        <time>2013-09-22T09:34:05.160Z</time>
      </trkpt>
      <trkpt lat="45.74152" lon="6.7914">
        <ele>2206.44700032</ele>
        <time>2013-09-22T09:34:12.160Z</time>
      </trkpt>
      <trkpt lat="45.74143" lon="6.79132">
        <ele>2205.94700032</ele>
        <time>2013-09-22T09:34:17.160Z</time>
      </trkpt>
      <trkpt lat="45.74134" lon="6.79123">
        <ele>2205.54700032</ele>
        <time>2013-09-22T09:34:21.160Z</time>
      </trkpt>
      <trkpt lat="45.74127" lon="6.7911">
        <ele>2205.04700032</ele>
        <time>2013-09-22T09:34:26.160Z</time>
      </trkpt>
      <trkpt lat="45.74123" lon="6.79094">
        <ele>2202.7850048</ele>
        <time>2013-09-22T09:34:31.060Z</time>
      </trkpt>
      <trkpt lat="45.74117" lon="6.79082">
        <ele>2200.7850048</ele>
        <time>2013-09-22T09:34:35.060Z</time>
      </trkpt>
      <trkpt lat="45.74112" lon="6.79067">
        <ele>2198.29900672</ele>
        <time>2013-09-22T09:34:39.060Z</time>
      </trkpt>
      <trkpt lat="45.74107" lon="6.79052">
        <ele>2194.79899776</ele>
        <time>2013-09-22T09:34:44.060Z</time>
      </trkpt>
      <trkpt lat="45.74102" lon="6.79039">
        <ele>2192.45999872</ele>
        <time>2013-09-22T09:34:47.980Z</time>
      </trkpt>
      <trkpt lat="45.741" lon="6.79023">
        <ele>2190.46000384</ele>
        <time>2013-09-22T09:34:52.980Z</time>
      </trkpt>
      <trkpt lat="45.74098" lon="6.79007">
        <ele>2188.84399872</ele>
        <time>2013-09-22T09:34:57.020Z</time>
      </trkpt>
      <trkpt lat="45.74094" lon="6.78991">
        <ele>2187.24399872</ele>
        <time>2013-09-22T09:35:01.020Z</time>
      </trkpt>
      <trkpt lat="45.74086" lon="6.78979">
        <ele>2185.60400128</ele>
        <time>2013-09-22T09:35:05.120Z</time>
      </trkpt>
      <trkpt lat="45.74077" lon="6.78966">
        <ele>2183.7350016</ele>
        <time>2013-09-22T09:35:09.160Z</time>
      </trkpt>
      <trkpt lat="45.7407" lon="6.78954">
        <ele>2181.7350016</ele>
        <time>2013-09-22T09:35:13.160Z</time>
      </trkpt>
      <trkpt lat="45.74062" lon="6.78942">
        <ele>2179.84100096</ele>
        <time>2013-09-22T09:35:17.160Z</time>
      </trkpt>
      <trkpt lat="45.74053" lon="6.78935">
        <ele>2178.64100096</ele>
        <time>2013-09-22T09:35:21.160Z</time>
      </trkpt>
      <trkpt lat="45.74042" lon="6.78929">
        <ele>2177.14100096</ele>
        <time>2013-09-22T09:35:26.160Z</time>
      </trkpt>
      <trkpt lat="45.74032" lon="6.78928">
        <ele>2176.31399936</ele>
        <time>2013-09-22T09:35:30.060Z</time>
      </trkpt>
      <trkpt lat="45.7402" lon="6.78923">
        <ele>2175.51399936</ele>
        <time>2013-09-22T09:35:34.060Z</time>
      </trkpt>
      <trkpt lat="45.74011" lon="6.78914">
        <ele>2174.75500032</ele>
        <time>2013-09-22T09:35:39.080Z</time>
      </trkpt>
      <trkpt lat="45.74006" lon="6.78913">
        <ele>2174.55500032</ele>
        <time>2013-09-22T09:35:41.080Z</time>
      </trkpt>
      <trkpt lat="45.73997" lon="6.78922">
        <ele>2174.05500032</ele>
        <time>2013-09-22T09:35:46.080Z</time>
      </trkpt>
      <trkpt lat="45.73987" lon="6.78924">
        <ele>2173.09400064</ele>
        <time>2013-09-22T09:35:51.160Z</time>
      </trkpt>
      <trkpt lat="45.73977" lon="6.78923">
        <ele>2172.09400064</ele>
        <time>2013-09-22T09:35:56.160Z</time>
      </trkpt>
      <trkpt lat="45.73966" lon="6.78928">
        <ele>2165.4700032</ele>
        <time>2013-09-22T09:36:03.160Z</time>
      </trkpt>
      <trkpt lat="45.73955" lon="6.78924">
        <ele>2161.54100096</ele>
        <time>2013-09-22T09:36:08.160Z</time>
      </trkpt>
      <trkpt lat="45.73944" lon="6.78928">
        <ele>2160.34100096</ele>
        <time>2013-09-22T09:36:12.160Z</time>
      </trkpt>
      <trkpt lat="45.73934" lon="6.78936">
        <ele>2158.843196114</ele>
        <time>2013-09-22T09:36:17.160Z</time>
      </trkpt>
      <trkpt lat="45.73925" lon="6.78947">
        <ele>2157.3639052396</ele>
        <time>2013-09-22T09:36:22.160Z</time>
      </trkpt>
      <trkpt lat="45.73916" lon="6.78953">
        <ele>2155</ele>
        <time>2013-09-22T09:36:52.970Z</time>
      </trkpt>
      <trkpt lat="45.73913" lon="6.78939">
        <ele>2155.439919463</ele>
        <time>2013-09-22T09:37:01.060Z</time>
      </trkpt>
      <trkpt lat="45.73908" lon="6.78924">
        <ele>2156</ele>
        <time>2013-09-22T09:37:06.990Z</time>
      </trkpt>
      <trkpt lat="45.73905" lon="6.78909">
        <ele>2156</ele>
        <time>2013-09-22T09:37:10.990Z</time>
      </trkpt>
      <trkpt lat="45.73902" lon="6.78895">
        <ele>2156</ele>
        <time>2013-09-22T09:37:14.990Z</time>
      </trkpt>
      <trkpt lat="45.73898" lon="6.7888">
        <ele>2156.3369356932</ele>
        <time>2013-09-22T09:37:20.060Z</time>
      </trkpt>
      <trkpt lat="45.73894" lon="6.78867">
        <ele>2156.8280938801</ele>
        <time>2013-09-22T09:37:25.060Z</time>
      </trkpt>
      <trkpt lat="45.73887" lon="6.78856">
        <ele>2157</ele>
        <time>2013-09-22T09:37:30.160Z</time>
      </trkpt>
      <trkpt lat="45.73881" lon="6.78841">
        <ele>2157</ele>
        <time>2013-09-22T09:37:35.160Z</time>
      </trkpt>
      <trkpt lat="45.73882" lon="6.78826">
        <ele>2157</ele>
        <time>2013-09-22T09:37:39.160Z</time>
      </trkpt>
      <trkpt lat="45.73881" lon="6.7881">
        <ele>2157</ele>
        <time>2013-09-22T09:37:44.160Z</time>
      </trkpt>
      <trkpt lat="45.73877" lon="6.78796">
        <ele>2158.01199872</ele>
        <time>2013-09-22T09:37:49.160Z</time>
      </trkpt>
      <trkpt lat="45.73874" lon="6.78789">
        <ele>2159.21199872</ele>
        <time>2013-09-22T09:37:52.160Z</time>
      </trkpt>
      <trkpt lat="45.73872" lon="6.78781">
        <ele>2160.41199872</ele>
        <time>2013-09-22T09:37:55.160Z</time>
      </trkpt>
      <trkpt lat="45.7387" lon="6.78775">
        <ele>2160.89400064</ele>
        <time>2013-09-22T09:37:57.160Z</time>
      </trkpt>
      <trkpt lat="45.73864" lon="6.78764">
        <ele>2160.09400064</ele>
        <time>2013-09-22T09:38:01.160Z</time>
      </trkpt>
      <trkpt lat="45.73858" lon="6.78751">
        <ele>2159.29400064</ele>
        <time>2013-09-22T09:38:05.160Z</time>
      </trkpt>
      <trkpt lat="45.7385" lon="6.78738">
        <ele>2158.74700032</ele>
        <time>2013-09-22T09:38:09.160Z</time>
      </trkpt>
      <trkpt lat="45.73849" lon="6.78724">
        <ele>2158.34700032</ele>
        <time>2013-09-22T09:38:13.160Z</time>
      </trkpt>
      <trkpt lat="45.73849" lon="6.78708">
        <ele>2156.99899776</ele>
        <time>2013-09-22T09:38:18.060Z</time>
      </trkpt>
      <trkpt lat="45.73849" lon="6.7869">
        <ele>2153.49900672</ele>
        <time>2013-09-22T09:38:23.060Z</time>
      </trkpt>
      <trkpt lat="45.73842" lon="6.78674">
        <ele>2150.3249984</ele>
        <time>2013-09-22T09:38:27.980Z</time>
      </trkpt>
      <trkpt lat="45.73832" lon="6.78666">
        <ele>2148.3249984</ele>
        <time>2013-09-22T09:38:31.980Z</time>
      </trkpt>
      <trkpt lat="45.73822" lon="6.78658">
        <ele>2145.84</ele>
        <time>2013-09-22T09:38:36.950Z</time>
      </trkpt>
      <trkpt lat="45.73817" lon="6.78649">
        <ele>2143.84</ele>
        <time>2013-09-22T09:38:40.950Z</time>
      </trkpt>
      <trkpt lat="45.73813" lon="6.78643">
        <ele>2142.34</ele>
        <time>2013-09-22T09:38:43.950Z</time>
      </trkpt>
      <trkpt lat="45.73805" lon="6.78635">
        <ele>2140.14199808</ele>
        <time>2013-09-22T09:38:48.060Z</time>
      </trkpt>
      <trkpt lat="45.73801" lon="6.78633">
        <ele>2138.94199808</ele>
        <time>2013-09-22T09:38:50.060Z</time>
      </trkpt>
      <trkpt lat="45.73794" lon="6.7863">
        <ele>2137.14200576</ele>
        <time>2013-09-22T09:38:53.060Z</time>
      </trkpt>
      <trkpt lat="45.73785" lon="6.78622">
        <ele>2134.16600576</ele>
        <time>2013-09-22T09:38:58.020Z</time>
      </trkpt>
      <trkpt lat="45.73778" lon="6.7861">
        <ele>2130.50600192</ele>
        <time>2013-09-22T09:39:04.120Z</time>
      </trkpt>
      <trkpt lat="45.73768" lon="6.78603">
        <ele>2127.7437954339</ele>
        <time>2013-09-22T09:39:09.160Z</time>
      </trkpt>
      <trkpt lat="45.73758" lon="6.78599">
        <ele>2125.7576987463</ele>
        <time>2013-09-22T09:39:13.160Z</time>
      </trkpt>
      <trkpt lat="45.73747" lon="6.78596">
        <ele>2123.3554882112</ele>
        <time>2013-09-22T09:39:17.980Z</time>
      </trkpt>
      <trkpt lat="45.73737" lon="6.78593">
        <ele>2121.3413888713</ele>
        <time>2013-09-22T09:39:21.980Z</time>
      </trkpt>
      <trkpt lat="45.73726" lon="6.78589">
        <ele>2119.3272895314</ele>
        <time>2013-09-22T09:39:25.980Z</time>
      </trkpt>
      <trkpt lat="45.73715" lon="6.78583">
        <ele>2116.94199808</ele>
        <time>2013-09-22T09:39:30.060Z</time>
      </trkpt>
      <trkpt lat="45.73706" lon="6.78578">
        <ele>2114.54199808</ele>
        <time>2013-09-22T09:39:34.060Z</time>
      </trkpt>
      <trkpt lat="45.73699" lon="6.78572">
        <ele>2112.69900672</ele>
        <time>2013-09-22T09:39:37.060Z</time>
      </trkpt>
      <trkpt lat="45.73695" lon="6.78567">
        <ele>2111.29900672</ele>
        <time>2013-09-22T09:39:39.060Z</time>
      </trkpt>
      <trkpt lat="45.73691" lon="6.78563">
        <ele>2109.89900672</ele>
        <time>2013-09-22T09:39:41.060Z</time>
      </trkpt>
      <trkpt lat="45.73685" lon="6.78555">
        <ele>2107.79899776</ele>
        <time>2013-09-22T09:39:44.060Z</time>
      </trkpt>
      <trkpt lat="45.73679" lon="6.78543">
        <ele>2105.14199808</ele>
        <time>2013-09-22T09:39:48.060Z</time>
      </trkpt>
      <trkpt lat="45.73672" lon="6.78531">
        <ele>2102.68200192</ele>
        <time>2013-09-22T09:39:52.160Z</time>
      </trkpt>
      <trkpt lat="45.73662" lon="6.78521">
        <ele>2099.09400064</ele>
        <time>2013-09-22T09:40:01.160Z</time>
      </trkpt>
      <trkpt lat="45.73653" lon="6.78517">
        <ele>2098.29400064</ele>
        <time>2013-09-22T09:40:05.160Z</time>
      </trkpt>
      <trkpt lat="45.73644" lon="6.78512">
        <ele>2097.54700032</ele>
        <time>2013-09-22T09:40:11.160Z</time>
      </trkpt>
      <trkpt lat="45.73634" lon="6.78508">
        <ele>2095.66600064</ele>
        <time>2013-09-22T09:40:29.970Z</time>
      </trkpt>
      <trkpt lat="45.73624" lon="6.78503">
        <ele>2095.16600064</ele>
        <time>2013-09-22T09:40:34.970Z</time>
      </trkpt>
      <trkpt lat="45.73613" lon="6.78502">
        <ele>2093.71400192</ele>
        <time>2013-09-22T09:40:43.060Z</time>
      </trkpt>
      <trkpt lat="45.73605" lon="6.78493">
        <ele>2092.71399936</ele>
        <time>2013-09-22T09:40:48.060Z</time>
      </trkpt>
      <trkpt lat="45.73594" lon="6.78486">
        <ele>2091.51399936</ele>
        <time>2013-09-22T09:40:54.060Z</time>
      </trkpt>
      <trkpt lat="45.73584" lon="6.78482">
        <ele>2088.88200192</ele>
        <time>2013-09-22T09:41:00.160Z</time>
      </trkpt>
      <trkpt lat="45.73574" lon="6.78487">
        <ele>2085.28200192</ele>
        <time>2013-09-22T09:41:06.160Z</time>
      </trkpt>
      <trkpt lat="45.73564" lon="6.78482">
        <ele>2085</ele>
        <time>2013-09-22T09:41:12.160Z</time>
      </trkpt>
      <trkpt lat="45.73554" lon="6.78479">
        <ele>2085</ele>
        <time>2013-09-22T09:41:16.160Z</time>
      </trkpt>
      <trkpt lat="45.73546" lon="6.78468">
        <ele>2084.09400064</ele>
        <time>2013-09-22T09:41:21.160Z</time>
      </trkpt>
      <trkpt lat="45.73537" lon="6.78456">
        <ele>2083.09400064</ele>
        <time>2013-09-22T09:41:26.160Z</time>
      </trkpt>
      <trkpt lat="45.73526" lon="6.78456">
        <ele>2079.82900224</ele>
        <time>2013-09-22T09:41:31.160Z</time>
      </trkpt>
      <trkpt lat="45.73513" lon="6.78459">
        <ele>2076.32900224</ele>
        <time>2013-09-22T09:41:36.160Z</time>
      </trkpt>
      <trkpt lat="45.73505" lon="6.78451">
        <ele>2074.58800128</ele>
        <time>2013-09-22T09:41:40.160Z</time>
      </trkpt>
      <trkpt lat="45.73495" lon="6.7844">
        <ele>2072.58800128</ele>
        <time>2013-09-22T09:41:45.160Z</time>
      </trkpt>
      <trkpt lat="45.73491" lon="6.78428">
        <ele>2070.48200192</ele>
        <time>2013-09-22T09:41:49.160Z</time>
      </trkpt>
      <trkpt lat="45.73488" lon="6.78414">
        <ele>2068.08200192</ele>
        <time>2013-09-22T09:41:53.160Z</time>
      </trkpt>
      <trkpt lat="45.73484" lon="6.78398">
        <ele>2065.0901899196</ele>
        <time>2013-09-22T09:41:58.160Z</time>
      </trkpt>
      <trkpt lat="45.7348" lon="6.78383">
        <ele>2062.1169481441</ele>
        <time>2013-09-22T09:42:03.160Z</time>
      </trkpt>
      <trkpt lat="45.73474" lon="6.7837">
        <ele>2059.9212935875</ele>
        <time>2013-09-22T09:42:06.980Z</time>
      </trkpt>
      <trkpt lat="45.73466" lon="6.78359">
        <ele>2058.4076675979</ele>
        <time>2013-09-22T09:42:11.980Z</time>
      </trkpt>
      <trkpt lat="45.73458" lon="6.78348">
        <ele>2056.82800384</ele>
        <time>2013-09-22T09:42:17.060Z</time>
      </trkpt>
      <trkpt lat="45.7345" lon="6.78339">
        <ele>2054.82799872</ele>
        <time>2013-09-22T09:42:22.060Z</time>
      </trkpt>
      <trkpt lat="45.73442" lon="6.7833">
        <ele>2052.156</ele>
        <time>2013-09-22T09:42:35.070Z</time>
      </trkpt>
      <trkpt lat="45.73433" lon="6.78321">
        <ele>2051.29200128</ele>
        <time>2013-09-22T09:42:40.170Z</time>
      </trkpt>
      <trkpt lat="45.73422" lon="6.78314">
        <ele>2050.29400064</ele>
        <time>2013-09-22T09:42:45.160Z</time>
      </trkpt>
      <trkpt lat="45.73413" lon="6.78309">
        <ele>2048.48200192</ele>
        <time>2013-09-22T09:42:49.160Z</time>
      </trkpt>
      <trkpt lat="45.73402" lon="6.7831">
        <ele>2046.14200576</ele>
        <time>2013-09-22T09:42:53.060Z</time>
      </trkpt>
      <trkpt lat="45.73391" lon="6.78311">
        <ele>2043.82800384</ele>
        <time>2013-09-22T09:42:57.060Z</time>
      </trkpt>
      <trkpt lat="45.73383" lon="6.78302">
        <ele>2041.82799872</ele>
        <time>2013-09-22T09:43:02.060Z</time>
      </trkpt>
      <trkpt lat="45.73392" lon="6.78295">
        <ele>2039.74200576</ele>
        <time>2013-09-22T09:43:07.060Z</time>
      </trkpt>
      <trkpt lat="45.73402" lon="6.78288">
        <ele>2037.34200576</ele>
        <time>2013-09-22T09:43:11.060Z</time>
      </trkpt>
      <trkpt lat="45.73413" lon="6.78284">
        <ele>2034.94200576</ele>
        <time>2013-09-22T09:43:15.060Z</time>
      </trkpt>
      <trkpt lat="45.73403" lon="6.78276">
        <ele>2030.23200256</ele>
        <time>2013-09-22T09:43:26.050Z</time>
      </trkpt>
      <trkpt lat="45.73391" lon="6.78275">
        <ele>2028.2350016</ele>
        <time>2013-09-22T09:43:30.160Z</time>
      </trkpt>
      <trkpt lat="45.7338" lon="6.78271">
        <ele>2026.2350016</ele>
        <time>2013-09-22T09:43:34.160Z</time>
      </trkpt>
      <trkpt lat="45.73372" lon="6.78261">
        <ele>2024.49400064</ele>
        <time>2013-09-22T09:43:39.160Z</time>
      </trkpt>
      <trkpt lat="45.73381" lon="6.78256">
        <ele>2021.3508213992</ele>
        <time>2013-09-22T09:44:02.060Z</time>
      </trkpt>
      <trkpt lat="45.73372" lon="6.78248">
        <ele>2019.2932082305</ele>
        <time>2013-09-22T09:44:06.060Z</time>
      </trkpt>
      <trkpt lat="45.73379" lon="6.78237">
        <ele>2014.75500672</ele>
        <time>2013-09-22T09:44:16.980Z</time>
      </trkpt>
      <trkpt lat="45.73375" lon="6.78224">
        <ele>2010.55500672</ele>
        <time>2013-09-22T09:44:22.980Z</time>
      </trkpt>
      <trkpt lat="45.73386" lon="6.78226">
        <ele>2007.02800384</ele>
        <time>2013-09-22T09:44:29.060Z</time>
      </trkpt>
      <trkpt lat="45.73397" lon="6.78231">
        <ele>2005.42800384</ele>
        <time>2013-09-22T09:44:33.060Z</time>
      </trkpt>
      <trkpt lat="45.73408" lon="6.7823">
        <ele>2003.82800384</ele>
        <time>2013-09-22T09:44:37.060Z</time>
      </trkpt>
      <trkpt lat="45.7342" lon="6.78228">
        <ele>2002.22800384</ele>
        <time>2013-09-22T09:44:41.060Z</time>
      </trkpt>
      <trkpt lat="45.73432" lon="6.78228">
        <ele>2000.8395666142</ele>
        <time>2013-09-22T09:44:55.160Z</time>
      </trkpt>
      <trkpt lat="45.73443" lon="6.78227">
        <ele>1999.6036604878</ele>
        <time>2013-09-22T09:44:59.080Z</time>
      </trkpt>
      <trkpt lat="45.73453" lon="6.78229">
        <ele>1997.1707317073</ele>
        <time>2013-09-22T09:45:03.070Z</time>
      </trkpt>
      <trkpt lat="45.73465" lon="6.78232">
        <ele>1994.78800128</ele>
        <time>2013-09-22T09:45:07.160Z</time>
      </trkpt>
      <trkpt lat="45.73474" lon="6.78239">
        <ele>1993.18800128</ele>
        <time>2013-09-22T09:45:11.160Z</time>
      </trkpt>
      <trkpt lat="45.73483" lon="6.78249">
        <ele>1991.18800128</ele>
        <time>2013-09-22T09:45:16.160Z</time>
      </trkpt>
      <trkpt lat="45.73475" lon="6.78236">
        <ele>1989.04100096</ele>
        <time>2013-09-22T09:45:23.160Z</time>
      </trkpt>
      <trkpt lat="45.73467" lon="6.78225">
        <ele>1987.83200256</ele>
        <time>2013-09-22T09:45:27.050Z</time>
      </trkpt>
      <trkpt lat="45.73457" lon="6.78215">
        <ele>1985.83200256</ele>
        <time>2013-09-22T09:45:32.050Z</time>
      </trkpt>
      <trkpt lat="45.73446" lon="6.78207">
        <ele>1984.23200256</ele>
        <time>2013-09-22T09:45:36.050Z</time>
      </trkpt>
      <trkpt lat="45.73437" lon="6.78199">
        <ele>1982.2350016</ele>
        <time>2013-09-22T09:45:40.160Z</time>
      </trkpt>
      <trkpt lat="45.73427" lon="6.78191">
        <ele>1980.2350016</ele>
        <time>2013-09-22T09:45:44.160Z</time>
      </trkpt>
      <trkpt lat="45.73417" lon="6.78184">
        <ele>1978.42799872</ele>
        <time>2013-09-22T09:45:48.060Z</time>
      </trkpt>
      <trkpt lat="45.73408" lon="6.78175">
        <ele>1976.78400256</ele>
        <time>2013-09-22T09:45:52.170Z</time>
      </trkpt>
      <trkpt lat="45.73399" lon="6.78168">
        <ele>1975.18800128</ele>
        <time>2013-09-22T09:45:56.160Z</time>
      </trkpt>
      <trkpt lat="45.73389" lon="6.78161">
        <ele>1973.20400128</ele>
        <time>2013-09-22T09:46:01.120Z</time>
      </trkpt>
      <trkpt lat="45.73397" lon="6.78149">
        <ele>1970.7900032</ele>
        <time>2013-09-22T09:46:07.050Z</time>
      </trkpt>
      <trkpt lat="45.73408" lon="6.78146">
        <ele>1968.7900032</ele>
        <time>2013-09-22T09:46:11.050Z</time>
      </trkpt>
      <trkpt lat="45.73418" lon="6.78147">
        <ele>1967.2900032</ele>
        <time>2013-09-22T09:46:14.050Z</time>
      </trkpt>
      <trkpt lat="45.73427" lon="6.78154">
        <ele>1964.16600064</ele>
        <time>2013-09-22T09:46:34.970Z</time>
      </trkpt>
      <trkpt lat="45.73438" lon="6.78159">
        <ele>1963.76600064</ele>
        <time>2013-09-22T09:46:38.970Z</time>
      </trkpt>
      <trkpt lat="45.73451" lon="6.78161">
        <ele>1963.36600064</ele>
        <time>2013-09-22T09:46:42.970Z</time>
      </trkpt>
      <trkpt lat="45.73462" lon="6.78163">
        <ele>1962.69900672</ele>
        <time>2013-09-22T09:46:47.060Z</time>
      </trkpt>
      <trkpt lat="45.73473" lon="6.78165">
        <ele>1959.82900224</ele>
        <time>2013-09-22T09:46:51.160Z</time>
      </trkpt>
      <trkpt lat="45.73483" lon="6.78169">
        <ele>1954.94700032</ele>
        <time>2013-09-22T09:47:07.160Z</time>
      </trkpt>
      <trkpt lat="45.73494" lon="6.78169">
        <ele>1954.54700032</ele>
        <time>2013-09-22T09:47:11.160Z</time>
      </trkpt>
      <trkpt lat="45.73505" lon="6.78171">
        <ele>1954.14700032</ele>
        <time>2013-09-22T09:47:15.160Z</time>
      </trkpt>
      <trkpt lat="45.73515" lon="6.78175">
        <ele>1952.48200192</ele>
        <time>2013-09-22T09:47:19.160Z</time>
      </trkpt>
      <trkpt lat="45.73526" lon="6.78178">
        <ele>1950.08200192</ele>
        <time>2013-09-22T09:47:23.160Z</time>
      </trkpt>
      <trkpt lat="45.73537" lon="6.78176">
        <ele>1947.85800064</ele>
        <time>2013-09-22T09:47:28.050Z</time>
      </trkpt>
      <trkpt lat="45.73538" lon="6.78162">
        <ele>1945.88200192</ele>
        <time>2013-09-22T09:48:00.160Z</time>
      </trkpt>
      <trkpt lat="45.7353" lon="6.78152">
        <ele>1943.48200192</ele>
        <time>2013-09-22T09:48:04.160Z</time>
      </trkpt>
      <trkpt lat="45.73522" lon="6.78139">
        <ele>1941.77900032</ele>
        <time>2013-09-22T09:48:08.840Z</time>
      </trkpt>
      <trkpt lat="45.73516" lon="6.78127">
        <ele>1941.37900032</ele>
        <time>2013-09-22T09:48:12.840Z</time>
      </trkpt>
      <trkpt lat="45.73507" lon="6.78113">
        <ele>1940.076</ele>
        <time>2013-09-22T09:48:17.950Z</time>
      </trkpt>
      <trkpt lat="45.73498" lon="6.78103">
        <ele>1937.20600448</ele>
        <time>2013-09-22T09:48:22.050Z</time>
      </trkpt>
      <trkpt lat="45.73489" lon="6.78094">
        <ele>1934.40600448</ele>
        <time>2013-09-22T09:48:26.050Z</time>
      </trkpt>
      <trkpt lat="45.73484" lon="6.78079">
        <ele>1932.58800128</ele>
        <time>2013-09-22T09:48:30.160Z</time>
      </trkpt>
      <trkpt lat="45.73482" lon="6.78063">
        <ele>1930.98800128</ele>
        <time>2013-09-22T09:48:34.160Z</time>
      </trkpt>
      <trkpt lat="45.73476" lon="6.78048">
        <ele>1929.02800384</ele>
        <time>2013-09-22T09:48:39.060Z</time>
      </trkpt>
      <trkpt lat="45.73467" lon="6.78042">
        <ele>1927.42800384</ele>
        <time>2013-09-22T09:48:43.060Z</time>
      </trkpt>
      <trkpt lat="45.73458" lon="6.78033">
        <ele>1925.86200192</ele>
        <time>2013-09-22T09:48:47.090Z</time>
      </trkpt>
      <trkpt lat="45.7345" lon="6.78019">
        <ele>1924.36200192</ele>
        <time>2013-09-22T09:48:52.090Z</time>
      </trkpt>
      <trkpt lat="45.73443" lon="6.78007">
        <ele>1923.16200192</ele>
        <time>2013-09-22T09:48:56.090Z</time>
      </trkpt>
      <trkpt lat="45.73438" lon="6.77992">
        <ele>1921.2350016</ele>
        <time>2013-09-22T09:49:00.160Z</time>
      </trkpt>
      <trkpt lat="45.73433" lon="6.77977">
        <ele>1919.2350016</ele>
        <time>2013-09-22T09:49:04.160Z</time>
      </trkpt>
      <trkpt lat="45.73426" lon="6.77967">
        <ele>1917.43200256</ele>
        <time>2013-09-22T09:49:08.050Z</time>
      </trkpt>
      <trkpt lat="45.73438" lon="6.77963">
        <ele>1913.46400256</ele>
        <time>2013-09-22T09:49:17.970Z</time>
      </trkpt>
      <trkpt lat="45.73448" lon="6.77964">
        <ele>1912.26400256</ele>
        <time>2013-09-22T09:49:20.970Z</time>
      </trkpt>
      <trkpt lat="45.73459" lon="6.7797">
        <ele>1910.66400256</ele>
        <time>2013-09-22T09:49:24.970Z</time>
      </trkpt>
      <trkpt lat="45.73471" lon="6.77972">
        <ele>1908.8350016</ele>
        <time>2013-09-22T09:49:28.960Z</time>
      </trkpt>
      <trkpt lat="45.73482" lon="6.77976">
        <ele>1906.8350016</ele>
        <time>2013-09-22T09:49:32.960Z</time>
      </trkpt>
      <trkpt lat="45.73491" lon="6.77984">
        <ele>1904.82800384</ele>
        <time>2013-09-22T09:49:37.060Z</time>
      </trkpt>
      <trkpt lat="45.7349" lon="6.77968">
        <ele>1901.62800384</ele>
        <time>2013-09-22T09:49:45.060Z</time>
      </trkpt>
      <trkpt lat="45.73487" lon="6.77952">
        <ele>1899.98800128</ele>
        <time>2013-09-22T09:49:49.160Z</time>
      </trkpt>
      <trkpt lat="45.73485" lon="6.77937">
        <ele>1897.58800128</ele>
        <time>2013-09-22T09:49:55.160Z</time>
      </trkpt>
      <trkpt lat="45.73477" lon="6.77925">
        <ele>1896.24100096</ele>
        <time>2013-09-22T09:49:59.160Z</time>
      </trkpt>
      <trkpt lat="45.73471" lon="6.77911">
        <ele>1894.77099904</ele>
        <time>2013-09-22T09:50:04.060Z</time>
      </trkpt>
      <trkpt lat="45.73462" lon="6.77902">
        <ele>1893.59499904</ele>
        <time>2013-09-22T09:50:07.980Z</time>
      </trkpt>
      <trkpt lat="45.73456" lon="6.77887">
        <ele>1892.09500288</ele>
        <time>2013-09-22T09:50:12.980Z</time>
      </trkpt>
      <trkpt lat="45.73452" lon="6.77872">
        <ele>1890.85800064</ele>
        <time>2013-09-22T09:50:18.050Z</time>
      </trkpt>
      <trkpt lat="45.73441" lon="6.77867">
        <ele>1890.25800064</ele>
        <time>2013-09-22T09:50:24.050Z</time>
      </trkpt>
      <trkpt lat="45.7343" lon="6.7787">
        <ele>1889.7492569274</ele>
        <time>2013-09-22T09:50:29.160Z</time>
      </trkpt>
      <trkpt lat="45.73421" lon="6.77876">
        <ele>1889.3528246907</ele>
        <time>2013-09-22T09:50:33.160Z</time>
      </trkpt>
      <trkpt lat="45.73414" lon="6.77886">
        <ele>1886</ele>
        <time>2013-09-22T09:50:52.160Z</time>
      </trkpt>
      <trkpt lat="45.73405" lon="6.77896">
        <ele>1885.84100096</ele>
        <time>2013-09-22T09:50:57.160Z</time>
      </trkpt>
      <trkpt lat="45.73398" lon="6.77906">
        <ele>1884.64100096</ele>
        <time>2013-09-22T09:51:01.160Z</time>
      </trkpt>
      <trkpt lat="45.73387" lon="6.7791">
        <ele>1883.14100096</ele>
        <time>2013-09-22T09:51:06.160Z</time>
      </trkpt>
      <trkpt lat="45.73381" lon="6.77897">
        <ele>1883</ele>
        <time>2013-09-22T09:51:16.060Z</time>
      </trkpt>
      <trkpt lat="45.7338" lon="6.7788">
        <ele>1885.7150016</ele>
        <time>2013-09-22T09:51:22.060Z</time>
      </trkpt>
      <trkpt lat="45.73381" lon="6.77864">
        <ele>1888.04299904</ele>
        <time>2013-09-22T09:51:27.060Z</time>
      </trkpt>
      <trkpt lat="45.73375" lon="6.77852">
        <ele>1888.64299904</ele>
        <time>2013-09-22T09:51:33.060Z</time>
      </trkpt>
      <trkpt lat="45.73366" lon="6.77844">
        <ele>1889</ele>
        <time>2013-09-22T09:51:37.060Z</time>
      </trkpt>
      <trkpt lat="45.73358" lon="6.77836">
        <ele>1889</ele>
        <time>2013-09-22T09:51:41.060Z</time>
      </trkpt>
      <trkpt lat="45.73348" lon="6.77829">
        <ele>1889</ele>
        <time>2013-09-22T09:51:45.060Z</time>
      </trkpt>
      <trkpt lat="45.73336" lon="6.77825">
        <ele>1888.75700096</ele>
        <time>2013-09-22T09:51:49.060Z</time>
      </trkpt>
      <trkpt lat="45.73326" lon="6.77818">
        <ele>1888.35700096</ele>
        <time>2013-09-22T09:51:53.060Z</time>
      </trkpt>
      <trkpt lat="45.73317" lon="6.77809">
        <ele>1887.91400192</ele>
        <time>2013-09-22T09:51:57.060Z</time>
      </trkpt>
      <trkpt lat="45.73308" lon="6.77799">
        <ele>1887.11400192</ele>
        <time>2013-09-22T09:52:01.060Z</time>
      </trkpt>
      <trkpt lat="45.73297" lon="6.77799">
        <ele>1886.31400192</ele>
        <time>2013-09-22T09:52:05.060Z</time>
      </trkpt>
      <trkpt lat="45.73285" lon="6.77795">
        <ele>1886</ele>
        <time>2013-09-22T09:52:08.940Z</time>
      </trkpt>
      <trkpt lat="45.73275" lon="6.7779">
        <ele>1886</ele>
        <time>2013-09-22T09:52:12.940Z</time>
      </trkpt>
      <trkpt lat="45.73264" lon="6.77786">
        <ele>1885.83200256</ele>
        <time>2013-09-22T09:52:17.050Z</time>
      </trkpt>
      <trkpt lat="45.73253" lon="6.7778">
        <ele>1884.23200256</ele>
        <time>2013-09-22T09:52:21.050Z</time>
      </trkpt>
      <trkpt lat="45.73242" lon="6.77776">
        <ele>1882.63200256</ele>
        <time>2013-09-22T09:52:25.050Z</time>
      </trkpt>
      <trkpt lat="45.7323" lon="6.77773">
        <ele>1881.24100096</ele>
        <time>2013-09-22T09:52:29.160Z</time>
      </trkpt>
      <trkpt lat="45.73221" lon="6.77763">
        <ele>1880.04100096</ele>
        <time>2013-09-22T09:52:33.160Z</time>
      </trkpt>
      <trkpt lat="45.73212" lon="6.77753">
        <ele>1879</ele>
        <time>2013-09-22T09:52:36.910Z</time>
      </trkpt>
      <trkpt lat="45.73206" lon="6.7774">
        <ele>1879</ele>
        <time>2013-09-22T09:52:40.910Z</time>
      </trkpt>
      <trkpt lat="45.73198" lon="6.7773">
        <ele>1879</ele>
        <time>2013-09-22T09:52:44.910Z</time>
      </trkpt>
      <trkpt lat="45.73188" lon="6.77723">
        <ele>1878.51400192</ele>
        <time>2013-09-22T09:52:49.060Z</time>
      </trkpt>
      <trkpt lat="45.73179" lon="6.77711">
        <ele>1877.71400192</ele>
        <time>2013-09-22T09:52:53.060Z</time>
      </trkpt>
      <trkpt lat="45.73172" lon="6.77699">
        <ele>1876.968</ele>
        <time>2013-09-22T09:52:56.950Z</time>
      </trkpt>
      <trkpt lat="45.73164" lon="6.77687">
        <ele>1876.568</ele>
        <time>2013-09-22T09:53:00.950Z</time>
      </trkpt>
      <trkpt lat="45.73157" lon="6.77675">
        <ele>1876.168</ele>
        <time>2013-09-22T09:53:04.950Z</time>
      </trkpt>
      <trkpt lat="45.73148" lon="6.77666">
        <ele>1875.536</ele>
        <time>2013-09-22T09:53:08.950Z</time>
      </trkpt>
      <trkpt lat="45.73141" lon="6.77655">
        <ele>1874.71600128</ele>
        <time>2013-09-22T09:53:13.050Z</time>
      </trkpt>
      <trkpt lat="45.73138" lon="6.77639">
        <ele>1873.9164191575</ele>
        <time>2013-09-22T09:53:17.050Z</time>
      </trkpt>
      <trkpt lat="45.73133" lon="6.77626">
        <ele>1873.1203990035</ele>
        <time>2013-09-22T09:53:21.050Z</time>
      </trkpt>
      <trkpt lat="45.73127" lon="6.77613">
        <ele>1872.3243788495</ele>
        <time>2013-09-22T09:53:25.050Z</time>
      </trkpt>
      <trkpt lat="45.73119" lon="6.77601">
        <ele>1870.8693487053</ele>
        <time>2013-09-22T09:53:28.930Z</time>
      </trkpt>
      <trkpt lat="45.73111" lon="6.7759">
        <ele>1868.8592991005</ele>
        <time>2013-09-22T09:53:32.930Z</time>
      </trkpt>
      <trkpt lat="45.73101" lon="6.77579">
        <ele>1866.87100288</ele>
        <time>2013-09-22T09:53:37.060Z</time>
      </trkpt>
      <trkpt lat="45.73094" lon="6.77566">
        <ele>1865.67100288</ele>
        <time>2013-09-22T09:53:41.060Z</time>
      </trkpt>
      <trkpt lat="45.73084" lon="6.77558">
        <ele>1864.47100288</ele>
        <time>2013-09-22T09:53:45.060Z</time>
      </trkpt>
      <trkpt lat="45.73073" lon="6.77552">
        <ele>1863.27100288</ele>
        <time>2013-09-22T09:53:49.060Z</time>
      </trkpt>
      <trkpt lat="45.73062" lon="6.77547">
        <ele>1862.07100288</ele>
        <time>2013-09-22T09:53:53.060Z</time>
      </trkpt>
      <trkpt lat="45.73052" lon="6.77541">
        <ele>1860.872</ele>
        <time>2013-09-22T09:53:56.950Z</time>
      </trkpt>
      <trkpt lat="45.73042" lon="6.77535">
        <ele>1859.272</ele>
        <time>2013-09-22T09:54:00.950Z</time>
      </trkpt>
      <trkpt lat="45.73032" lon="6.7753">
        <ele>1857.672</ele>
        <time>2013-09-22T09:54:04.950Z</time>
      </trkpt>
      <trkpt lat="45.73022" lon="6.77522">
        <ele>1857</ele>
        <time>2013-09-22T09:54:09.060Z</time>
      </trkpt>
      <trkpt lat="45.73014" lon="6.77512">
        <ele>1857</ele>
        <time>2013-09-22T09:54:13.060Z</time>
      </trkpt>
      <trkpt lat="45.73007" lon="6.775">
        <ele>1856.91400192</ele>
        <time>2013-09-22T09:54:17.060Z</time>
      </trkpt>
      <trkpt lat="45.73" lon="6.77487">
        <ele>1856.11400192</ele>
        <time>2013-09-22T09:54:21.060Z</time>
      </trkpt>
      <trkpt lat="45.72991" lon="6.77475">
        <ele>1855.31400192</ele>
        <time>2013-09-22T09:54:25.060Z</time>
      </trkpt>
      <trkpt lat="45.72983" lon="6.77463">
        <ele>1853.7850048</ele>
        <time>2013-09-22T09:54:29.060Z</time>
      </trkpt>
      <trkpt lat="45.72976" lon="6.77452">
        <ele>1851.7850048</ele>
        <time>2013-09-22T09:54:33.060Z</time>
      </trkpt>
      <trkpt lat="45.72968" lon="6.77439">
        <ele>1849.92400128</ele>
        <time>2013-09-22T09:54:37.010Z</time>
      </trkpt>
      <trkpt lat="45.72962" lon="6.77426">
        <ele>1849.12400128</ele>
        <time>2013-09-22T09:54:41.010Z</time>
      </trkpt>
      <trkpt lat="45.72955" lon="6.77415">
        <ele>1848.32400128</ele>
        <time>2013-09-22T09:54:45.010Z</time>
      </trkpt>
      <trkpt lat="45.72946" lon="6.77406">
        <ele>1847.75700096</ele>
        <time>2013-09-22T09:54:49.060Z</time>
      </trkpt>
      <trkpt lat="45.72937" lon="6.77398">
        <ele>1847.35700096</ele>
        <time>2013-09-22T09:54:53.060Z</time>
      </trkpt>
      <trkpt lat="45.72926" lon="6.7739">
        <ele>1846.78800128</ele>
        <time>2013-09-22T09:54:57.160Z</time>
      </trkpt>
      <trkpt lat="45.72918" lon="6.77378">
        <ele>1845.18800128</ele>
        <time>2013-09-22T09:55:01.160Z</time>
      </trkpt>
      <trkpt lat="45.72909" lon="6.77367">
        <ele>1843.58800128</ele>
        <time>2013-09-22T09:55:05.160Z</time>
      </trkpt>
      <trkpt lat="45.729" lon="6.77357">
        <ele>1842.75700096</ele>
        <time>2013-09-22T09:55:09.060Z</time>
      </trkpt>
      <trkpt lat="45.72894" lon="6.77342">
        <ele>1842.35700096</ele>
        <time>2013-09-22T09:55:13.060Z</time>
      </trkpt>
      <trkpt lat="45.72886" lon="6.77332">
        <ele>1841.7850048</ele>
        <time>2013-09-22T09:55:17.060Z</time>
      </trkpt>
      <trkpt lat="45.7288" lon="6.77318">
        <ele>1838.7850048</ele>
        <time>2013-09-22T09:55:23.060Z</time>
      </trkpt>
      <trkpt lat="45.72877" lon="6.77303">
        <ele>1836.86400256</ele>
        <time>2013-09-22T09:55:26.970Z</time>
      </trkpt>
      <trkpt lat="45.72878" lon="6.77288">
        <ele>1835.26400256</ele>
        <time>2013-09-22T09:55:30.970Z</time>
      </trkpt>
      <trkpt lat="45.72879" lon="6.77271">
        <ele>1833.66400256</ele>
        <time>2013-09-22T09:55:34.970Z</time>
      </trkpt>
      <trkpt lat="45.72878" lon="6.77255">
        <ele>1832.02800384</ele>
        <time>2013-09-22T09:55:39.060Z</time>
      </trkpt>
      <trkpt lat="45.72879" lon="6.77239">
        <ele>1830.42800384</ele>
        <time>2013-09-22T09:55:43.060Z</time>
      </trkpt>
      <trkpt lat="45.72877" lon="6.77223">
        <ele>1828.95700096</ele>
        <time>2013-09-22T09:55:47.060Z</time>
      </trkpt>
      <trkpt lat="45.7287" lon="6.7721">
        <ele>1828.55700096</ele>
        <time>2013-09-22T09:55:51.060Z</time>
      </trkpt>
      <trkpt lat="45.72862" lon="6.77201">
        <ele>1828.15700096</ele>
        <time>2013-09-22T09:55:55.060Z</time>
      </trkpt>
      <trkpt lat="45.72853" lon="6.77192">
        <ele>1827.072</ele>
        <time>2013-09-22T09:55:58.950Z</time>
      </trkpt>
      <trkpt lat="45.72844" lon="6.77179">
        <ele>1825.472</ele>
        <time>2013-09-22T09:56:02.950Z</time>
      </trkpt>
      <trkpt lat="45.72835" lon="6.77168">
        <ele>1823.9474730458</ele>
        <time>2013-09-22T09:56:07.160Z</time>
      </trkpt>
      <trkpt lat="45.72826" lon="6.77158">
        <ele>1823.551040809</ele>
        <time>2013-09-22T09:56:11.160Z</time>
      </trkpt>
      <trkpt lat="45.72815" lon="6.7715">
        <ele>1823.1546085723</ele>
        <time>2013-09-22T09:56:15.160Z</time>
      </trkpt>
      <trkpt lat="45.72805" lon="6.7714">
        <ele>1821.8659290323</ele>
        <time>2013-09-22T09:56:18.970Z</time>
      </trkpt>
      <trkpt lat="45.72794" lon="6.77131">
        <ele>1819.8498</ele>
        <time>2013-09-22T09:56:22.970Z</time>
      </trkpt>
      <trkpt lat="45.72786" lon="6.77118">
        <ele>1817.9159172241</ele>
        <time>2013-09-22T09:56:27.060Z</time>
      </trkpt>
      <trkpt lat="45.72779" lon="6.77105">
        <ele>1817.1151166798</ele>
        <time>2013-09-22T09:56:31.060Z</time>
      </trkpt>
      <trkpt lat="45.72771" lon="6.77092">
        <ele>1816.2942948407</ele>
        <time>2013-09-22T09:56:35.160Z</time>
      </trkpt>
      <trkpt lat="45.72763" lon="6.7708">
        <ele>1816</ele>
        <time>2013-09-22T09:56:39.160Z</time>
      </trkpt>
      <trkpt lat="45.72755" lon="6.77068">
        <ele>1816</ele>
        <time>2013-09-22T09:56:43.160Z</time>
      </trkpt>
      <trkpt lat="45.72746" lon="6.7706">
        <ele>1815.62900224</ele>
        <time>2013-09-22T09:56:47.160Z</time>
      </trkpt>
      <trkpt lat="45.72734" lon="6.77055">
        <ele>1812.82900224</ele>
        <time>2013-09-22T09:56:51.160Z</time>
      </trkpt>
      <trkpt lat="45.72722" lon="6.77052">
        <ele>1810.02900224</ele>
        <time>2013-09-22T09:56:55.160Z</time>
      </trkpt>
      <trkpt lat="45.72712" lon="6.77051">
        <ele>1808.03200256</ele>
        <time>2013-09-22T09:56:59.050Z</time>
      </trkpt>
      <trkpt lat="45.72701" lon="6.77047">
        <ele>1806.43200256</ele>
        <time>2013-09-22T09:57:03.050Z</time>
      </trkpt>
      <trkpt lat="45.72691" lon="6.77041">
        <ele>1804.90000128</ele>
        <time>2013-09-22T09:57:06.880Z</time>
      </trkpt>
      <trkpt lat="45.72681" lon="6.7704">
        <ele>1803.30000128</ele>
        <time>2013-09-22T09:57:10.880Z</time>
      </trkpt>
      <trkpt lat="45.7267" lon="6.77041">
        <ele>1801.69600256</ele>
        <time>2013-09-22T09:57:14.890Z</time>
      </trkpt>
      <trkpt lat="45.72659" lon="6.77038">
        <ele>1800.11400192</ele>
        <time>2013-09-22T09:57:21.060Z</time>
      </trkpt>
      <trkpt lat="45.72651" lon="6.77028">
        <ele>1799.31400192</ele>
        <time>2013-09-22T09:57:25.060Z</time>
      </trkpt>
      <trkpt lat="45.72644" lon="6.77018">
        <ele>1798.75700096</ele>
        <time>2013-09-22T09:57:29.060Z</time>
      </trkpt>
      <trkpt lat="45.72636" lon="6.77008">
        <ele>1798.25699968</ele>
        <time>2013-09-22T09:57:34.060Z</time>
      </trkpt>
      <trkpt lat="45.72627" lon="6.77">
        <ele>1797.69400064</ele>
        <time>2013-09-22T09:57:38.160Z</time>
      </trkpt>
      <trkpt lat="45.72616" lon="6.76993">
        <ele>1796.89400064</ele>
        <time>2013-09-22T09:57:42.160Z</time>
      </trkpt>
      <trkpt lat="45.72606" lon="6.76989">
        <ele>1796.09400064</ele>
        <time>2013-09-22T09:57:46.160Z</time>
      </trkpt>
      <trkpt lat="45.72595" lon="6.76985">
        <ele>1794.97400192</ele>
        <time>2013-09-22T09:57:50.050Z</time>
      </trkpt>
      <trkpt lat="45.72591" lon="6.7697">
        <ele>1793.47400192</ele>
        <time>2013-09-22T09:57:55.050Z</time>
      </trkpt>
      <trkpt lat="45.72594" lon="6.76956">
        <ele>1793.24199936</ele>
        <time>2013-09-22T09:57:59.050Z</time>
      </trkpt>
      <trkpt lat="45.72599" lon="6.7694">
        <ele>1793.64199936</ele>
        <time>2013-09-22T09:58:03.050Z</time>
      </trkpt>
      <trkpt lat="45.72603" lon="6.76926">
        <ele>1794.08399872</ele>
        <time>2013-09-22T09:58:07.050Z</time>
      </trkpt>
      <trkpt lat="45.72609" lon="6.76913">
        <ele>1794.88399872</ele>
        <time>2013-09-22T09:58:11.050Z</time>
      </trkpt>
      <trkpt lat="45.72613" lon="6.769">
        <ele>1795.68399872</ele>
        <time>2013-09-22T09:58:15.050Z</time>
      </trkpt>
      <trkpt lat="45.72619" lon="6.76885">
        <ele>1796.68999936</ele>
        <time>2013-09-22T09:58:20.080Z</time>
      </trkpt>
      <trkpt lat="45.72623" lon="6.7687">
        <ele>1797.68999936</ele>
        <time>2013-09-22T09:58:25.080Z</time>
      </trkpt>
      <trkpt lat="45.72626" lon="6.76856">
        <ele>1799.7649984</ele>
        <time>2013-09-22T09:58:30.160Z</time>
      </trkpt>
      <trkpt lat="45.72631" lon="6.76842">
        <ele>1802.7150016</ele>
        <time>2013-09-22T09:58:36.060Z</time>
      </trkpt>
      <trkpt lat="45.7263" lon="6.76827">
        <ele>1805.17200128</ele>
        <time>2013-09-22T09:58:42.060Z</time>
      </trkpt>
      <trkpt lat="45.72635" lon="6.76811">
        <ele>1807</ele>
        <time>2013-09-22T09:58:47.950Z</time>
      </trkpt>
      <trkpt lat="45.72643" lon="6.76802">
        <ele>1807</ele>
        <time>2013-09-22T09:58:52.950Z</time>
      </trkpt>
      <trkpt lat="45.72654" lon="6.76805">
        <ele>1807.6541131906</ele>
        <time>2013-09-22T09:58:57.950Z</time>
      </trkpt>
      <trkpt lat="45.72661" lon="6.76817">
        <ele>1810.6273549661</ele>
        <time>2013-09-22T09:59:03.950Z</time>
      </trkpt>
      <trkpt lat="45.72666" lon="6.76826">
        <ele>1812.6306742666</ele>
        <time>2013-09-22T09:59:07.970Z</time>
      </trkpt>
      <trkpt lat="45.72674" lon="6.76838">
        <ele>1816.1624592008</ele>
        <time>2013-09-22T09:59:14.970Z</time>
      </trkpt>
      <trkpt lat="45.72683" lon="6.76841">
        <ele>1821.9944707965</ele>
        <time>2013-09-22T09:59:25.660Z</time>
      </trkpt>
      <trkpt lat="45.72684" lon="6.76842">
        <ele>1822.9910742857</ele>
        <time>2013-09-22T09:59:26.870Z</time>
      </trkpt>
      <trkpt lat="45.72684" lon="6.76842">
        <ele>1823</ele>
        <time>2013-09-22T09:59:27.270Z</time>
      </trkpt>
    </trkseg>
  </trk>
</gpx>